ECMWFNIL_925_spd_000.txt.gz
Wind_Speed
33 31 29 27 25 23 20 18 17 16 15 14 11 9 8 8 7 6 5 3 2 2 4 5 8 10 10 11 12 14 15 15 15 15 14 14 14 13 13 13 13 12
34 32 30 29 27 25 23 20 19 18 16 14 12 10 10 10 8 7 6 5 4 3 3 4 6 8 10 11 11 13 14 14 13 13 13 13 13 13 14 14 14 14
35 34 32 31 29 27 25 23 21 20 17 15 14 12 11 11 10 8 7 6 6 5 3 3 5 7 8 10 10 12 13 13 12 12 13 12 12 13 14 15 15 15
37 36 34 32 30 28 26 24 23 23 20 18 16 14 12 12 11 10 9 9 8 7 4 2 4 5 6 8 9 10 12 11 11 11 12 12 12 13 14 16 16 16
39 38 36 34 31 30 28 26 25 25 23 20 18 15 14 13 12 11 11 10 10 7 4 1 2 4 5 6 8 9 10 10 10 10 11 12 13 14 15 16 16 17
38 38 37 35 33 32 30 28 27 26 24 22 20 18 15 14 13 12 12 11 10 6 3 1 2 3 4 6 7 8 9 9 9 11 12 13 14 15 16 16 17 17
39 38 38 36 35 34 32 30 28 28 26 24 22 20 17 15 14 13 12 11 9 6 3 1 1 2 4 6 7 7 8 9 10 11 12 13 13 14 15 15 16 17
40 39 39 37 36 35 33 31 30 29 27 26 24 22 20 18 16 15 13 11 8 5 3 2 2 2 4 6 7 7 9 10 11 12 13 13 14 14 15 15 15 15
36 36 37 38 37 36 35 33 31 30 29 27 26 24 22 20 18 17 15 12 8 6 4 4 3 3 5 6 6 8 9 10 11 12 13 14 14 15 15 16 15 15
28 30 33 36 37 37 37 34 32 32 30 28 26 25 23 21 20 18 16 13 10 8 6 5 4 4 5 6 7 8 9 9 10 12 13 14 14 15 15 16 16 15
31 33 33 35 37 37 37 36 34 33 30 28 27 25 24 23 21 19 16 14 12 10 8 6 5 5 5 6 6 7 8 9 10 11 12 13 14 14 15 15 15 16
39 37 37 38 38 36 35 35 35 32 30 28 27 25 25 24 21 19 16 14 12 10 9 7 6 5 4 5 5 6 7 9 9 11 12 13 13 14 15 15 16 16
38 37 38 39 39 38 36 35 34 32 30 28 26 26 26 24 21 18 15 13 12 11 9 7 6 4 3 3 4 6 7 9 10 12 13 13 14 14 15 15 16 17
34 35 37 38 39 39 36 35 35 32 30 28 26 26 26 23 20 17 15 13 11 10 9 7 5 4 4 3 5 7 9 11 12 13 14 15 15 16 16 16 17 18
31 32 33 34 36 37 37 37 36 33 31 29 28 27 25 22 20 17 15 14 13 10 8 7 6 5 4 4 6 8 10 11 12 12 13 14 15 16 17 17 18 19
30 30 31 34 36 37 38 37 36 33 31 30 29 27 24 22 20 18 17 16 14 12 9 8 7 6 4 5 6 8 9 9 10 10 11 12 14 15 17 18 18 20
28 30 32 35 37 39 39 39 38 35 33 31 30 27 24 22 20 18 17 16 14 12 10 9 7 5 4 5 6 7 8 9 9 10 10 11 13 15 17 19 20 21
27 30 32 35 38 40 38 35 36 36 34 32 30 27 24 22 21 20 18 16 14 12 10 9 7 6 5 5 6 7 8 9 9 10 11 12 14 16 19 20 22 23
26 29 32 34 35 34 28 25 28 30 30 28 26 24 23 21 20 19 18 16 13 12 11 9 8 7 6 5 7 8 8 8 9 10 11 13 16 18 20 22 23 24
26 29 30 30 29 26 23 24 28 29 28 26 24 23 22 21 20 19 16 14 13 11 11 10 9 8 7 7 8 9 9 9 10 11 13 15 17 20 22 23 24 25
24 27 26 26 26 24 23 27 31 30 29 27 25 23 22 21 20 17 14 13 12 12 11 10 9 8 8 9 10 10 11 11 12 14 15 17 19 21 23 23 24 25
23 25 26 25 26 27 28 32 33 30 28 28 28 25 22 20 18 15 13 13 13 12 12 11 10 10 10 11 12 12 13 13 14 16 17 18 21 22 23 24 24 25
22 24 26 26 27 28 30 34 35 32 31 31 29 25 22 20 18 15 13 14 14 14 13 12 11 12 12 12 14 15 15 15 16 17 18 20 22 23 23 24 24 25
21 24 26 28 29 30 31 33 34 34 33 30 27 25 23 20 16 15 14 15 15 14 13 13 13 13 14 15 16 17 16 16 17 18 20 22 24 24 24 24 24 26
21 24 27 29 30 33 35 35 35 35 32 27 25 24 21 18 17 16 15 15 15 14 14 14 15 15 15 17 18 18 18 17 17 19 21 23 25 25 25 24 25 27
21 25 29 30 33 37 39 38 36 34 29 25 24 22 20 19 17 15 13 13 14 14 15 16 16 17 17 19 20 20 19 18 18 20 23 25 25 25 25 25 26 28

ECMWFNIL_925_spd_006.txt.gz
Wind_Speed
15 14 14 15 14 12 12 12 11 11 11 9 9 10 10 11 11 10 9 9 8 9 9 9 8 8 8 7 7 7 7 7 7 7 6 6 6 6 5 4 4 3
16 14 13 14 14 14 13 13 13 13 12 11 10 10 11 12 13 11 11 10 9 9 9 8 8 7 7 7 6 6 6 6 6 6 5 5 5 4 4 4 3 3
21 18 16 15 14 15 16 15 14 14 14 13 13 13 13 14 14 13 12 11 10 10 9 9 8 8 7 7 7 7 6 6 6 5 5 5 4 4 3 3 3 3
25 24 21 18 15 15 17 17 16 15 15 15 15 15 16 16 16 15 14 13 12 11 10 9 9 8 8 8 7 7 7 7 6 5 4 4 4 3 3 3 3 3
24 23 21 19 16 14 16 18 19 18 16 16 17 17 17 17 17 16 16 15 13 12 12 10 10 9 8 8 7 7 7 7 6 5 4 4 3 3 2 2 2 3
19 20 19 18 16 15 15 16 18 19 19 18 18 18 19 19 19 18 17 16 15 14 13 12 11 9 8 8 7 7 7 7 6 6 5 4 3 2 2 1 2 2
18 19 18 18 17 18 18 17 16 18 19 19 19 19 20 20 20 19 19 18 17 16 15 14 12 11 9 8 8 7 7 7 7 6 5 5 4 3 2 1 1 2
18 19 19 18 19 19 19 18 16 16 18 19 19 20 21 21 21 20 20 19 18 17 16 15 14 13 11 10 9 9 8 7 7 6 5 5 4 3 2 1 0 1
16 18 18 19 20 20 20 20 18 17 18 19 20 20 21 22 21 22 21 20 19 18 17 16 15 14 12 11 11 10 9 8 7 6 5 5 4 3 1 1 1 2
12 14 16 17 18 19 20 19 18 17 18 19 19 19 21 22 22 23 23 22 21 19 19 18 17 15 14 13 12 11 10 10 8 7 6 5 4 3 2 2 2 3
10 11 13 15 15 15 16 16 17 17 18 19 19 20 21 22 23 23 23 23 22 21 20 19 18 17 16 15 14 12 11 10 9 8 7 5 4 3 3 3 3 3
8 9 11 13 13 13 15 17 18 18 18 19 20 20 21 22 24 24 24 24 22 21 21 20 19 18 17 16 15 13 12 10 9 8 7 6 4 3 3 3 3 3
7 8 10 11 12 13 15 16 16 18 18 18 18 19 20 21 23 23 23 23 23 22 21 20 20 19 17 17 15 14 12 11 9 8 6 6 4 4 4 4 4 3
8 8 8 10 11 12 14 15 16 17 18 17 16 17 18 19 19 19 19 20 22 23 22 21 20 19 18 17 15 14 12 11 9 7 6 5 4 4 4 4 4 4
7 7 7 7 9 10 12 14 15 17 17 17 16 17 17 18 20 22 22 21 22 22 21 21 20 19 18 18 16 14 12 10 8 7 6 5 4 4 4 4 4 4
7 7 7 7 8 9 9 11 13 15 16 16 17 17 17 17 20 23 23 23 23 23 22 21 18 17 18 19 17 14 11 9 8 6 5 5 4 5 4 4 5 5
9 9 9 8 8 8 8 9 10 12 14 14 15 15 16 18 21 24 26 25 23 23 24 22 19 19 21 20 17 14 11 9 7 6 6 5 5 5 5 5 6 6
10 10 10 9 9 9 8 8 9 10 12 12 13 15 18 20 23 26 28 27 24 22 21 19 18 20 20 17 14 12 9 8 7 6 6 6 6 6 6 6 7 7
11 10 10 10 9 9 8 8 8 9 11 12 14 16 17 19 22 24 25 25 23 22 21 20 19 19 18 15 12 9 7 6 6 6 6 6 7 7 7 8 8 9
10 10 10 10 10 9 8 8 8 9 11 12 14 16 17 18 21 23 24 23 22 22 22 21 20 19 17 14 11 8 7 6 6 6 6 6 7 8 9 10 10 10
10 10 10 10 11 10 10 9 9 10 11 12 14 15 16 17 19 22 23 22 21 21 19 18 19 19 16 13 10 8 7 5 5 6 6 7 8 9 10 11 11 11
10 11 11 11 12 11 11 11 11 11 12 12 14 15 15 17 19 21 21 20 20 19 17 16 18 19 15 12 10 9 7 5 5 7 7 8 9 10 11 12 12 12
11 12 12 12 12 12 13 12 12 12 13 13 15 15 15 17 18 19 19 19 18 17 15 14 16 17 13 10 10 9 7 5 6 7 8 9 10 11 12 12 13 13
13 13 14 14 14 14 14 13 13 13 13 14 15 16 17 17 17 17 17 17 17 16 14 13 14 13 10 8 9 8 6 5 7 8 9 10 11 12 12 13 14 15
14 14 15 15 15 15 15 14 14 13 14 14 16 17 17 17 17 17 17 19 19 16 13 12 11 10 8 7 8 7 6 6 8 10 10 11 12 13 13 14 14 15
14 14 15 16 17 17 16 15 14 13 14 15 16 17 17 17 17 17 18 19 17 15 13 11 10 9 7 6 6 7 8 9 10 11 12 13 13 14 15 15 15 16

ECMWFNIL_925_spd_009.txt.gz
Wind_Speed
17 17 17 16 15 15 15 14 14 15 13 12 11 11 11 10 10 9 8 8 8 8 8 7 6 6 6 6 6 6 7 7 7 7 6 7 7 7 7 7 7 6
18 17 17 17 16 15 16 15 14 15 14 13 13 13 12 13 12 10 10 9 9 9 9 8 7 6 5 5 5 5 6 6 5 5 5 5 5 6 6 6 6 6
19 18 17 17 16 16 16 15 15 15 15 14 15 15 15 15 14 13 11 11 10 10 9 9 8 7 6 6 5 5 5 5 5 4 4 4 4 4 4 4 4 5
19 18 17 16 15 15 16 16 15 15 15 15 15 16 17 17 16 15 14 13 11 11 10 10 9 9 8 7 6 5 5 4 4 4 4 4 3 3 3 2 2 3
18 17 16 16 15 14 15 16 16 16 15 16 16 16 17 18 18 17 16 15 13 12 12 11 10 10 9 9 8 7 6 5 4 4 4 3 3 2 2 1 1 1
15 15 14 14 14 14 15 15 15 16 16 16 16 17 18 19 19 18 18 17 15 14 14 13 12 12 11 10 9 8 7 6 6 5 5 4 3 2 2 2 1 1
12 12 13 14 14 14 15 16 16 16 16 16 17 17 18 19 19 19 19 18 17 16 15 15 14 13 12 11 10 9 8 7 7 7 6 5 4 4 3 3 2 2
10 10 11 15 16 16 15 15 16 17 17 17 18 19 19 20 20 20 20 19 18 18 17 16 15 15 14 13 12 11 11 9 9 8 7 6 5 5 5 4 3 3
9 10 11 15 19 20 18 16 16 17 17 17 18 19 20 21 20 20 21 20 20 19 18 18 17 16 16 15 14 14 13 11 10 9 8 8 7 6 5 5 4 4
8 9 11 14 18 21 21 20 19 18 17 18 17 17 18 20 20 20 21 22 21 21 20 20 19 18 17 16 16 15 14 12 12 11 10 9 8 7 6 5 5 5
5 7 10 14 15 17 18 18 17 16 17 18 18 17 18 20 20 21 22 22 22 23 22 22 21 21 19 18 17 16 15 13 12 12 11 9 8 7 6 6 5 5
1 4 9 11 13 16 18 17 14 14 16 18 18 18 19 20 21 21 23 24 24 24 24 23 23 21 20 18 17 16 15 14 13 12 11 10 9 8 7 6 6 5
3 1 4 5 7 11 13 14 13 14 16 17 18 19 19 20 22 22 24 26 26 24 24 23 22 21 20 18 17 16 15 14 13 12 11 10 9 8 7 7 6 6
1 1 2 3 4 5 7 10 12 14 16 17 19 21 21 20 21 23 25 27 26 24 23 22 21 21 20 18 17 16 14 13 12 11 11 10 8 8 8 7 7 7
1 1 2 3 4 5 6 8 10 12 14 16 18 20 19 18 18 20 24 27 26 23 23 22 22 21 20 20 18 16 14 13 12 11 10 10 9 8 8 8 8 8
1 1 2 3 4 6 6 7 8 10 12 14 15 17 17 18 18 20 23 25 23 21 22 23 22 21 21 23 21 18 15 14 12 11 10 10 9 8 8 8 8 8
3 3 3 4 5 5 6 7 8 9 11 12 13 14 15 17 18 19 21 21 19 20 22 22 20 20 23 26 24 20 16 14 13 12 11 10 9 8 9 9 9 9
4 4 5 5 5 6 6 7 7 8 10 11 12 12 13 15 16 17 18 18 18 20 20 19 18 21 25 27 25 23 19 14 12 11 10 10 9 9 9 8 9 9
5 5 5 5 5 6 7 7 8 9 9 10 11 10 11 12 13 14 15 15 16 17 17 16 18 23 27 27 26 25 22 15 11 11 11 9 9 9 9 8 8 8
5 5 5 6 6 7 8 9 9 10 9 9 10 10 11 12 13 14 16 15 16 18 17 16 20 25 27 27 26 24 21 16 10 10 10 8 8 9 9 9 9 9
5 6 6 7 8 8 9 10 10 10 10 10 10 11 11 13 14 16 18 18 19 21 20 18 22 25 26 26 24 21 19 15 10 9 8 7 8 9 9 10 10 10
5 7 7 8 9 9 10 10 11 11 11 11 11 11 11 13 13 15 18 19 20 20 18 18 22 26 26 24 22 18 16 12 8 8 8 8 8 9 9 10 10 10
7 7 8 9 9 10 11 11 11 11 11 11 12 12 12 12 13 14 16 18 19 19 18 19 24 27 25 22 19 16 14 9 7 8 8 8 9 9 10 10 10 11
8 9 9 10 10 11 11 12 12 12 12 11 12 13 13 13 13 13 14 15 17 18 18 20 26 28 23 20 17 15 12 8 7 7 7 8 8 9 9 10 11 12
10 10 10 10 11 11 11 12 13 13 13 13 13 13 14 14 13 12 12 13 14 15 15 21 27 27 21 19 17 14 11 8 4 5 6 7 8 8 9 9 10 11
12 12 12 11 11 11 11 12 13 14 14 14 14 14 14 14 12 11 12 12 13 14 15 22 27 25 20 18 17 14 11 8 5 5 7 7 7 8 8 9 10 10

ECMWFNIL_925_spd_012.txt.gz
Wind_Speed
21 22 21 20 19 19 18 16 15 14 14 14 14 14 13 12 11 9 7 7 7 7 8 9 10 11 11 11 10 10 10 10 10 11 11 11 10 11 10 9 11 10
22 21 21 19 18 18 17 16 15 14 13 13 14 13 14 13 12 12 10 9 8 8 8 8 9 10 9 10 9 9 10 10 10 9 9 8 8 9 8 8 9 8
22 21 21 19 17 18 18 15 14 15 13 12 13 13 14 14 13 12 12 11 10 9 9 8 9 9 9 10 10 8 9 9 8 8 8 8 7 7 6 6 6 6
21 21 20 19 16 16 18 16 14 15 13 11 13 14 14 14 13 12 12 11 11 10 10 9 9 9 9 10 10 9 9 8 8 8 7 7 6 5 5 5 5 5
19 18 17 18 16 15 18 17 14 14 14 12 13 14 14 15 14 13 13 12 12 11 11 11 10 10 11 11 10 10 11 9 9 8 7 6 5 4 4 4 3 4
16 16 15 14 14 13 15 18 15 13 13 14 13 14 15 16 15 15 15 15 14 13 13 13 12 12 12 12 11 12 11 10 10 10 9 8 6 4 4 3 1 1
15 14 14 13 13 11 11 13 15 13 12 13 14 15 15 16 17 17 17 16 16 16 15 15 15 15 14 13 12 12 12 11 11 11 10 9 8 6 5 4 2 1
13 13 12 11 12 13 10 10 13 14 12 11 12 15 16 16 17 18 19 19 18 18 18 18 17 17 16 15 14 13 13 12 12 11 11 10 10 8 7 7 5 3
8 9 9 9 11 12 10 11 13 14 14 10 9 11 14 16 18 19 19 20 20 20 20 20 19 18 18 17 16 15 15 15 13 12 12 11 11 8 8 8 7 5
3 1 5 6 8 10 9 9 11 12 13 12 12 11 12 14 17 20 21 21 22 22 21 21 20 20 20 20 18 17 17 16 15 14 13 12 11 9 8 8 7 6
2 5 7 7 8 10 11 11 13 13 12 13 15 17 17 17 19 21 23 23 23 23 22 22 22 21 21 21 20 19 18 17 15 15 14 13 12 10 9 9 7 6
10 9 10 11 13 14 15 15 16 17 17 17 17 18 20 23 25 25 25 26 25 24 23 22 22 22 22 22 20 19 19 18 16 15 15 13 12 11 10 10 9 8
12 12 10 10 12 13 14 15 15 17 19 20 20 17 19 24 28 28 25 23 22 23 24 24 23 22 22 21 20 19 19 18 17 15 14 13 12 12 10 9 9 8
8 9 8 7 7 7 8 11 13 14 15 18 19 19 20 24 27 27 25 23 21 21 22 24 23 22 22 21 19 19 19 18 17 16 15 14 13 12 11 10 9 8
6 5 6 6 5 5 6 7 9 11 12 14 18 20 22 25 27 27 27 28 26 24 23 20 17 17 18 18 19 19 19 19 18 17 16 15 15 13 11 11 10 9
5 5 5 4 4 5 5 5 7 9 11 14 17 20 23 25 26 26 26 27 24 23 25 24 20 19 17 16 19 20 19 19 18 17 16 15 15 13 12 12 11 10
4 3 3 3 3 3 4 5 7 8 9 12 14 17 20 21 20 19 20 22 21 20 24 27 26 26 23 21 22 22 21 19 18 17 16 14 14 13 12 12 11 10
2 2 1 1 0 1 2 2 3 4 6 8 9 11 13 13 13 13 14 17 21 22 23 24 25 25 24 23 24 24 23 20 18 17 15 13 12 12 11 11 11 11
1 2 2 1 0 1 3 3 4 5 7 7 8 8 9 9 10 10 11 12 16 18 21 23 23 21 20 22 25 26 24 20 17 16 14 13 12 11 11 10 9 9
2 1 0 1 1 2 3 5 6 7 7 7 7 8 9 10 11 11 11 10 10 12 15 20 22 22 21 22 26 28 25 20 15 13 13 12 11 12 11 10 9 8
2 1 1 1 2 3 4 5 6 7 8 8 9 9 10 10 11 12 13 13 11 10 13 17 20 22 23 24 26 26 24 20 14 11 12 11 9 10 10 10 9 8
3 1 0 2 3 4 5 6 6 7 8 9 9 10 11 11 12 12 13 14 14 13 15 17 17 20 24 25 26 24 22 19 13 10 11 11 9 9 10 10 9 9
3 3 3 3 4 4 5 6 6 7 8 10 10 11 11 12 13 13 13 13 15 15 17 18 19 21 24 25 25 24 22 19 14 10 10 11 10 10 10 10 10 10
4 5 4 5 5 6 7 7 7 8 9 11 12 12 12 12 13 13 14 14 14 16 17 18 20 23 24 24 24 23 20 17 13 10 10 11 11 11 10 10 9 10
6 6 6 7 7 8 8 8 8 9 10 11 12 13 13 13 13 14 14 12 10 11 15 17 20 23 23 22 21 20 18 16 11 8 8 8 9 9 8 8 7 8
8 8 9 9 9 9 9 9 9 10 11 12 14 14 13 13 12 11 8 5 5 8 12 15 19 23 22 20 20 19 18 15 9 5 3 3 5 5 6 5 5 6

ECMWFNIL_925_spd_015.txt.gz
Wind_Speed
25 25 26 24 24 24 23 23 22 19 18 15 14 14 13 14 14 13 11 10 11 13 14 15 14 12 10 10 10 12 13 14 14 13 12 13 12 12 13 11 9 8
25 24 24 23 22 23 22 22 22 19 18 15 14 14 12 13 13 11 10 9 10 11 12 13 14 13 11 8 9 11 12 12 12 10 10 12 12 12 12 11 9 7
25 24 23 23 22 22 20 20 20 18 18 17 15 14 12 13 13 11 8 8 9 9 10 12 13 12 10 8 8 10 11 11 10 8 8 9 10 10 10 10 9 6
22 23 21 22 21 20 19 19 19 17 18 18 16 15 13 13 13 11 9 8 9 9 9 11 11 9 9 8 7 8 9 9 9 8 7 7 6 6 7 8 8 7
20 21 19 19 20 20 18 19 18 17 18 19 17 16 14 13 13 12 10 9 9 9 9 11 11 9 9 9 8 7 8 9 8 9 8 7 6 4 5 7 8 7
12 16 16 16 18 20 18 18 19 17 17 18 17 16 14 12 12 12 11 11 10 10 9 10 11 10 10 10 10 9 9 9 8 8 8 6 6 5 4 5 5 4
3 1 3 5 11 21 21 18 18 18 17 16 16 16 15 13 13 12 11 11 11 11 10 10 11 12 11 12 11 11 11 11 9 9 9 7 5 6 5 4 3 2
7 2 4 4 4 14 20 17 18 18 17 16 16 16 16 15 15 14 13 12 12 12 12 11 11 12 13 13 13 12 13 12 11 12 12 10 8 8 7 5 4 4
15 12 12 9 5 10 15 15 17 17 15 15 16 18 18 16 15 15 14 14 13 14 14 13 12 13 13 14 14 14 14 14 13 13 14 13 12 11 9 8 7 5
15 16 15 11 6 6 9 11 14 15 15 14 15 17 18 17 17 17 16 16 15 15 16 15 15 15 15 16 16 16 16 16 15 15 14 14 15 13 11 11 10 7
18 19 19 16 11 11 12 12 14 16 17 16 15 16 16 16 17 17 17 17 18 18 18 19 19 19 19 18 18 18 19 18 18 18 16 15 15 14 12 12 12 9
17 18 18 19 21 22 21 18 17 16 17 18 18 18 18 17 16 16 16 17 18 19 20 19 19 19 20 21 20 21 21 21 21 21 18 17 16 15 13 12 12 11
14 14 14 16 19 21 21 19 18 17 17 17 19 20 20 20 18 16 15 14 15 17 18 18 17 17 20 23 24 24 24 24 24 23 20 19 18 16 14 14 13 11
11 12 13 14 15 16 17 18 19 18 18 18 19 20 21 21 20 19 18 17 17 18 19 21 20 19 22 25 26 27 27 27 26 24 22 21 20 17 16 15 14 12
11 12 11 11 12 11 12 13 15 16 16 16 17 18 19 19 19 19 18 19 19 20 21 22 22 21 22 24 25 27 28 27 26 25 23 22 20 18 16 15 14 12
13 13 11 10 10 9 8 8 9 11 12 14 15 15 15 15 15 16 18 19 19 20 20 21 22 23 23 23 24 26 26 26 26 26 24 23 21 19 18 16 14 14
13 12 11 10 10 10 9 9 9 10 11 12 13 13 12 12 13 14 15 17 19 20 21 21 23 24 25 24 24 26 26 25 26 27 25 24 23 22 20 18 16 15
12 12 10 9 10 10 9 8 8 10 11 12 12 12 12 12 13 13 13 14 15 16 18 20 22 23 25 25 25 26 26 25 26 27 26 24 23 23 21 19 17 15
9 8 8 9 8 7 5 4 4 4 4 6 7 7 7 9 10 10 10 9 10 12 14 17 21 22 23 25 25 25 25 24 24 27 27 25 23 21 20 18 16 15
6 6 9 10 8 5 3 2 1 1 1 2 2 2 2 3 5 7 9 9 10 12 13 16 19 20 20 22 23 23 24 24 24 25 25 23 21 19 18 16 13 13
4 6 8 7 5 4 3 1 1 2 2 3 3 3 4 5 5 7 10 12 13 14 14 15 16 15 16 19 20 19 22 25 25 24 22 20 16 14 15 14 12 12
4 6 6 4 4 2 1 1 1 2 2 3 4 4 6 7 8 9 10 13 15 16 16 15 14 13 14 14 15 16 20 24 23 21 19 17 14 13 13 13 13 12
5 6 4 4 3 3 2 2 2 3 4 5 6 6 7 8 9 10 11 12 14 16 17 15 14 14 13 11 13 18 21 20 19 17 15 14 13 11 9 9 9 10
5 5 5 5 5 4 3 3 4 5 6 7 7 8 9 10 10 10 11 12 13 14 16 17 16 15 13 13 17 20 20 17 15 14 12 11 11 8 6 6 8 9
1 3 4 5 4 4 5 7 7 7 8 8 8 10 11 11 12 13 14 15 14 14 15 17 17 15 15 17 20 21 20 17 14 12 11 9 7 6 5 7 7 7
4 4 5 6 8 9 10 10 10 10 10 10 10 11 12 13 14 14 14 14 13 12 13 15 16 16 18 20 20 19 18 17 14 12 12 10 8 7 6 3 2 2

ECMWFNIL_925_spd_018.txt.gz
Wind_Speed
28 29 26 24 25 24 23 21 20 21 20 18 17 17 17 17 16 16 16 16 15 14 13 12 12 11 12 12 12 12 12 12 11 10 10 12 12 11 11 10 9 7
28 28 25 24 24 24 23 21 20 20 19 18 18 18 18 17 16 15 15 16 16 15 14 12 11 10 10 11 12 12 12 12 11 11 11 13 12 11 11 10 9 8
26 26 24 24 25 25 23 21 20 19 18 18 18 19 19 18 16 14 14 15 17 16 14 12 11 10 9 10 10 10 10 11 11 10 11 11 11 10 10 9 8 8
25 25 25 25 25 25 24 24 22 20 19 19 19 19 19 18 17 14 13 14 16 16 15 13 12 10 8 9 9 9 9 9 10 9 10 10 9 9 9 7 6 7
25 26 26 26 25 25 25 26 25 23 21 20 19 19 18 18 18 16 15 15 15 15 15 14 12 10 8 8 8 7 7 7 7 7 7 9 8 8 8 7 6 6
23 24 26 26 25 25 26 26 26 25 23 21 20 19 18 18 18 17 16 16 15 15 15 15 13 11 10 9 8 7 7 7 7 6 5 6 5 6 8 8 6 5
23 24 25 26 25 25 26 26 26 25 24 22 21 20 19 18 18 17 16 16 16 16 16 15 14 13 12 11 11 9 8 8 8 8 7 5 4 4 6 6 5 4
25 25 25 25 26 27 27 26 26 26 24 24 23 22 21 19 18 17 16 16 16 16 16 16 16 15 15 14 14 12 11 10 10 10 9 8 7 6 6 5 4 3
28 29 27 25 26 28 28 26 26 26 25 24 24 23 22 21 19 18 17 16 16 16 16 17 16 17 16 15 15 15 14 13 13 12 12 11 10 9 8 7 5 4
29 31 29 25 23 24 26 25 24 25 25 25 24 24 23 23 22 20 19 18 17 16 16 16 16 16 16 16 15 16 16 16 15 15 14 14 13 12 11 9 7 6
27 28 28 25 22 20 20 20 22 23 24 25 25 25 25 25 24 23 21 21 20 18 17 17 17 17 17 17 17 17 17 17 16 16 16 16 15 14 14 13 11 9
25 25 25 25 23 20 18 20 23 23 22 22 22 22 25 27 26 24 24 23 22 20 19 19 19 19 18 18 18 19 19 18 18 18 18 17 17 16 15 15 13 11
24 24 24 24 23 21 21 22 24 21 19 20 19 18 23 26 25 24 24 24 23 23 22 22 22 22 21 21 21 22 21 20 20 19 19 19 18 17 16 16 15 13
24 24 23 22 21 21 20 22 22 20 18 18 18 18 20 20 19 20 20 21 22 23 24 24 24 24 24 24 24 24 24 23 22 21 21 20 20 19 18 17 16 14
20 21 20 19 19 20 21 23 23 21 19 17 16 17 17 16 15 15 16 17 19 21 22 24 24 23 23 24 24 24 26 26 26 24 23 23 23 22 20 18 17 16
15 16 16 16 16 17 20 22 22 21 19 18 17 16 16 15 15 15 16 17 18 19 20 22 23 23 22 22 23 23 24 26 27 27 26 25 25 24 22 21 19 19
11 12 14 14 14 15 15 16 16 15 13 13 13 13 12 12 13 14 14 15 16 17 18 19 20 20 20 21 22 22 22 23 25 27 28 27 27 26 25 23 22 21
11 12 13 13 13 12 11 10 10 9 8 8 8 8 8 10 11 13 13 14 14 14 14 15 15 15 15 17 19 21 21 22 23 25 27 28 28 27 26 25 25 23
11 12 12 11 11 10 9 8 8 8 8 8 8 8 10 11 11 11 12 12 12 11 10 10 10 11 11 12 14 16 18 20 22 24 26 27 28 28 27 28 26 23
11 13 12 10 10 9 8 7 6 6 6 5 5 6 8 10 9 9 9 9 9 9 8 8 8 9 10 10 12 14 16 18 21 23 24 25 26 27 27 27 25 21
9 12 12 12 12 12 10 8 6 5 5 4 3 2 3 4 5 6 6 6 8 9 10 10 9 9 10 10 10 12 13 14 18 21 22 22 24 25 24 22 19 15
9 12 13 12 11 10 8 6 4 4 3 3 2 2 2 3 3 5 7 8 8 8 10 12 12 11 11 11 10 9 10 11 14 17 18 18 19 20 18 15 12 11
9 12 11 10 8 7 6 5 4 4 4 5 5 6 5 5 5 6 8 9 10 10 11 12 13 14 13 12 11 8 7 8 11 14 15 16 15 14 12 11 9 9
9 13 11 10 8 6 6 7 6 6 6 6 7 7 7 7 8 8 8 9 10 11 11 12 13 15 15 14 12 8 6 7 12 15 15 15 13 12 12 12 12 10
6 9 9 9 9 9 9 9 8 8 8 8 8 8 8 9 11 11 11 12 11 11 12 12 13 15 16 14 11 9 8 10 15 17 16 15 15 15 12 11 11 10
1 3 5 6 7 8 9 9 9 10 10 10 9 9 9 10 12 13 14 14 13 12 12 13 14 15 14 12 11 12 12 14 16 18 18 18 17 15 12 10 10 10

ECMWFNIL_925_spd_021.txt.gz
Wind_Speed
20 16 17 20 19 19 20 19 16 14 13 12 11 12 13 12 11 10 9 9 11 11 11 10 10 9 9 9 9 9 8 7 7 6 6 8 9 9 9 9 8 8
22 19 21 23 20 19 20 18 16 14 13 12 11 12 14 13 12 11 10 10 11 11 11 11 10 10 9 9 9 9 9 8 8 7 7 8 8 8 8 9 8 7
24 24 26 24 21 20 20 18 15 13 13 12 11 12 14 13 13 12 11 11 10 11 11 11 11 10 10 10 9 9 10 9 9 9 8 8 8 8 9 9 8 8
25 28 27 23 20 19 19 17 15 14 13 12 11 13 14 13 12 12 12 11 11 11 11 11 11 11 10 10 10 10 10 10 10 9 9 8 8 8 8 8 8 9
26 29 27 23 20 19 18 16 15 14 14 13 13 14 14 14 13 12 12 13 13 11 11 11 11 11 11 11 10 10 11 11 11 10 9 9 8 7 7 7 7 8
26 29 28 24 21 20 19 16 14 15 14 13 14 15 15 15 14 13 13 14 15 13 12 12 11 11 10 11 10 10 10 11 11 10 9 9 8 6 6 5 5 6
27 28 27 24 22 20 19 15 14 16 16 14 15 16 16 16 15 14 13 14 16 16 15 13 12 11 10 10 10 10 9 10 10 10 9 9 8 7 7 6 4 4
25 27 25 24 22 21 19 16 14 18 20 19 18 17 17 16 16 15 14 14 15 16 17 16 14 13 12 12 11 11 10 10 10 10 10 9 9 8 8 7 5 3
22 24 24 23 24 24 22 17 16 19 22 23 21 20 19 18 17 16 15 15 15 16 17 17 17 15 14 13 13 12 11 11 11 11 11 11 10 9 9 8 6 5
23 24 24 25 26 26 23 19 18 20 23 24 23 22 21 20 20 19 18 17 16 15 16 17 17 17 16 15 14 14 13 12 12 12 12 12 11 10 10 9 8 6
24 25 27 26 26 26 24 20 20 22 23 23 23 23 23 23 24 24 22 21 19 17 17 17 17 17 17 16 16 15 15 15 15 14 14 14 13 11 11 11 9 8
26 27 27 26 26 26 25 24 23 24 24 23 23 24 26 26 28 27 25 24 23 20 19 19 18 18 17 17 17 17 17 16 17 17 16 16 16 15 14 13 12 11
27 26 25 25 24 24 25 26 25 25 26 26 27 27 27 28 29 29 26 25 24 23 23 22 21 20 19 19 19 19 19 18 18 18 19 19 19 18 17 16 15 14
26 26 25 23 21 21 21 21 23 26 27 28 28 26 27 27 27 25 24 25 24 23 24 25 24 23 22 22 22 21 21 21 20 20 21 21 21 21 20 19 17 16
23 24 23 23 22 21 19 19 23 25 23 23 22 20 21 22 19 19 21 22 21 20 22 26 29 28 25 24 25 25 24 24 23 23 23 24 24 24 23 22 20 18
21 21 21 21 22 21 20 22 24 21 18 19 19 18 19 18 16 17 19 20 18 18 20 26 30 29 25 24 26 26 26 26 26 26 26 26 26 26 25 24 23 21
20 20 20 20 21 22 23 25 23 20 20 22 20 17 17 17 20 21 21 20 18 18 21 25 26 24 22 23 24 24 24 25 25 25 25 25 26 28 28 27 26 24
18 19 19 21 22 22 23 24 23 21 21 21 20 16 14 16 20 21 19 18 19 20 23 22 18 16 16 18 19 19 20 21 22 23 23 23 25 27 30 30 28 26
15 17 19 20 21 20 19 19 17 16 15 14 13 11 10 12 14 14 14 17 20 20 17 12 8 7 8 9 10 11 12 15 17 19 21 22 24 25 27 29 28 26
13 15 17 17 16 15 14 13 11 10 8 7 6 5 6 7 7 8 9 11 12 10 8 7 6 5 5 5 6 6 7 9 11 15 18 20 22 22 23 25 26 26
11 12 13 13 12 11 10 9 8 7 6 5 4 4 4 4 4 4 3 3 3 4 5 6 7 6 6 6 6 6 6 7 9 11 14 17 19 19 19 21 23 23
9 10 11 10 10 10 10 9 8 7 6 5 4 4 4 3 3 3 2 1 2 3 5 6 7 8 9 9 9 9 8 8 9 10 11 12 13 14 14 16 17 17
7 8 10 11 12 13 11 9 8 6 5 3 2 1 1 1 1 1 1 2 3 4 6 8 8 9 9 10 11 11 10 9 8 8 8 8 8 9 10 11 13 15
8 9 11 13 13 12 11 9 7 6 4 3 1 2 2 1 2 3 4 4 5 6 8 9 10 10 10 11 12 12 11 10 8 6 6 7 8 9 10 12 13 13
8 11 13 13 12 11 9 7 6 5 3 3 5 6 5 4 5 6 6 7 8 9 10 11 11 11 11 12 12 11 10 9 8 7 7 10 11 11 12 12 12 11
2 6 9 11 11 10 8 7 7 6 4 5 7 7 7 7 7 8 8 10 12 12 12 12 13 13 12 11 10 10 9 9 9 9 11 13 14 13 13 12 11 11

ECMWFNIL_925_spd_024.txt.gz
Wind_Speed
11 8 5 5 5 3 7 10 9 8 6 5 5 7 7 7 5 4 2 1 3 5 6 6 7 8 9 10 9 9 8 8 9 9 9 9 9 9 9 9 8 8
15 12 9 8 9 9 10 12 10 8 5 3 5 6 7 6 5 3 2 2 3 4 5 6 7 7 8 8 7 7 7 8 9 9 8 9 9 8 9 9 9 9
18 15 13 14 14 13 13 14 11 8 5 3 3 5 6 6 5 4 3 2 2 2 3 4 5 5 6 6 6 5 6 7 9 9 8 9 9 9 11 11 11 12
19 16 18 19 16 15 15 13 10 8 6 4 4 4 6 7 7 5 4 3 2 1 2 3 3 3 4 5 5 5 6 7 8 8 8 10 9 10 11 12 12 13
21 18 20 20 16 16 16 13 9 8 7 6 5 5 6 7 8 7 6 5 4 3 1 1 1 2 3 3 4 4 5 6 7 6 7 9 9 9 10 11 12 12
22 20 22 20 18 19 17 14 11 9 7 7 6 6 6 7 8 9 8 7 6 6 4 3 2 2 2 2 3 3 4 5 5 5 5 7 8 8 9 9 10 11
24 22 22 20 21 21 18 15 14 12 10 8 7 7 7 7 8 9 9 8 8 8 7 6 5 4 3 3 3 3 3 4 5 5 4 5 6 7 7 6 7 8
24 21 19 20 23 24 20 18 18 15 12 11 9 8 8 8 9 9 9 9 8 9 9 9 8 7 6 5 5 5 4 4 5 5 5 5 5 5 6 5 4 5
24 20 19 21 26 26 22 19 19 17 14 14 12 10 10 10 9 10 10 10 9 9 10 10 10 9 8 8 7 7 7 6 6 6 5 5 5 5 5 6 5 4
22 20 21 24 27 28 24 20 20 19 17 17 15 13 13 13 12 11 11 11 12 12 11 12 12 12 11 10 10 10 9 9 8 7 7 7 6 6 6 6 6 5
21 20 22 25 28 29 26 23 21 20 19 19 16 14 15 14 15 14 14 14 14 14 14 14 13 13 13 12 11 12 12 13 12 11 9 9 8 8 8 8 8 7
21 20 21 24 27 28 27 24 23 22 21 19 17 15 15 15 16 17 17 17 17 17 17 16 15 14 13 13 13 12 13 15 17 16 14 12 11 11 10 10 10 10
22 22 22 23 25 27 27 25 25 25 22 20 18 16 16 17 17 18 19 19 18 18 18 18 17 16 15 14 14 13 14 15 17 19 18 16 13 13 13 13 13 13
23 22 23 24 26 26 26 26 26 25 23 20 18 17 18 18 17 18 19 19 18 19 21 21 19 19 18 16 15 16 16 16 17 19 21 19 16 15 16 16 16 15
22 22 23 23 23 23 23 24 25 24 22 20 18 17 17 16 16 16 16 17 18 21 21 18 15 16 17 18 19 19 19 19 18 19 21 20 19 18 17 18 18 18
18 19 20 20 19 19 19 21 22 22 21 19 17 16 15 14 15 14 13 15 16 18 17 13 13 15 14 18 23 22 21 21 20 21 21 19 19 18 18 19 20 20
17 18 18 19 17 16 16 17 18 18 19 18 18 17 14 13 14 15 16 17 15 15 15 14 17 19 17 19 21 19 19 19 19 20 19 17 17 17 17 19 20 21
18 19 19 20 19 17 17 17 17 16 16 16 17 16 11 12 16 18 21 21 18 17 18 17 17 18 17 16 14 13 14 16 16 17 17 17 17 16 16 17 18 19
14 16 18 19 19 18 17 18 18 17 16 16 16 13 10 14 19 20 21 22 21 19 18 16 14 13 11 9 8 8 9 10 11 12 12 13 13 14 15 15 16 17
11 13 14 15 16 15 15 15 15 14 12 12 13 11 11 15 18 19 19 18 16 14 12 11 10 8 7 6 5 4 4 4 5 6 7 9 10 12 14 15 15 16
9 11 11 12 12 12 11 11 11 10 9 9 9 9 11 13 15 15 14 11 9 8 7 6 6 5 5 5 5 4 4 3 4 5 6 8 9 11 13 14 15 15
8 10 11 11 10 10 10 9 8 7 8 10 10 10 10 10 10 9 7 7 6 5 4 3 3 3 4 5 5 5 5 5 5 5 6 7 8 10 11 12 12 12
6 7 9 10 10 10 9 9 10 12 13 14 14 14 13 12 11 10 8 6 5 4 2 1 1 2 3 4 4 5 5 6 6 6 6 7 7 7 7 7 8 8
10 7 7 9 10 10 11 13 15 15 14 13 13 13 13 12 11 10 8 6 4 2 1 1 2 2 3 4 5 5 5 6 6 6 5 5 5 4 4 4 4 4
12 10 7 8 10 11 13 14 14 13 12 11 10 9 10 11 9 9 8 6 5 5 5 5 5 5 4 5 5 5 5 5 5 6 5 4 3 3 2 3 4 5
11 9 8 10 12 12 12 12 11 11 10 9 7 7 9 9 8 6 5 5 6 7 9 9 8 7 6 6 5 5 5 5 6 6 6 5 5 5 5 6 8 8

ECMWFNIL_925_spd_027.txt.gz
Wind_Speed
15 14 12 12 13 13 11 10 8 10 10 7 7 8 7 6 6 4 4 4 5 5 5 5 5 6 6 7 7 7 7 8 10 11 11 12 13 13 13 12 11 12
16 15 13 13 14 13 13 11 8 8 9 7 8 8 8 6 5 4 4 5 6 6 7 7 7 7 7 7 7 6 7 9 10 10 10 11 12 12 12 12 12 13
17 16 14 14 15 13 14 13 9 8 7 7 8 8 8 7 5 4 4 5 6 6 7 8 8 7 6 6 5 6 8 9 10 10 9 10 11 11 12 13 14 15
18 17 14 14 15 12 11 12 10 8 7 6 7 7 8 7 6 5 5 5 6 6 7 8 8 8 7 6 6 6 8 9 8 9 9 10 11 12 13 13 14 15
18 18 15 13 14 10 7 10 11 10 9 7 7 7 7 7 7 6 6 6 6 6 6 7 7 8 8 8 7 8 8 9 8 8 9 11 12 11 12 12 13 13
19 18 15 13 13 10 7 9 11 11 10 9 8 8 8 7 7 7 6 6 5 5 5 5 6 6 7 7 7 8 8 9 8 8 9 11 11 11 10 10 10 10
20 18 15 14 13 10 8 9 11 11 10 9 10 10 9 8 7 7 7 6 5 4 4 4 4 4 5 5 6 6 6 7 7 8 8 9 9 9 9 8 8 8
20 19 17 15 13 11 11 11 12 12 11 11 11 10 9 9 8 7 7 6 5 4 4 3 2 2 3 3 3 3 4 4 5 6 6 6 6 7 6 6 6 6
18 18 17 15 13 12 13 13 13 13 13 12 12 12 10 10 9 8 7 7 6 5 4 4 3 3 2 2 2 2 1 2 2 3 3 4 4 4 4 4 4 4
16 16 15 14 14 13 13 15 15 14 14 14 13 13 12 11 10 9 8 7 7 6 5 4 4 4 4 4 3 3 3 2 2 2 2 2 3 3 3 4 4 4
14 14 15 15 14 13 13 16 18 16 15 15 15 15 13 13 12 10 8 7 7 7 6 5 4 4 4 5 5 5 4 4 4 4 4 4 5 5 4 5 5 5
13 14 15 16 16 15 15 17 20 19 17 16 17 16 16 15 13 11 9 8 8 8 8 7 5 4 4 4 5 6 6 6 6 6 7 7 7 8 8 8 7 7
10 14 16 16 16 15 15 17 20 21 19 18 18 18 16 16 14 12 11 11 10 9 7 6 5 5 5 5 5 6 7 7 8 8 9 9 9 9 10 11 11 10
8 11 13 15 15 14 14 16 20 22 21 20 19 19 17 15 14 13 13 11 9 8 7 7 6 5 5 6 7 8 10 10 10 10 10 11 11 10 11 12 13 14
8 10 11 13 14 15 15 16 19 21 22 21 20 20 18 15 13 13 12 10 9 8 9 8 8 8 7 6 7 9 11 12 12 12 13 12 12 12 12 13 14 16
9 9 10 12 14 15 16 17 18 19 21 21 20 19 16 13 12 11 11 9 7 7 7 7 8 9 8 8 10 11 12 12 13 14 13 12 12 12 12 12 13 15
9 9 9 11 11 12 13 14 15 17 18 18 18 17 14 12 11 10 10 8 6 6 6 6 8 9 8 10 13 13 12 12 13 12 11 11 12 12 12 12 12 14
9 10 10 10 10 11 11 11 12 14 15 16 16 15 12 11 10 11 12 11 11 13 13 11 11 11 10 11 12 11 12 12 11 11 10 11 12 12 12 11 11 13
8 9 10 11 11 11 11 10 11 13 14 14 14 12 11 11 13 14 14 14 14 15 16 16 16 14 12 12 10 9 9 9 9 8 9 10 10 10 11 10 10 11
7 8 9 10 11 11 12 12 13 14 15 14 13 11 12 16 19 16 14 15 15 13 14 16 16 13 12 11 9 8 7 6 6 5 6 6 7 8 8 8 8 9
10 8 8 9 9 9 10 11 12 13 15 15 14 15 16 18 17 15 13 13 13 12 11 11 10 10 11 11 10 9 8 7 5 4 4 4 6 7 7 7 8 9
12 11 9 8 9 8 8 9 10 10 12 13 14 16 16 15 14 13 12 11 10 10 9 9 9 10 11 11 11 11 9 8 7 6 4 4 5 6 7 8 8 8
10 11 11 10 9 10 9 8 8 9 10 12 13 14 13 12 11 10 10 9 9 9 10 10 10 10 10 11 11 11 11 9 8 8 7 6 5 4 3 3 4 4
10 11 11 11 11 10 11 10 9 10 11 12 13 13 12 12 12 12 11 11 10 10 9 9 9 9 9 10 10 10 10 9 9 9 8 8 6 3 2 2 2 1
10 9 7 8 10 10 8 9 9 10 11 12 13 14 15 15 15 14 14 12 11 10 8 7 7 6 7 8 8 9 9 9 10 10 10 9 7 6 6 6 5 4
12 10 6 5 6 6 6 10 12 13 14 14 15 15 16 16 15 14 13 12 11 10 9 7 6 5 5 6 7 8 9 9 10 10 10 10 9 8 9 9 8 7

ECMWFNIL_925_spd_033.txt.gz
Wind_Speed
12 12 11 10 10 9 8 7 6 6 5 5 6 6 6 6 6 6 6 6 6 6 7 8 8 8 8 8 8 9 10 10 10 9 10 10 10 10 9 9 8 7
12 11 10 10 9 9 8 7 6 6 5 6 7 7 7 6 7 7 8 8 7 7 8 8 8 8 8 8 8 9 10 10 10 9 10 9 9 10 10 9 9 8
12 11 10 9 9 9 9 8 7 6 6 7 8 8 8 7 7 7 8 8 8 8 8 8 8 8 8 9 9 9 9 10 9 9 10 10 9 9 9 9 9 9
11 10 10 9 10 10 9 8 7 6 7 8 8 9 9 8 8 8 8 7 7 7 8 8 8 8 8 8 9 9 9 9 9 9 9 9 9 9 9 9 9 10
10 10 10 10 11 11 9 9 8 7 7 8 9 9 9 9 9 8 8 7 7 7 8 8 8 8 8 8 8 9 9 9 9 8 9 9 9 8 8 9 10 10
11 10 11 12 12 11 10 9 9 8 8 9 10 10 10 10 9 9 8 8 8 8 8 9 9 8 8 8 9 9 9 9 9 9 9 9 8 8 8 9 9 10
12 11 12 13 12 11 10 9 9 9 9 10 10 10 10 10 9 9 9 8 8 9 9 9 9 9 9 9 9 9 9 9 9 9 9 9 8 8 8 8 8 8
12 12 13 12 11 11 11 10 10 10 10 10 10 10 10 10 10 10 9 9 9 9 9 9 10 9 9 9 9 10 9 9 8 9 9 9 8 8 7 7 7 7
12 12 12 12 12 12 12 11 11 11 11 11 10 11 11 10 11 11 10 9 9 9 9 9 10 9 9 9 10 10 9 8 8 8 8 8 7 7 7 6 6 6
12 12 12 12 12 12 12 12 12 11 11 11 11 11 11 10 11 11 11 10 10 9 10 9 10 9 9 9 9 9 9 8 8 8 7 7 6 6 7 6 6 6
11 11 12 12 12 12 11 11 12 12 12 12 11 11 11 11 11 11 11 11 11 10 11 10 10 10 10 10 9 9 8 8 8 8 7 7 7 7 7 7 7 6
10 10 12 13 13 12 11 11 11 12 12 12 12 12 12 11 12 12 12 12 12 11 11 11 11 11 11 11 11 10 10 9 9 8 8 8 7 7 8 7 8 8
10 10 11 13 13 11 11 10 10 11 12 12 12 13 13 13 12 12 12 12 12 12 12 12 12 12 12 12 12 11 11 11 10 10 9 9 8 9 9 9 9 9
8 9 9 11 11 10 10 10 10 11 12 12 12 13 13 13 13 13 12 12 12 12 13 13 13 13 12 12 13 12 12 12 11 11 10 10 10 10 10 10 10 10
6 6 7 9 10 10 10 11 10 11 11 12 12 13 13 13 13 13 13 12 12 12 13 13 14 13 13 14 13 13 13 12 12 12 11 11 11 11 12 12 12 12
5 5 6 8 10 10 10 10 10 10 10 12 13 13 13 13 13 13 14 14 13 13 14 14 14 13 15 16 16 14 13 13 12 12 12 12 12 12 13 14 14 14
6 4 4 5 6 7 8 8 9 9 9 10 11 12 12 12 13 13 14 14 14 15 15 15 14 14 16 19 19 16 15 13 12 12 12 12 13 13 14 15 15 14
5 4 4 4 4 5 5 6 7 7 8 8 9 10 10 11 12 13 13 14 14 15 15 15 15 15 18 21 21 20 18 15 13 13 14 14 15 15 16 16 16 16
3 3 3 3 3 4 5 5 6 7 8 8 9 10 10 11 12 13 13 13 14 15 15 14 14 15 17 20 21 21 21 19 15 13 15 16 16 16 17 16 14 15
4 3 2 2 3 3 4 5 6 7 7 8 9 10 12 12 11 12 13 14 14 15 15 14 13 15 17 19 19 18 19 20 18 14 13 15 15 15 15 13 9 8
5 5 3 2 1 2 3 5 6 7 8 8 9 10 12 11 12 13 14 15 16 16 16 16 15 16 18 19 20 19 19 20 19 14 12 13 16 16 14 13 9 7
5 4 3 3 2 1 3 5 6 7 8 9 10 11 12 12 14 15 15 16 17 18 19 19 18 18 19 21 22 22 21 20 17 14 12 12 13 14 12 11 9 7
6 6 4 4 4 3 4 4 5 6 8 9 11 12 12 13 15 15 15 16 17 18 19 19 18 19 20 21 22 22 21 19 16 14 14 12 11 11 10 9 8 7
8 7 7 6 5 5 4 4 5 6 7 9 10 12 13 14 14 15 15 15 15 16 16 16 16 17 19 20 21 22 22 19 16 15 16 14 12 11 8 7 9 9
8 8 8 8 7 7 6 6 7 8 8 9 10 11 13 13 13 13 13 12 12 13 14 15 15 16 17 18 19 20 21 20 17 15 15 14 12 11 8 6 8 10
9 8 8 8 9 9 9 9 9 9 10 10 10 12 13 13 13 12 12 11 11 12 14 15 14 15 16 16 17 19 21 21 16 13 13 13 12 11 9 8 7 9

ECMWFNIL_925_spd_036.txt.gz
Wind_Speed
15 14 13 11 10 9 8 7 7 6 6 7 9 9 9 9 8 8 8 9 10 11 10 10 9 8 9 10 13 12 12 13 13 13 13 14 14 13 12 12 12 13
15 14 14 12 11 9 8 7 6 5 5 7 10 10 10 9 9 10 11 11 12 12 11 11 10 10 10 11 13 12 12 12 13 13 13 13 14 14 13 13 13 13
16 15 15 13 12 11 9 8 7 5 6 9 11 11 11 11 10 11 12 12 13 12 11 11 11 11 11 11 12 12 11 12 13 14 14 14 14 14 13 12 13 13
18 16 15 14 13 13 11 9 8 7 7 9 11 11 11 12 11 11 12 12 12 12 11 11 11 11 11 11 11 12 12 13 13 14 15 14 13 13 13 13 15 16
18 17 15 15 15 13 12 10 9 8 8 9 11 11 11 12 11 11 11 11 12 12 11 10 11 11 10 11 11 12 12 13 13 14 15 15 14 14 14 15 16 16
18 17 15 15 15 14 12 11 10 9 10 10 11 11 11 11 11 10 10 11 11 11 11 11 10 10 10 10 10 11 11 12 12 13 14 14 14 14 14 15 15 14
18 17 16 17 16 14 12 10 10 10 10 10 11 11 11 11 10 10 10 10 10 11 11 11 11 10 10 10 10 10 11 11 12 12 13 14 14 13 13 13 13 13
19 18 18 18 16 14 12 11 10 10 10 11 11 11 11 10 10 10 9 9 10 11 11 11 11 11 10 10 10 10 9 9 11 12 12 13 13 13 13 12 12 12
19 18 18 18 16 14 12 11 11 11 11 10 10 10 10 9 10 10 9 10 10 10 11 11 11 10 10 11 11 9 8 8 10 11 10 10 10 11 11 10 10 10
18 18 18 17 16 15 13 12 12 12 11 11 10 10 10 9 10 10 9 10 10 10 11 10 11 10 10 11 10 9 8 8 8 9 8 8 8 9 9 8 8 8
18 17 18 17 15 14 14 14 14 13 12 11 10 10 10 9 10 10 10 10 10 10 11 10 10 10 10 10 10 9 8 8 7 7 7 6 6 7 7 7 7 6
14 14 14 14 14 14 14 14 14 12 12 12 11 10 10 9 10 10 10 10 10 10 11 10 10 10 9 10 9 9 8 8 8 7 7 6 6 6 6 6 6 6
12 12 13 13 14 13 11 12 13 11 10 10 9 10 10 9 10 10 10 10 10 10 10 11 10 10 10 10 10 10 9 9 9 8 8 8 7 7 7 6 6 6
12 12 13 13 13 11 10 11 11 10 10 9 8 9 10 10 9 10 10 10 9 10 10 11 11 11 11 10 10 10 10 10 10 10 9 9 8 8 9 8 7 6
9 10 11 11 11 10 10 11 10 11 13 13 10 8 9 11 10 9 11 11 10 10 11 11 12 12 11 12 11 11 11 11 10 10 10 10 10 10 9 9 8 6
7 8 8 9 10 9 9 10 10 11 14 15 12 8 7 10 11 10 11 12 11 10 11 11 12 12 12 12 13 12 13 13 12 11 11 11 11 11 11 10 8 7
6 6 6 7 8 8 9 9 9 9 10 11 11 10 8 10 13 13 13 15 14 12 11 12 11 11 12 14 15 15 14 15 14 13 13 12 12 12 13 10 5 5
4 5 4 4 6 7 8 8 7 7 7 8 10 11 11 12 14 14 12 14 16 15 14 14 13 13 14 13 15 16 16 15 15 14 13 13 13 12 7 3 5 9
4 4 4 3 3 4 5 5 6 7 7 8 9 12 13 13 15 15 13 12 14 15 15 15 15 18 18 14 14 17 17 16 16 15 15 15 14 11 6 4 7 12
6 6 4 3 2 3 5 5 6 6 7 9 10 14 16 16 16 17 16 16 15 15 15 14 14 18 21 22 21 20 20 20 19 17 15 14 14 15 12 9 10 12
11 9 7 5 2 1 2 4 6 9 11 12 13 15 16 17 19 19 19 19 19 18 16 14 14 16 20 24 26 24 23 23 24 22 18 13 13 15 14 13 14 14
14 12 10 9 8 5 4 3 4 7 9 10 10 11 12 14 17 18 18 19 19 20 19 17 16 17 19 22 25 25 24 23 25 25 21 15 13 13 13 15 17 17
15 15 13 12 11 10 9 7 5 4 5 8 10 11 11 13 15 16 16 17 17 18 19 18 18 18 19 21 22 23 23 23 24 23 20 17 15 13 11 11 13 14
14 14 13 13 12 13 13 12 10 9 8 8 9 11 13 14 15 15 16 17 17 18 19 20 18 16 18 21 23 23 23 24 23 21 19 16 13 11 11 12 13 13
14 14 12 11 11 12 13 13 12 12 13 12 11 10 12 14 15 16 17 17 17 17 17 17 15 13 15 20 24 25 25 25 22 19 17 15 13 12 13 13 14 15
14 14 12 11 11 12 13 13 14 14 15 16 15 14 13 13 14 16 17 16 15 14 14 15 15 15 17 20 22 23 24 24 23 20 17 15 14 14 14 12 12 14

ECMWFNIL_925_spd_039.txt.gz
Wind_Speed
22 21 19 17 16 16 14 13 13 12 14 15 16 15 15 12 10 9 8 9 9 8 10 8 9 11 12 12 13 12 13 14 14 14 14 13 12 12 12 12 11 11
22 21 19 18 17 15 14 13 11 11 15 18 18 17 16 13 10 9 8 9 8 9 11 10 10 13 15 15 15 13 13 14 14 14 14 14 13 15 15 15 13 13
21 21 20 19 19 16 15 15 12 13 17 18 18 16 13 11 10 10 10 11 11 11 11 10 10 13 15 15 14 12 12 13 14 14 15 14 14 14 16 17 18 17
19 20 19 19 20 18 16 16 14 15 18 17 15 13 12 12 13 14 14 14 13 12 11 11 11 12 14 14 14 13 13 13 14 15 15 14 13 14 15 15 17 19
18 19 18 18 19 19 17 16 15 16 17 16 13 12 14 16 16 16 16 15 14 12 12 12 11 12 13 13 13 14 15 15 14 15 15 16 16 15 15 15 16 17
18 18 18 19 19 18 17 16 15 16 16 15 14 15 16 17 16 16 16 15 14 13 13 14 13 12 12 13 15 15 15 15 15 14 16 18 17 16 15 16 17 16
18 18 17 19 19 16 16 16 14 15 16 15 16 17 17 17 16 16 15 15 15 13 14 15 13 13 13 14 16 16 15 16 16 17 18 19 18 17 16 16 16 16
13 18 19 18 17 16 15 16 15 16 16 16 17 17 17 17 16 16 15 15 15 14 15 14 13 14 14 14 16 16 16 17 17 19 20 20 18 17 16 16 17 17
7 16 21 18 16 17 16 16 16 16 15 16 17 17 17 18 16 15 15 15 15 15 14 14 15 14 13 15 15 14 16 17 18 18 19 19 19 18 17 17 18 17
3 11 18 18 18 17 16 16 16 16 15 16 17 16 16 18 16 14 15 16 16 15 15 15 15 13 15 16 14 12 16 19 18 17 18 19 19 18 17 16 17 16
7 13 14 15 16 15 15 15 15 16 15 15 16 16 15 17 16 14 15 16 16 16 16 16 14 14 17 17 13 12 17 19 18 16 17 18 17 15 15 15 15 15
12 17 16 14 14 13 14 15 15 16 16 15 15 15 14 15 16 15 15 16 16 16 17 16 15 15 17 17 15 14 15 17 18 17 15 15 16 14 13 12 11 11
15 17 18 16 14 12 12 14 14 14 15 15 14 14 14 14 15 15 15 15 15 17 17 15 15 16 16 16 16 15 15 17 17 16 14 14 15 14 12 11 10 9
15 14 14 16 12 8 9 14 15 14 14 15 14 14 14 13 14 14 15 15 14 15 17 16 15 16 16 16 16 16 16 16 16 15 14 13 13 12 11 11 10 9
13 11 12 14 11 6 6 11 14 14 15 14 13 15 15 13 13 13 13 14 14 14 16 18 17 16 16 16 15 15 15 14 14 14 13 12 12 12 13 13 13 12
12 10 9 8 8 7 7 10 11 12 15 14 11 13 15 15 13 12 13 14 13 12 14 17 19 17 16 17 15 14 15 14 13 13 13 12 13 14 14 15 16 14
9 7 6 6 8 9 10 11 11 11 15 15 11 9 12 13 12 11 12 14 14 12 10 13 18 18 17 17 16 15 15 15 15 14 13 14 15 16 16 16 17 16
11 10 6 6 6 7 11 12 11 11 12 13 13 10 9 10 10 9 10 12 15 15 12 11 14 16 17 17 17 18 17 16 16 16 16 16 16 17 17 17 16 16
12 11 9 11 10 9 11 10 9 9 9 9 10 10 9 9 9 10 9 9 12 16 16 14 12 13 15 15 16 17 16 15 16 17 17 18 18 17 18 18 17 16
18 15 11 8 6 6 7 5 3 4 5 7 8 8 9 11 11 12 12 10 10 13 15 16 15 14 16 16 16 17 16 15 15 16 17 18 18 19 18 18 18 18
25 24 23 18 14 11 7 4 2 4 4 5 6 8 10 11 12 14 15 14 13 13 12 13 15 16 16 17 18 19 19 17 16 15 16 17 17 17 17 17 18 18
23 22 22 22 22 20 17 15 10 3 3 5 7 9 9 10 11 12 13 14 15 17 16 15 15 16 17 18 19 20 21 21 21 20 18 17 17 16 15 15 16 18
20 20 21 21 21 20 18 17 17 12 7 8 10 10 10 10 10 10 10 13 15 18 19 18 18 18 20 22 23 23 22 22 23 23 21 19 17 15 14 14 14 16
17 18 18 18 18 18 16 15 16 15 13 12 11 11 12 13 12 12 12 13 16 18 19 19 19 20 22 24 24 25 24 23 22 22 21 20 18 15 14 15 15 18
16 16 16 17 16 16 15 15 15 15 15 14 14 13 14 14 13 14 16 17 19 20 21 20 21 22 23 23 24 24 24 24 23 22 20 20 18 15 15 16 18 19
15 16 16 17 17 17 16 16 15 16 17 18 18 18 18 18 16 15 17 20 22 23 23 23 23 24 23 23 23 24 23 23 23 23 22 19 17 16 17 17 17 18

ECMWFNIL_925_spd_042.txt.gz
Wind_Speed
27 26 24 23 23 22 21 19 18 17 15 15 14 13 11 9 8 9 10 11 10 8 9 12 13 12 11 11 10 11 12 12 12 12 11 10 9 9 10 11 14 15
26 25 22 23 24 22 19 18 17 17 17 16 15 14 12 10 8 8 9 10 10 8 9 12 14 13 13 12 12 13 14 14 13 11 10 10 9 9 9 10 11 13
25 24 21 22 23 21 18 17 16 17 17 16 15 14 13 12 10 9 8 8 9 10 10 11 14 15 14 13 14 14 14 15 14 11 11 11 10 10 10 11 11 11
23 22 20 20 20 19 17 16 15 17 17 17 16 14 13 12 10 9 9 9 11 13 12 13 15 16 15 13 14 14 13 14 14 13 14 15 14 13 13 13 13 12
22 21 19 19 18 18 17 15 15 17 18 17 16 14 11 11 10 11 12 13 14 14 13 14 15 16 15 13 13 13 13 13 13 14 16 17 17 17 18 17 16 15
21 20 19 19 18 18 16 15 16 18 18 17 14 12 11 12 12 13 14 14 14 13 14 14 14 14 14 14 14 13 13 13 13 14 16 17 17 17 18 18 18 19
16 18 20 19 17 16 15 15 16 17 16 14 12 11 13 14 14 13 13 13 13 14 14 13 14 14 13 14 15 15 14 14 14 16 17 16 15 15 16 16 17 20
15 15 19 19 16 15 14 14 15 15 14 12 11 13 14 14 13 13 13 12 12 13 13 12 12 12 13 15 16 16 16 16 16 17 17 15 15 16 17 17 17 18
15 13 16 17 16 14 13 14 14 13 12 10 11 13 13 12 12 12 13 12 11 13 13 12 11 12 14 16 16 16 16 17 17 18 18 17 17 17 18 18 18 18
14 12 10 12 15 14 12 13 13 13 12 11 11 12 12 12 11 11 12 11 12 13 13 12 12 13 14 15 15 15 16 18 19 19 18 18 17 16 17 17 18 17
15 14 10 9 13 12 9 11 13 12 12 11 11 12 14 14 12 12 12 12 12 12 13 13 13 12 13 14 14 14 15 17 19 18 17 16 15 15 16 15 15 14
17 18 15 10 10 9 8 11 12 11 12 12 12 13 14 15 14 13 13 13 12 12 12 14 13 12 13 13 13 14 16 16 16 16 16 15 15 14 14 14 13 12
20 18 16 14 13 11 9 11 12 12 12 13 13 13 13 14 16 15 14 14 13 12 13 14 13 13 14 13 12 15 18 17 15 16 17 16 15 14 14 13 12 12
20 18 17 18 19 13 8 11 15 13 13 13 13 13 12 13 16 15 14 16 16 14 15 15 14 14 15 15 14 16 18 18 17 17 17 17 16 15 14 13 12 12
16 18 18 19 20 12 4 8 13 14 14 13 13 14 12 12 16 15 14 16 18 17 17 17 15 15 16 17 16 16 17 18 18 16 15 17 18 17 15 15 14 14
11 15 17 15 13 8 5 7 9 9 12 12 10 12 12 12 15 16 15 15 17 19 20 20 18 17 17 18 17 17 16 17 19 16 14 17 19 19 18 17 16 16
6 8 10 8 6 4 6 9 8 6 8 9 7 7 9 11 12 14 14 14 15 17 19 20 21 21 19 19 19 19 18 18 19 18 16 17 18 19 20 19 19 18
6 5 6 6 4 3 5 8 9 8 6 7 6 2 2 6 9 10 10 12 14 15 14 15 19 22 23 21 21 21 20 20 20 20 20 20 20 21 21 21 21 21
11 9 7 5 3 2 3 4 7 8 7 6 6 4 4 4 5 7 8 8 10 11 12 12 13 18 23 24 23 23 22 22 22 23 23 24 24 24 24 24 23 22
21 18 15 12 11 9 7 5 1 2 3 3 4 5 6 9 9 9 9 8 9 9 10 11 11 14 18 22 23 23 23 23 23 24 25 26 26 26 26 25 25 24
25 24 23 21 20 20 18 15 11 7 6 6 6 6 8 11 12 11 10 10 11 11 10 10 11 12 14 17 20 21 21 22 22 24 26 27 28 28 28 27 26 26
24 23 23 22 22 21 21 21 18 15 13 11 8 7 8 9 10 9 9 10 11 12 13 13 12 12 12 14 16 17 19 20 21 22 24 26 27 28 29 28 27 27
22 22 21 21 20 20 20 19 17 15 15 13 11 10 10 10 11 11 10 10 11 11 13 15 16 16 15 15 16 16 18 19 20 21 23 24 25 26 26 26 27 29
20 20 20 20 20 20 19 18 16 14 14 13 13 13 13 13 14 13 12 12 12 12 12 14 16 17 17 18 19 19 19 20 21 22 23 24 24 24 24 25 27 29
18 18 18 18 19 19 18 18 16 15 14 14 14 15 15 15 16 16 16 15 14 15 15 16 17 17 18 18 19 20 21 21 22 22 22 23 24 25 26 27 27 27
18 18 17 17 17 17 17 17 17 16 16 16 16 16 17 17 17 18 18 18 17 17 17 17 18 19 20 21 21 21 22 22 23 24 24 25 26 25 25 27 27 27

ECMWFNIL_925_spd_045.txt.gz
Wind_Speed
25 23 21 20 20 19 17 17 15 14 13 11 10 10 11 11 10 10 10 10 10 10 10 9 7 6 6 6 7 8 9 9 10 11 10 10 9 12 16 18 18 16
24 22 21 20 20 19 17 16 16 15 13 11 10 10 10 10 10 11 10 10 9 8 10 11 8 5 6 6 7 8 9 10 11 10 10 9 9 11 14 18 18 16
23 22 21 21 21 19 18 17 16 15 13 11 11 10 10 10 10 10 10 10 8 7 8 11 9 6 6 6 7 8 9 10 11 10 9 10 10 10 12 16 17 16
24 23 22 21 20 19 18 18 17 15 13 13 12 11 10 10 10 10 10 9 8 7 8 12 12 8 6 7 7 7 8 9 9 10 10 10 10 10 12 13 15 15
24 23 21 20 20 20 19 18 17 15 15 14 13 12 11 10 10 10 9 8 8 8 9 13 14 10 7 8 8 8 8 8 8 8 10 10 11 11 12 13 14 15
24 22 20 19 19 19 19 17 16 15 15 15 14 12 11 10 9 9 9 9 9 10 10 12 15 13 9 8 9 9 8 7 9 10 11 11 13 13 12 12 15 16
23 21 20 20 19 18 17 15 14 14 16 15 13 12 11 10 9 9 9 9 10 9 9 11 13 13 11 9 9 9 9 7 9 13 14 14 15 15 13 12 15 17
24 21 19 19 17 17 16 14 13 14 15 14 12 11 10 10 11 11 10 9 9 8 8 9 10 10 11 10 9 10 10 8 10 13 15 15 16 15 13 13 16 19
22 19 19 19 18 17 16 14 14 14 14 12 10 10 11 11 10 10 10 9 8 9 9 8 8 9 9 10 10 10 10 9 11 13 14 14 14 14 14 14 16 19
19 17 18 19 19 18 17 15 15 15 13 10 9 11 11 10 9 8 9 9 9 9 10 8 8 8 9 10 11 10 10 11 11 12 12 11 12 13 14 15 17 19
19 17 17 18 19 18 18 18 16 13 10 9 9 11 11 9 8 8 8 9 9 9 10 9 8 8 9 11 11 10 11 11 11 11 10 10 11 12 14 15 17 18
21 20 18 16 15 16 16 15 13 11 9 8 9 10 10 9 8 8 8 8 9 9 10 9 8 8 8 10 10 9 10 11 12 11 10 10 9 10 12 13 14 15
23 22 19 16 13 13 13 10 10 12 10 8 8 9 10 10 9 9 9 8 8 9 10 10 9 9 9 8 9 8 8 11 13 13 11 10 9 9 10 11 12 12
18 18 17 16 13 12 12 9 9 12 11 10 10 10 10 11 10 10 10 10 10 9 10 11 11 10 9 9 9 9 9 11 13 13 12 11 11 11 11 11 11 11
14 15 15 15 14 14 14 12 10 11 11 11 12 12 11 11 11 11 12 12 11 11 11 11 12 11 10 10 10 10 11 13 13 13 13 13 14 13 13 13 12 11
14 15 14 13 12 13 14 11 9 8 7 7 8 9 9 9 9 11 13 13 12 12 13 13 13 12 12 11 11 11 12 14 14 14 14 15 16 16 16 16 15 13
11 12 11 9 9 11 12 11 11 10 8 8 7 5 5 5 5 8 11 13 13 13 14 15 14 14 12 13 14 14 13 14 16 16 16 16 16 17 18 17 16 15
12 11 9 8 7 8 8 8 9 8 7 7 7 6 4 3 2 2 4 8 10 11 14 16 16 16 14 14 16 17 17 17 16 17 18 17 16 17 18 18 17 17
21 19 17 16 14 12 10 9 9 7 5 4 2 3 3 2 1 1 1 3 5 7 10 13 16 17 18 18 18 18 19 19 19 19 19 20 19 18 19 19 19 19
28 26 25 23 21 19 17 16 15 12 8 4 2 2 2 2 3 2 2 3 4 4 6 8 11 14 16 19 21 22 22 22 22 22 21 22 22 22 22 22 22 22
27 27 26 25 24 23 22 21 19 17 14 10 8 7 6 5 5 4 4 4 4 5 5 6 6 8 11 14 18 22 25 26 26 25 25 25 24 25 25 25 25 26
25 25 25 24 23 22 22 21 20 18 16 13 11 10 9 8 7 7 7 6 5 5 6 6 6 6 8 9 11 15 20 24 26 28 28 29 29 29 28 28 28 28
24 24 24 23 22 22 22 20 19 17 16 14 12 11 11 10 10 9 9 7 6 6 6 6 6 6 7 8 9 11 14 17 20 23 26 28 29 30 31 31 32 31
23 23 22 22 21 21 20 19 17 17 16 15 14 13 13 12 11 10 9 9 8 7 7 8 8 7 7 9 9 11 13 16 18 20 22 24 25 26 28 29 29 29
22 22 21 20 20 19 17 16 16 15 14 14 13 13 13 13 13 12 11 11 11 10 10 10 10 9 9 9 10 11 13 16 19 21 22 23 24 26 27 25 22 23
22 21 20 19 18 17 15 15 14 14 14 14 14 14 14 14 14 14 13 13 12 12 12 12 12 13 12 12 12 12 12 14 17 21 23 24 24 25 26 23 20 20

ECMWFNIL_925_spd_048.txt.gz
Wind_Speed
16 17 18 18 17 17 16 16 16 14 14 13 12 11 10 10 9 7 5 4 5 6 8 6 5 5 5 5 6 7 8 8 10 11 11 12 12 12 12 12 13 14
16 18 18 17 16 15 14 15 15 13 12 11 9 8 9 9 8 8 7 6 6 6 6 6 4 3 3 3 4 5 6 7 8 9 10 10 11 11 11 11 12 12
17 19 19 17 16 16 15 15 14 12 10 9 8 8 9 9 8 8 8 7 6 6 5 5 4 2 1 2 2 3 4 6 6 6 7 7 8 8 9 10 12 12
18 19 18 16 16 16 17 16 15 12 10 9 9 8 9 9 8 8 8 8 7 5 4 5 6 3 1 2 1 1 3 4 5 4 5 5 6 6 6 9 12 12
20 20 18 17 17 17 17 17 15 13 12 10 9 9 8 8 8 8 8 8 7 6 4 6 7 4 1 2 1 2 2 3 4 4 5 6 6 6 6 9 12 13
20 20 18 18 17 17 16 15 14 13 13 12 10 9 8 8 8 8 8 8 7 6 6 6 8 7 3 1 1 2 2 2 2 3 4 6 7 7 7 9 12 13
19 18 17 16 16 15 15 14 12 12 12 12 11 9 8 8 8 8 8 8 7 6 6 6 8 9 5 3 3 2 2 1 1 2 4 5 6 6 6 8 10 13
18 17 16 16 15 15 14 13 12 11 11 11 11 10 9 8 7 7 7 6 6 5 5 5 7 9 7 5 4 3 3 2 2 3 5 6 6 5 5 6 8 12
19 19 17 16 16 15 14 12 11 11 10 10 10 9 8 7 7 8 7 7 6 5 5 5 6 8 7 6 5 4 4 4 5 6 7 7 7 5 4 5 7 10
20 19 18 17 17 15 14 12 11 11 10 9 8 7 7 7 8 8 8 7 6 5 5 4 4 5 6 6 6 5 5 5 7 8 9 8 7 6 4 4 7 10
20 19 17 17 17 15 14 13 13 12 11 8 5 6 7 7 7 7 6 7 6 6 5 5 4 5 5 6 7 7 6 6 7 10 10 8 6 6 5 5 7 10
17 17 16 16 15 14 13 14 14 13 10 7 5 6 7 6 5 5 5 6 7 6 6 5 5 5 4 5 7 8 7 7 7 9 9 9 7 7 8 7 8 10
15 15 16 17 17 17 15 13 12 11 9 7 6 6 5 4 4 5 5 5 6 6 6 6 6 5 4 4 6 7 7 7 8 9 8 8 8 9 9 9 9 10
16 16 16 17 18 19 17 13 10 9 7 6 5 5 5 5 6 6 6 6 6 5 5 6 6 6 5 5 5 6 5 5 8 9 8 8 8 8 8 9 9 9
15 15 14 15 16 18 17 12 9 7 5 5 4 5 7 8 9 9 8 9 8 6 6 6 6 7 6 5 5 5 5 5 6 9 10 9 8 8 8 9 8 7
13 13 12 12 13 15 15 12 9 6 7 8 6 7 9 10 11 11 11 11 10 8 7 7 7 7 7 7 6 6 6 6 6 9 10 10 9 9 10 10 10 9
18 16 16 15 14 15 14 12 11 10 9 8 7 5 6 6 7 7 7 8 8 8 8 8 8 9 8 8 8 8 8 8 7 9 10 10 10 11 12 12 12 12
20 19 19 18 17 17 16 16 16 15 13 11 9 7 5 4 3 2 2 3 4 5 6 7 9 10 11 11 10 10 10 10 10 10 11 11 11 12 13 14 14 14
21 20 20 19 18 17 16 16 15 14 12 11 9 7 6 6 5 4 3 2 1 1 2 3 5 7 9 11 12 12 13 13 13 13 13 14 14 15 15 16 16 16
25 24 23 21 20 18 17 16 15 14 13 11 9 7 7 7 7 7 6 5 4 3 3 3 3 4 5 7 9 11 14 16 17 17 17 17 17 17 18 18 18 18
27 27 25 23 22 20 19 19 17 16 15 13 12 11 10 10 10 9 9 8 7 6 5 4 3 3 3 5 6 7 10 13 16 19 20 20 20 20 20 20 21 21
25 25 24 23 21 20 20 20 18 16 15 13 12 13 13 12 11 11 11 11 9 8 7 7 5 4 3 4 6 7 7 8 10 13 17 20 22 23 24 24 24 24
23 22 22 21 20 20 20 19 17 16 15 12 10 11 11 12 12 11 11 11 10 10 9 10 9 8 7 6 6 7 8 8 9 10 11 14 18 21 24 25 26 26
21 21 20 20 20 19 19 18 16 16 15 13 12 11 10 10 10 10 10 10 11 11 10 10 10 10 10 9 8 8 8 9 10 11 12 13 15 16 19 21 22 22
20 20 20 19 19 18 17 16 15 15 14 12 12 12 11 10 10 9 9 10 10 10 10 10 10 10 10 10 10 10 9 9 10 12 13 15 17 17 18 19 19 18
19 19 19 19 18 17 16 15 14 13 13 12 12 12 11 11 11 11 11 10 10 10 10 10 11 11 11 11 11 11 11 10 10 11 12 14 16 18 19 20 17 14

ECMWFNIL_925_spd_051.txt.gz
Wind_Speed
24 21 19 20 20 20 23 22 19 18 18 16 15 14 12 11 9 7 5 4 4 7 9 7 5 3 3 3 3 3 4 5 5 6 6 6 6 5 6 6 5 7
23 20 19 20 20 21 22 20 18 18 16 15 14 13 13 11 9 8 6 4 4 7 9 6 5 4 3 2 2 3 3 4 5 5 6 6 5 5 5 5 5 6
21 19 19 19 20 21 21 19 18 17 15 14 13 12 12 12 10 9 8 5 5 6 6 5 4 4 3 3 2 2 2 3 3 4 4 4 4 4 5 5 5 6
19 18 20 19 20 20 20 19 18 17 15 14 13 12 12 11 10 9 8 7 6 6 5 4 4 4 4 3 3 2 2 2 2 3 3 3 3 3 4 4 5 6
18 18 19 20 20 19 19 19 18 17 16 14 13 12 11 11 10 9 8 7 7 6 4 4 4 4 4 5 5 4 3 3 2 3 3 3 3 3 3 4 6 7
16 18 19 20 19 19 19 18 17 16 14 13 12 12 11 11 10 9 8 7 6 5 4 3 5 4 4 5 5 5 4 3 2 2 3 3 3 3 3 4 7 8
16 17 18 19 18 18 17 16 16 15 13 12 12 12 11 11 9 8 7 6 5 5 4 4 5 5 3 4 4 4 3 2 2 2 3 2 3 4 4 4 7 9
16 17 17 18 17 18 17 15 15 13 12 11 12 11 11 10 8 7 6 5 5 5 5 5 6 6 4 2 2 2 2 2 2 2 1 1 2 3 4 6 7 9
16 16 17 17 17 18 17 15 14 13 11 11 11 10 10 8 7 6 6 6 7 7 6 6 6 6 4 2 1 2 3 2 2 1 1 1 1 1 3 6 8 9
16 16 17 17 17 17 17 15 14 12 12 11 11 9 8 8 7 7 7 7 7 7 6 5 5 4 3 2 1 1 2 2 1 1 1 1 1 0 1 3 7 10
17 18 18 18 17 16 15 14 13 12 13 12 10 9 8 9 9 8 7 6 5 6 5 5 4 3 2 2 2 2 1 0 2 3 3 2 2 1 3 2 4 8
17 17 18 18 17 15 14 14 14 14 13 12 10 10 10 9 8 7 5 5 4 5 5 4 3 2 2 2 3 3 2 2 2 3 4 4 2 1 3 3 1 4
16 17 18 18 17 16 16 17 17 16 14 13 12 11 10 8 7 6 5 4 4 3 3 3 3 2 2 3 3 3 3 2 3 3 3 4 3 3 4 4 2 1
17 19 20 21 20 20 20 20 18 16 14 13 11 9 8 6 5 5 4 4 3 3 3 3 3 2 2 2 2 3 3 3 4 5 4 3 4 4 5 5 4 2
20 22 22 22 22 22 22 22 20 18 14 11 8 7 6 4 3 2 0 2 2 2 3 3 3 3 2 1 1 2 3 3 4 6 6 5 5 5 5 5 4 4
21 21 21 21 21 21 20 19 18 13 9 6 6 6 5 6 4 2 4 4 4 3 3 3 3 4 4 3 2 2 3 3 3 6 8 8 7 6 5 6 5 5
17 17 17 17 17 17 15 14 12 10 7 6 8 9 8 7 5 2 3 3 2 2 2 2 3 5 5 5 4 3 4 4 3 4 7 8 8 7 6 6 7 6
16 16 16 15 15 15 14 13 12 12 11 10 10 11 10 9 7 5 4 4 5 6 5 4 1 2 5 6 7 6 5 5 5 4 5 7 7 7 6 6 7 7
19 19 19 19 18 18 17 17 17 16 15 14 13 13 12 12 11 10 9 9 10 10 9 7 5 3 1 2 5 6 7 7 7 6 6 6 7 7 7 7 7 8
23 23 23 23 22 21 20 20 19 19 18 17 16 15 15 14 14 13 12 12 11 11 10 9 8 6 4 2 0 2 4 6 8 9 9 9 9 9 9 10 10 11
25 25 25 24 24 23 22 22 21 20 20 18 18 17 17 16 16 15 15 14 13 11 10 10 10 8 5 3 2 1 1 3 5 8 10 11 12 13 13 13 13 13
26 25 24 23 23 22 22 22 21 20 19 18 18 18 18 17 16 15 15 14 13 12 11 10 10 8 6 5 3 2 2 2 2 4 6 8 10 12 13 14 15 15
25 24 23 22 22 21 21 20 19 18 17 15 15 15 16 15 14 14 14 13 12 11 11 10 9 8 7 6 4 4 3 4 4 4 5 6 7 9 10 12 13 13
23 23 22 22 21 20 19 18 17 17 15 13 12 12 11 10 8 9 11 10 10 11 10 9 9 8 7 6 6 6 5 5 5 6 6 7 8 9 8 9 11 11
22 21 21 20 20 19 18 17 16 16 14 13 13 13 11 8 5 6 8 8 8 8 7 7 7 7 7 7 7 7 6 7 7 7 7 8 9 10 10 10 12 12
20 20 19 19 17 16 16 15 14 13 12 12 12 12 11 10 8 7 7 7 7 7 6 6 6 6 7 7 7 7 7 7 7 7 8 9 10 11 12 13 13 13

ECMWFNIL_925_spd_054.txt.gz
Wind_Speed
22 22 19 17 14 13 14 14 13 13 12 11 11 10 10 10 10 9 8 7 8 9 8 8 7 6 7 8 8 8 7 7 8 7 7 7 7 8 8 8 8 8
22 20 19 18 15 13 14 13 13 13 11 11 11 10 10 10 10 9 7 7 8 9 9 7 6 5 5 7 8 8 8 8 8 8 8 8 8 8 8 9 9 8
23 23 22 21 17 16 16 14 13 13 12 11 10 10 10 10 10 8 7 7 8 9 9 7 6 5 4 5 7 7 7 8 8 8 9 8 8 8 8 8 8 8
25 25 24 21 20 19 18 15 14 13 13 12 11 10 10 9 9 8 7 7 7 8 8 7 6 5 4 4 5 7 7 7 7 8 9 8 8 8 8 8 8 9
27 25 23 20 20 21 19 17 15 14 13 13 12 11 10 10 9 9 8 7 7 7 7 7 7 5 4 4 5 6 6 6 6 7 8 8 8 8 8 8 9 10
27 24 21 20 19 21 20 18 16 15 14 14 13 12 11 10 9 9 9 8 8 7 6 7 7 5 5 4 5 5 5 5 5 6 6 6 7 7 7 8 10 11
27 23 21 20 20 21 20 18 16 15 15 14 13 12 11 10 9 9 9 9 8 7 6 7 7 6 5 5 5 5 5 5 5 5 5 5 6 6 7 8 10 11
25 22 21 21 21 21 19 18 17 15 15 14 13 12 11 10 9 9 8 8 8 7 7 7 8 7 6 6 6 6 6 5 5 5 5 5 5 5 6 8 10 10
23 22 21 22 22 21 19 18 17 15 14 13 13 12 10 9 8 8 8 8 8 8 8 8 8 8 6 6 6 5 6 6 6 5 5 5 5 5 5 8 10 11
23 23 22 23 22 20 18 17 17 15 14 13 13 11 10 8 8 8 8 8 8 8 9 9 8 8 7 6 5 4 5 7 7 6 6 6 5 4 4 7 10 11
21 21 21 22 21 19 19 18 16 15 13 13 13 11 10 9 9 10 9 9 9 8 8 8 8 7 6 6 5 4 4 6 6 6 6 6 5 4 4 6 9 10
16 18 18 19 19 19 18 17 16 15 14 14 13 12 11 10 10 10 9 8 8 7 8 7 6 6 6 5 6 5 5 5 5 6 6 6 5 4 4 5 7 9
14 16 16 16 17 17 17 16 16 15 15 14 13 12 11 10 9 8 7 7 7 7 7 6 6 5 5 5 6 6 6 5 5 5 5 5 4 4 4 4 5 8
14 14 14 15 16 18 18 17 17 16 14 13 13 11 11 10 9 8 7 7 7 6 6 6 5 5 4 4 5 6 6 5 5 5 6 5 4 3 3 3 4 6
16 16 16 16 17 18 18 17 17 17 15 13 11 10 10 9 8 7 7 7 6 6 6 5 4 4 4 4 4 5 5 5 5 6 6 6 5 4 4 3 3 5
18 19 19 18 17 19 21 21 20 20 18 15 12 10 9 8 8 7 6 6 6 6 6 5 3 4 5 5 4 4 4 4 5 6 7 7 6 6 5 5 4 4
17 18 19 18 18 21 23 24 23 19 16 13 10 8 7 6 6 6 6 7 8 7 6 5 5 5 6 5 5 4 4 3 3 4 6 7 7 6 6 6 6 5
16 16 16 16 18 19 19 19 18 12 8 9 9 9 8 6 5 6 7 9 9 7 6 5 4 5 7 7 6 5 4 4 3 4 6 7 8 7 7 7 7 6
14 14 15 15 15 15 15 14 13 11 10 11 12 12 11 9 8 8 9 10 10 10 9 8 6 4 4 6 7 7 6 5 4 4 5 6 6 6 6 6 7 7
14 14 15 15 14 15 16 16 15 15 15 15 15 14 14 13 13 13 11 11 12 13 12 10 8 6 4 3 4 5 6 6 4 4 5 5 5 5 5 5 5 6
17 16 16 16 15 16 19 19 19 18 18 18 17 17 17 16 16 15 13 12 11 12 12 11 10 7 5 4 3 3 4 4 3 4 4 4 5 5 5 5 5 5
22 21 20 18 18 18 18 18 18 19 19 18 18 18 17 17 16 15 14 12 11 11 11 11 9 7 5 4 3 3 3 3 0 2 3 3 3 4 4 5 5 5
23 23 23 21 21 21 19 18 17 18 19 18 18 17 17 16 15 14 13 12 11 10 9 8 7 6 5 4 3 2 3 2 1 2 1 1 2 2 2 3 4 5
19 19 19 20 20 20 19 17 16 15 15 14 14 13 13 13 13 11 11 11 10 9 8 6 4 4 3 2 2 1 2 3 2 2 1 1 1 2 2 3 5 8
16 15 15 16 16 16 15 14 14 13 11 10 9 8 8 8 9 8 7 7 7 7 6 5 2 1 1 1 1 1 1 2 3 2 1 2 2 2 2 3 5 7
14 14 14 13 13 12 11 10 10 10 10 8 7 6 5 6 7 6 6 6 5 4 4 3 2 2 4 3 3 3 1 1 3 2 2 3 3 3 3 4 4 4

ECMWFNIL_925_spd_057.txt.gz
Wind_Speed
26 24 17 19 21 17 17 19 17 13 11 10 10 9 9 9 9 8 7 7 7 7 6 7 7 6 7 7 7 7 7 7 7 8 8 8 8 7 9 10 9 8
29 27 20 20 20 18 18 18 14 12 11 10 9 9 9 9 9 8 7 7 7 7 7 7 7 6 6 7 7 7 7 8 7 7 7 8 8 8 10 10 9 8
29 29 23 20 20 19 17 15 13 11 11 10 10 10 10 10 10 8 7 7 7 7 7 7 6 6 6 7 7 7 7 8 8 7 7 8 8 8 9 9 8 8
27 26 24 20 19 18 16 15 14 12 11 11 11 11 11 11 10 9 8 7 7 7 7 6 6 5 5 6 7 7 7 7 7 7 8 9 8 8 9 10 9 9
26 26 23 20 18 18 17 15 14 13 12 11 11 11 11 11 10 9 8 8 8 8 7 6 5 5 5 5 6 6 7 6 7 8 8 7 7 8 9 10 11 10
25 25 23 22 19 17 16 15 14 13 13 12 11 11 11 11 10 9 9 9 9 9 8 7 5 4 4 5 5 6 6 6 6 6 6 5 6 7 7 8 9 9
23 24 24 21 19 17 16 16 15 13 13 12 11 10 10 10 9 10 9 8 8 8 8 8 6 4 4 4 6 6 6 6 6 6 6 5 6 6 6 7 8 9
22 23 22 19 18 17 16 16 15 14 13 12 11 10 10 9 9 9 9 8 8 8 8 8 7 5 4 4 5 6 6 6 6 6 6 6 6 6 6 7 8 9
21 21 19 18 19 18 16 16 15 14 14 12 12 11 9 9 9 9 8 8 8 7 7 8 8 6 4 4 5 5 5 5 5 5 5 5 6 6 7 7 8 9
19 19 18 19 19 18 17 17 15 14 14 13 12 11 9 9 8 8 8 7 7 7 7 8 8 7 6 5 4 5 5 5 5 5 5 5 4 4 5 7 9 9
17 16 18 20 18 17 18 17 15 13 13 12 11 10 9 8 8 8 8 8 7 7 7 8 8 7 6 6 5 4 4 5 6 5 6 5 3 2 2 5 8 9
18 14 15 18 18 17 17 16 14 13 12 12 11 10 9 8 9 9 8 8 7 6 7 7 6 6 6 5 5 5 4 5 6 6 6 5 4 3 2 5 8 9
17 16 15 16 17 17 15 14 14 12 12 12 10 10 9 9 9 9 8 7 7 6 6 6 5 4 4 4 5 6 5 5 5 6 6 5 5 4 2 4 7 8
13 17 18 16 15 17 15 14 14 13 12 12 10 10 10 9 9 9 7 7 7 6 6 6 4 3 4 3 3 5 5 6 6 7 7 6 5 4 2 3 5 6
15 15 16 15 14 16 16 15 15 14 13 12 11 10 10 10 10 9 8 7 7 6 5 5 4 4 5 4 2 3 4 5 6 7 8 8 7 6 4 3 4 5
19 15 15 17 17 17 16 15 15 15 14 13 12 11 10 10 9 9 8 7 7 7 6 4 2 2 5 4 3 3 1 3 6 7 7 8 8 7 6 5 5 5
20 17 15 15 16 17 17 15 15 15 15 13 12 12 10 9 8 8 7 7 8 8 6 5 3 3 5 5 4 3 0 2 3 6 7 7 8 8 7 7 6 6
20 17 15 15 15 16 16 15 14 14 13 13 13 12 10 9 9 8 7 8 8 8 7 6 6 6 7 6 5 5 2 1 1 4 6 7 8 8 8 8 8 7
20 17 15 15 16 16 17 17 17 14 10 8 8 8 8 8 7 7 7 7 7 7 7 6 6 6 7 8 7 6 5 4 4 4 5 7 7 7 7 7 9 8
20 17 15 16 17 18 19 18 18 15 8 5 5 6 7 8 8 8 8 8 8 8 8 6 6 5 5 6 7 7 7 7 4 4 4 5 5 5 5 5 6 7
16 15 15 17 17 18 18 16 15 14 12 10 8 8 9 10 9 9 9 9 9 8 8 7 7 6 5 4 4 4 6 7 4 3 4 4 3 4 4 3 4 4
15 15 17 18 17 17 18 17 16 14 12 12 10 9 11 11 10 10 10 8 8 7 7 8 7 6 5 5 4 4 4 3 4 4 5 5 5 5 5 5 5 5
17 18 19 20 19 19 19 18 16 13 11 10 10 11 12 12 11 11 10 9 8 7 6 6 7 6 5 4 4 4 4 1 2 4 4 3 4 4 5 6 6 6
20 20 20 20 19 19 18 17 15 13 12 11 11 12 13 12 11 10 9 8 8 8 6 4 4 5 3 3 2 2 3 2 4 3 2 2 2 4 4 4 6 7
19 18 19 18 17 17 17 17 15 14 13 11 10 11 12 10 8 7 7 6 6 7 6 3 2 2 2 1 1 0 2 1 5 6 3 3 4 4 3 2 4 6
16 16 16 15 13 12 13 13 12 11 10 10 9 9 9 8 5 5 6 5 4 4 3 2 2 3 4 3 3 3 1 0 3 5 4 5 6 6 5 4 4 5

ECMWFNIL_925_spd_060.txt.gz
Wind_Speed
39 37 32 28 25 24 23 20 17 15 15 14 12 11 13 12 11 10 9 9 9 8 8 7 7 7 7 8 9 9 8 9 10 10 9 10 11 10 10 10 10 11
31 32 30 27 25 25 24 20 18 17 16 14 12 12 13 12 11 10 9 9 9 8 8 7 7 7 7 7 8 8 8 8 9 9 8 9 10 10 11 10 11 12
23 26 27 26 25 25 23 20 20 18 15 13 12 12 12 12 11 10 9 9 9 9 9 8 7 6 6 6 7 8 8 7 8 8 7 9 10 10 11 12 11 11
23 24 24 24 24 24 23 21 19 17 14 13 14 14 13 12 11 10 10 9 9 10 9 7 7 6 6 6 6 7 8 7 8 8 7 8 10 9 9 11 10 10
24 24 23 23 24 23 22 20 17 16 16 15 15 14 13 12 11 10 10 9 10 9 8 7 6 5 5 5 6 6 6 6 7 8 8 8 9 8 8 10 10 9
24 23 23 24 25 24 22 17 16 17 17 16 15 14 13 12 11 11 11 11 11 9 8 8 6 5 5 5 6 6 6 5 5 7 7 7 8 8 8 9 10 10
24 24 25 26 26 26 21 16 16 18 17 16 15 14 13 12 11 11 11 11 11 10 10 9 6 5 5 5 6 6 6 6 5 5 7 7 7 7 7 8 9 10
25 27 28 27 27 26 21 17 16 17 17 15 15 14 14 12 11 11 11 10 10 9 10 9 7 6 5 6 7 6 5 5 5 6 8 8 7 6 6 7 8 10
24 28 29 28 27 26 23 18 16 17 17 15 15 15 13 12 11 11 10 9 9 8 8 8 7 7 5 4 6 6 5 5 4 6 6 7 6 6 7 6 6 8
24 27 28 27 27 26 23 19 17 18 17 15 15 14 12 11 11 10 10 9 9 8 8 8 7 8 5 4 5 5 5 5 4 3 5 5 5 5 7 8 6 7
26 27 27 26 27 25 22 22 20 18 17 16 15 13 11 11 11 10 9 9 8 8 9 8 8 8 5 4 6 4 2 4 5 4 5 5 2 1 4 7 6 6
25 25 24 25 27 25 24 25 23 18 17 16 15 13 11 10 10 9 9 9 8 8 9 7 6 7 5 4 5 3 1 1 4 6 5 3 2 2 2 5 5 6
21 22 23 24 25 25 26 25 21 18 16 14 13 13 11 10 10 9 9 9 8 8 8 6 6 7 6 4 4 3 3 1 1 4 4 3 3 3 4 5 5 6
19 21 22 22 22 25 26 22 19 17 15 13 13 13 11 10 10 9 9 9 9 9 8 7 7 6 6 5 3 3 4 3 2 2 2 2 2 4 6 4 4 5
23 21 21 21 22 24 23 20 20 17 14 14 14 12 11 11 11 9 9 9 10 10 9 8 7 6 6 5 3 6 6 2 2 4 3 3 3 2 4 3 3 3
25 22 22 21 21 23 22 20 20 19 16 15 14 12 12 12 11 9 9 10 10 10 9 7 6 5 6 4 3 5 4 3 2 3 4 3 4 4 3 4 4 4
25 23 23 19 18 21 22 20 19 18 18 17 16 15 13 12 12 12 11 12 11 9 7 5 4 4 4 4 3 3 2 3 4 1 2 2 3 4 4 6 6 5
23 21 20 16 15 19 20 20 19 20 20 20 19 17 14 13 14 13 12 12 10 8 6 4 4 4 3 4 4 2 1 2 4 5 3 1 3 3 2 5 6 6
21 20 20 18 18 21 22 22 23 22 21 20 19 17 14 13 13 11 10 10 9 8 7 6 5 4 3 3 4 3 3 1 3 6 5 1 3 2 2 3 7 8
20 22 23 22 23 25 25 25 24 22 21 19 18 15 13 11 9 7 7 8 7 6 6 6 6 4 3 2 2 3 4 3 1 6 7 5 4 3 3 4 5 6
21 22 23 23 24 24 24 24 23 22 19 17 16 14 12 9 7 6 6 7 7 6 6 7 7 6 4 2 2 2 3 3 1 4 6 6 6 5 4 5 6 5
21 22 22 21 22 23 22 20 19 19 17 15 15 15 14 13 11 9 9 9 8 7 8 8 8 7 5 4 4 4 3 2 1 3 4 3 3 3 4 4 3 3
20 22 23 22 22 22 21 19 18 17 15 14 16 16 16 16 15 13 12 11 9 8 8 8 8 7 6 5 5 5 4 5 6 4 3 4 4 3 3 4 3 3
20 22 23 24 23 21 20 20 19 17 14 14 16 17 16 15 14 14 13 11 9 9 8 8 8 7 6 5 4 4 2 5 9 10 8 8 8 6 3 3 2 1
21 21 22 23 23 20 19 20 19 16 15 14 15 15 14 12 11 10 10 9 9 8 7 7 8 7 7 6 4 3 3 4 6 8 9 8 8 9 6 2 1 0
22 21 21 21 20 19 19 18 16 15 15 15 15 14 13 12 9 8 8 8 7 6 6 8 9 9 9 8 7 5 4 3 4 5 6 5 6 9 9 4 1 1

ECMWFNIL_925_spd_063.txt.gz
Wind_Speed
11 12 15 18 23 28 31 31 29 27 25 23 23 24 24 23 21 20 20 19 18 16 16 15 14 15 15 15 15 15 14 14 14 14 15 15 14 14 15 14 16 16
10 12 15 16 19 25 29 29 28 26 24 23 23 23 24 22 20 20 20 19 18 16 16 15 14 15 16 16 16 15 15 14 14 14 14 16 15 14 15 13 15 16
9 13 18 19 22 26 27 28 26 24 23 22 22 22 23 22 20 20 20 20 18 17 16 14 15 16 16 16 15 15 15 15 14 13 12 15 16 15 15 13 15 16
11 16 21 23 25 26 26 26 24 23 22 21 21 23 23 22 21 21 20 20 19 17 16 15 14 14 13 14 15 15 13 13 13 12 11 13 14 14 16 14 15 16
15 19 22 22 24 25 24 23 23 23 22 21 23 24 23 22 21 21 20 19 19 17 16 16 14 13 12 13 14 14 13 13 13 11 11 12 13 12 14 14 14 15
18 21 22 21 22 23 22 22 22 22 21 23 25 24 21 22 22 20 20 19 19 18 17 16 14 13 13 12 12 12 12 12 13 13 12 12 13 12 11 13 14 14
20 22 22 22 23 22 22 22 21 21 23 25 26 24 21 21 21 20 20 18 18 18 17 15 14 13 13 12 12 12 10 10 12 13 12 12 13 12 11 13 14 12
20 19 20 22 24 23 22 22 21 23 26 27 25 23 21 20 20 21 20 17 17 19 18 15 13 13 12 12 12 11 10 10 10 11 11 12 13 12 12 13 14 13
14 18 22 23 24 25 23 24 25 26 26 25 23 23 21 19 19 19 19 16 17 20 18 14 13 12 11 12 11 10 11 9 8 10 10 11 12 11 11 12 13 14
13 19 24 24 24 25 25 25 26 26 24 22 21 21 19 18 17 16 16 16 18 19 16 14 14 11 10 13 12 10 10 7 7 9 10 11 10 9 10 11 12 13
18 21 23 23 22 22 26 26 24 24 23 21 19 18 18 19 17 15 15 15 16 16 14 14 15 12 11 13 10 8 9 8 8 8 8 8 6 7 11 11 10 10
22 23 23 25 21 19 25 26 23 22 22 20 18 18 19 19 17 15 14 14 15 15 13 15 15 12 12 12 10 8 8 8 9 8 7 7 5 7 12 11 9 10
23 23 25 26 22 18 23 25 24 23 22 19 18 20 20 18 16 15 14 14 15 15 14 16 16 14 13 12 11 8 7 8 9 8 8 7 7 10 11 9 8 10
21 22 25 24 20 20 23 23 23 23 21 20 20 19 18 17 17 16 16 17 18 18 17 17 17 15 14 13 11 8 7 8 8 7 8 10 11 11 9 6 6 9
21 21 23 21 19 23 24 21 22 23 22 22 21 19 18 17 17 19 20 21 20 19 17 16 15 14 14 13 11 9 8 8 6 5 6 8 10 11 8 6 6 7
22 22 21 19 18 20 22 22 21 20 22 23 21 20 20 18 18 20 20 20 19 17 15 14 13 12 12 12 11 10 9 7 6 5 3 3 7 9 9 8 7 6
23 23 21 19 18 18 22 22 18 15 19 23 22 22 21 20 21 22 21 19 17 15 14 13 12 11 10 10 10 10 9 7 5 5 4 3 4 6 10 11 10 8
22 23 23 20 19 20 23 22 20 20 23 25 25 23 22 22 22 21 20 18 16 14 13 12 11 10 9 8 8 9 9 8 6 5 4 3 2 3 10 13 12 10
20 24 25 22 21 22 23 22 23 25 25 25 25 24 23 23 22 21 19 17 15 14 13 12 10 9 7 6 7 7 7 9 9 8 7 7 7 6 10 14 13 13
22 25 26 25 25 25 25 24 26 27 26 26 25 24 23 22 21 20 18 16 15 14 12 11 10 9 7 6 6 7 6 7 9 10 10 10 12 13 12 12 12 13
24 26 27 27 27 26 25 25 27 28 26 25 24 22 22 21 19 18 18 16 15 13 12 12 11 9 8 7 6 6 5 6 8 10 11 11 12 14 14 14 12 12
25 26 28 29 28 27 26 26 27 28 26 25 24 23 21 20 19 18 17 17 16 13 13 14 13 11 10 10 10 9 7 7 10 12 14 14 14 14 15 16 14 13
22 25 27 28 28 28 27 26 26 27 24 23 23 23 21 21 20 19 18 17 16 14 13 14 14 12 11 11 11 11 11 11 13 15 16 16 16 15 14 15 15 13
20 23 25 26 26 26 26 26 25 25 22 20 20 21 21 20 20 20 19 18 17 16 15 15 15 14 12 10 10 11 12 14 15 17 18 17 15 15 13 13 13 12
21 22 23 24 24 24 24 23 22 22 21 20 19 20 20 19 19 20 20 19 18 18 17 16 16 15 12 11 10 9 10 11 13 16 19 18 15 14 14 14 13 12
21 21 21 22 22 22 22 22 21 22 23 23 21 19 18 18 18 20 21 20 19 19 19 19 18 17 15 13 11 9 8 8 9 14 18 17 15 13 13 12 12 12

ECMWFNIL_925_spd_066.txt.gz
Wind_Speed
12 11 11 12 15 17 19 20 22 25 27 28 27 26 25 24 23 22 22 20 20 21 21 20 20 20 20 20 20 19 20 21 21 20 19 17 17 19 19 19 20 18
11 10 10 11 14 18 20 21 23 26 27 27 26 25 24 24 24 24 23 21 21 21 20 19 20 20 20 20 20 20 21 22 21 20 19 17 17 18 19 18 19 18
9 10 11 10 14 19 21 22 24 26 26 25 25 24 24 24 25 25 24 23 23 22 20 19 20 21 20 19 19 20 20 21 20 18 18 17 16 18 18 17 18 19
8 8 10 9 12 19 21 23 25 26 25 25 24 25 25 25 24 24 25 25 24 23 22 20 20 20 19 19 19 19 18 18 17 17 16 16 16 17 17 17 18 19
10 7 8 9 12 18 22 24 26 26 26 24 24 26 27 26 25 26 26 25 24 23 22 20 19 19 20 19 19 19 17 16 15 15 14 15 16 16 17 16 17 18
12 11 11 12 15 20 22 24 26 26 26 25 26 29 29 27 27 27 26 25 24 23 21 21 20 20 20 19 19 18 17 16 15 14 13 14 16 16 16 16 16 17
14 16 16 16 20 23 23 24 26 27 27 27 30 31 29 29 28 27 26 25 24 22 21 21 21 20 19 19 19 18 17 16 15 14 13 14 16 15 16 17 16 17
19 19 19 19 22 25 24 25 28 28 29 30 31 30 28 29 29 27 26 25 24 23 21 21 20 19 19 19 20 18 17 17 17 16 14 15 16 15 16 16 16 17
21 21 21 22 24 26 25 26 28 29 30 31 30 30 28 28 28 28 26 25 24 23 21 20 19 19 19 18 19 18 17 17 18 17 16 15 16 16 15 15 16 17
18 21 23 25 26 26 27 28 28 28 27 26 27 29 29 27 27 26 26 25 25 23 21 20 19 18 18 17 17 16 16 16 17 17 16 16 17 16 15 15 15 16
19 21 22 24 25 25 26 27 26 25 25 25 26 28 29 28 27 26 26 26 25 22 20 20 19 17 16 16 16 16 15 15 16 16 15 15 17 16 14 14 14 14
20 22 22 24 23 23 24 24 24 25 28 29 27 26 28 28 27 26 26 27 25 22 21 20 18 17 17 16 15 14 13 13 14 15 15 15 16 15 14 13 12 12
21 24 24 22 20 21 24 24 26 29 32 29 26 27 28 27 27 27 27 27 25 23 21 19 18 19 18 15 13 13 13 14 14 15 15 15 14 14 14 12 10 10
23 25 23 20 21 22 24 26 29 31 30 27 25 27 27 25 26 27 28 26 24 22 21 19 19 19 17 15 13 13 13 14 14 15 15 14 13 13 13 11 8 9
21 21 19 20 23 25 25 28 30 28 25 26 27 27 26 24 25 26 26 25 23 22 20 19 19 18 16 15 14 14 14 14 13 14 15 16 15 15 12 8 7 8
20 16 17 20 24 27 25 25 26 24 23 27 30 29 26 25 25 25 24 24 24 23 21 20 19 18 16 15 14 13 13 13 12 13 16 17 16 14 12 8 7 8
20 18 19 20 22 25 23 23 25 25 26 32 32 30 29 28 27 27 26 25 24 23 22 20 19 18 16 14 14 13 12 11 11 12 14 17 15 14 13 10 9 9
22 20 21 22 23 24 24 27 28 27 30 35 35 33 33 31 29 28 27 25 24 22 20 19 18 17 15 14 13 12 11 10 10 10 12 14 14 14 14 12 12 12
23 22 21 23 25 26 27 29 27 26 32 36 37 36 34 32 30 27 25 23 21 19 18 17 16 15 14 13 12 12 11 11 10 10 11 13 14 15 16 15 13 13
21 24 23 23 24 27 29 28 25 27 33 36 36 35 33 31 29 26 23 21 18 17 16 15 14 13 12 13 13 12 12 13 13 12 13 14 16 16 16 14 13 13
17 22 25 24 24 28 31 29 26 30 32 33 33 32 31 30 28 25 23 21 19 18 17 15 13 12 11 12 12 11 12 15 17 17 16 17 17 17 16 15 14 13
17 20 24 24 25 29 32 29 28 31 32 31 32 32 30 29 27 25 23 22 20 19 19 18 16 13 11 12 13 13 14 17 20 20 20 21 20 19 19 17 15 14
19 20 22 23 24 28 30 29 30 31 31 32 32 32 30 28 26 25 23 22 21 19 19 20 19 16 13 14 16 18 18 20 22 23 24 24 23 22 21 19 17 14
23 21 22 22 23 24 26 29 29 28 27 30 32 31 30 28 27 26 24 22 22 21 20 20 19 18 16 16 18 20 21 22 23 24 25 25 23 22 20 19 18 15
25 24 22 22 22 21 23 27 28 25 25 30 31 31 31 29 28 28 27 25 23 22 20 20 20 18 17 18 18 19 20 22 23 24 25 23 22 20 19 17 16 15
26 26 24 23 21 20 21 25 27 25 27 30 32 32 32 31 30 30 29 27 24 23 21 21 20 19 18 18 18 17 18 19 21 22 23 22 20 19 17 16 15 14

ECMWFNIL_925_spd_069.txt.gz
Wind_Speed
15 15 18 20 20 21 23 25 26 26 24 25 27 27 27 28 28 28 27 25 24 24 24 24 25 26 24 23 23 22 20 19 21 21 21 20 21 21 21 22 23 23
16 17 20 20 20 20 22 24 25 26 25 25 26 27 27 27 27 27 26 24 22 23 24 25 26 26 25 23 22 22 21 20 20 21 21 20 19 19 19 20 22 22
15 18 21 20 18 18 20 24 25 24 24 23 23 25 26 26 27 27 25 22 21 22 24 25 25 25 24 23 22 22 22 21 20 21 21 19 19 18 18 19 20 20
16 16 17 17 17 17 20 24 24 23 23 22 23 24 24 25 28 27 23 22 21 21 23 24 24 24 22 22 22 21 21 21 21 21 21 20 19 18 17 19 19 18
18 20 19 17 17 18 19 21 23 23 23 22 23 23 23 24 26 26 23 23 23 21 22 24 24 23 22 21 21 21 21 21 20 21 21 20 19 17 17 18 17 17
20 21 19 17 16 17 18 20 22 23 23 22 22 22 23 24 25 25 24 24 24 23 22 24 24 22 22 22 21 20 21 20 20 20 20 19 18 17 16 16 16 16
20 19 18 18 19 19 20 22 22 23 23 21 20 22 24 24 24 24 25 26 25 23 23 24 24 22 22 22 21 20 20 19 19 18 18 17 16 16 16 16 16 16
19 21 21 20 20 21 23 23 22 21 21 19 20 23 24 24 24 24 25 26 25 23 23 25 24 22 21 22 21 20 20 19 18 18 17 17 17 17 17 16 16 16
20 22 23 22 22 24 25 24 22 21 20 19 21 23 24 24 24 25 24 24 24 25 25 25 23 21 21 21 21 21 20 19 18 18 17 17 17 18 17 16 16 15
22 22 23 25 25 26 26 24 21 21 21 21 22 22 22 24 25 24 24 23 24 25 25 24 22 21 21 21 21 21 19 18 17 17 17 16 17 17 17 17 16 16
21 23 25 28 28 28 28 25 21 22 22 22 22 21 23 26 26 24 24 24 25 26 24 23 22 22 21 21 21 20 18 17 17 17 17 16 16 17 17 17 16 15
18 22 24 26 26 27 29 27 23 23 22 21 21 22 24 27 27 26 24 25 27 26 24 23 22 22 21 20 20 19 17 16 16 16 17 16 15 15 16 16 15 14
19 20 22 24 25 26 28 26 22 22 22 21 22 23 24 26 28 28 26 26 28 27 24 23 23 22 21 20 19 18 17 16 15 15 16 15 14 14 14 14 13 12
16 18 20 23 24 24 25 24 21 21 22 23 25 25 25 28 30 29 26 27 28 26 25 24 22 21 19 18 18 18 16 15 15 16 16 14 13 13 14 13 11 11
12 15 18 19 19 19 22 24 24 24 24 25 26 27 27 29 30 29 28 28 27 25 24 23 21 19 17 16 16 16 15 14 14 15 15 14 14 13 13 13 11 10
12 13 14 15 17 18 21 25 27 28 27 27 28 28 28 28 29 30 30 29 26 25 24 22 20 19 17 15 14 14 14 14 14 15 14 14 14 13 11 11 11 10
14 14 13 14 16 15 19 25 28 28 28 28 29 29 28 29 30 31 31 29 26 25 23 21 20 19 17 16 14 13 14 14 14 14 14 14 13 13 12 11 10 9
12 14 13 15 15 14 18 25 28 28 28 28 27 27 30 32 31 31 30 28 26 24 22 21 20 19 18 17 15 14 14 13 14 14 15 15 15 14 13 11 9 8
7 10 11 12 12 12 18 26 28 28 28 28 27 27 29 32 33 31 29 27 25 24 22 21 20 19 18 17 16 15 14 13 15 16 16 16 15 14 13 12 10 9
7 3 8 10 11 15 21 26 28 28 28 29 30 28 28 32 34 31 29 27 26 25 23 22 20 18 17 16 15 15 14 14 15 16 17 16 14 13 12 12 11 10
14 6 6 11 14 17 23 26 26 27 28 30 30 28 27 30 32 30 28 27 25 24 23 21 19 18 16 16 15 15 15 15 15 16 17 16 14 12 12 11 11 9
19 12 12 16 16 16 19 25 26 25 26 28 28 27 26 27 29 28 26 24 22 22 22 21 18 17 16 15 15 16 16 16 16 17 18 17 15 14 14 13 12 11
23 18 17 19 21 18 17 23 28 26 24 26 28 27 25 25 26 26 24 22 20 20 20 20 18 16 15 14 14 15 16 17 18 18 19 19 18 17 17 16 15 14
26 23 21 21 23 21 18 21 27 26 24 25 27 27 26 25 26 27 24 22 21 19 19 19 18 17 16 16 15 15 17 19 20 21 22 22 21 20 18 17 17 15
25 26 25 24 23 21 18 19 23 24 24 25 25 26 27 26 25 27 26 23 21 21 20 19 19 19 18 18 19 18 19 20 22 23 24 23 22 21 19 17 16 15
25 25 25 24 23 21 19 19 21 23 25 25 25 26 27 28 27 28 28 25 23 23 22 20 20 19 19 20 21 21 21 22 23 24 25 24 22 20 19 17 15 14

ECMWFNIL_925_spd_072.txt.gz
Wind_Speed
15 16 17 17 17 18 19 21 21 20 20 18 20 24 24 23 25 27 27 25 25 24 22 22 23 23 25 27 27 26 26 25 24 22 22 24 23 22 21 20 19 19
14 16 17 18 20 22 23 25 24 20 18 16 16 20 24 24 24 24 22 23 24 24 23 24 25 24 24 26 27 26 25 24 24 22 22 23 22 21 21 19 19 18
15 17 17 20 23 24 24 25 24 18 15 15 14 17 23 25 25 23 21 22 24 22 22 24 25 24 24 24 24 24 24 24 24 23 22 22 21 20 20 18 18 18
16 16 16 20 22 22 23 24 22 19 16 15 14 16 21 24 25 25 22 23 25 23 23 23 23 24 24 23 22 24 25 25 25 23 21 21 21 20 18 17 17 17
17 17 16 20 22 21 22 23 20 19 18 15 15 17 21 23 25 24 22 24 26 25 24 22 23 25 24 22 24 25 25 26 25 23 21 21 20 19 17 16 15 16
16 17 18 22 24 21 21 21 20 19 19 19 19 20 21 22 23 23 23 23 24 24 23 22 23 25 24 24 25 24 24 27 26 22 21 20 19 18 17 15 15 15
14 15 17 22 25 23 21 20 19 20 21 22 22 21 20 20 21 23 22 22 22 22 21 21 23 25 24 25 25 22 23 27 26 23 21 20 18 18 17 15 15 15
14 17 20 21 22 23 22 21 21 22 23 23 22 22 20 20 21 22 21 20 21 21 21 21 23 25 26 27 24 20 22 26 24 20 19 18 18 18 17 16 15 15
13 15 19 21 22 22 22 22 22 23 23 23 23 23 22 21 22 22 21 21 21 22 24 23 23 24 26 25 23 20 22 24 20 17 17 17 18 18 17 16 16 15
15 13 15 19 21 21 21 22 23 24 24 24 24 25 24 22 22 22 21 22 23 24 25 25 23 22 23 23 21 20 22 23 19 17 17 17 17 17 17 16 16 15
18 17 16 16 17 17 19 21 23 24 23 24 25 26 25 23 23 23 22 23 25 26 26 25 22 22 22 20 19 20 23 22 18 17 17 17 17 16 16 16 15 15
20 19 19 18 17 16 17 19 21 23 24 26 27 27 26 25 26 26 24 25 26 26 26 24 22 22 22 19 18 22 22 19 17 17 17 17 16 15 15 15 15 14
20 20 20 19 18 17 17 18 20 23 26 28 28 27 27 27 28 27 27 27 27 26 25 23 22 22 20 18 21 23 21 18 18 17 16 16 16 14 13 13 14 13
20 20 20 19 18 18 18 19 20 23 26 28 28 28 28 28 28 28 28 28 27 26 24 23 22 21 19 20 23 22 19 18 18 17 16 16 15 13 12 12 13 13
21 20 20 20 20 19 19 20 21 23 25 27 29 30 30 28 27 28 28 27 26 25 25 23 21 19 19 22 22 19 19 19 17 16 15 15 15 14 13 13 13 13
23 21 19 19 20 20 19 20 22 24 25 27 29 31 30 29 29 30 29 28 27 26 25 23 21 21 21 21 19 18 18 18 16 15 15 14 14 14 13 13 12 12
25 22 18 17 19 20 20 20 22 24 25 26 29 30 29 29 31 32 29 28 28 26 25 23 22 21 21 19 18 18 18 17 16 15 15 15 15 15 13 12 12 11
27 22 17 15 17 19 20 20 21 23 24 25 27 28 27 27 29 30 29 28 27 25 24 23 22 20 19 18 17 18 18 16 15 15 16 16 16 14 14 13 12 10
28 23 17 11 11 15 16 16 17 18 20 23 26 26 25 26 27 28 28 26 25 25 24 23 21 20 19 18 18 18 18 17 16 16 17 16 15 15 15 14 13 10
29 24 18 11 5 7 9 9 10 12 14 17 21 23 23 23 24 24 25 25 25 26 25 23 21 21 20 19 18 17 17 17 17 18 17 16 15 16 15 14 12 10
29 25 20 15 9 4 3 4 6 8 11 14 17 19 21 20 20 21 22 25 26 26 25 24 23 23 22 20 19 18 17 17 18 18 18 17 16 15 14 13 12 11
29 25 21 19 15 13 12 11 10 10 12 16 18 19 19 18 18 18 18 21 25 25 25 26 24 23 22 21 19 19 18 17 18 19 18 18 16 15 14 13 12 11
28 24 22 21 19 17 17 15 14 14 14 18 20 20 19 18 17 17 16 18 22 24 24 25 24 21 20 20 19 19 18 18 19 18 18 18 17 16 15 14 13 12
27 25 23 23 22 20 19 17 17 17 17 21 24 24 22 21 19 18 17 17 19 21 22 24 24 20 18 18 17 16 16 18 19 19 19 19 19 18 17 16 15 13
27 25 24 24 24 22 21 19 19 18 19 23 26 26 25 24 22 21 20 18 17 18 19 21 22 20 18 17 17 16 15 17 19 20 21 22 21 21 20 19 18 17
26 25 24 23 22 21 21 21 20 19 21 23 24 25 26 26 23 22 21 19 17 17 17 18 18 18 17 17 17 17 16 17 19 20 23 24 24 23 23 22 21 20

ECMWFNIL_925_spd_075.txt.gz
Wind_Speed
9 10 11 13 14 15 14 12 12 13 15 15 14 14 16 19 21 22 23 24 24 24 24 23 24 26 24 22 21 21 19 18 17 18 20 19 17 17 18 18 17 15
10 10 12 13 13 14 14 13 12 13 14 13 12 14 16 18 20 21 22 23 23 24 24 25 26 25 24 23 23 21 19 17 17 19 20 20 18 17 19 20 18 16
10 11 13 14 14 13 12 12 11 12 13 13 12 14 15 15 17 19 20 20 20 22 24 25 24 23 23 22 22 21 19 19 21 20 16 17 18 17 19 21 18 16
11 11 14 15 14 13 12 11 10 11 14 15 14 12 13 15 16 16 16 17 18 19 22 23 20 20 22 21 19 19 19 20 21 20 16 16 18 16 18 21 19 16
13 11 13 14 13 13 13 13 11 10 12 15 14 11 13 19 18 16 15 14 15 17 21 21 19 19 22 22 18 16 16 17 17 18 19 19 18 18 20 24 21 16
15 12 11 12 12 13 14 14 12 10 12 16 15 12 15 19 19 16 15 13 13 16 20 21 20 20 21 20 18 15 15 16 16 17 19 18 17 17 20 23 19 16
17 15 12 11 13 14 15 14 14 14 14 14 14 14 17 21 20 17 14 13 13 14 17 19 19 20 20 19 16 15 15 15 16 16 17 18 17 15 16 19 18 16
19 18 16 14 14 14 14 15 15 15 14 11 10 13 16 19 19 17 15 13 13 14 15 16 17 18 19 19 17 16 15 15 17 17 16 18 19 16 16 18 18 17
18 18 17 16 15 14 14 15 15 15 13 11 11 13 14 15 16 16 15 14 13 13 14 15 16 16 17 18 18 17 17 18 19 18 16 19 21 19 19 20 18 17
18 18 17 16 15 14 14 15 16 16 14 13 14 15 14 14 14 15 16 16 15 14 15 14 15 16 16 18 17 16 17 18 19 18 17 19 21 18 18 20 18 17
19 19 19 18 17 15 14 15 16 16 16 15 15 17 16 15 16 16 16 16 16 15 16 15 15 16 16 17 16 15 16 17 18 18 15 18 20 18 18 20 18 17
21 20 20 20 19 17 15 15 15 16 16 15 15 16 17 17 17 17 16 16 16 16 16 16 16 15 15 16 16 15 16 18 19 18 16 18 20 18 19 19 17 17
22 22 21 21 19 18 16 16 16 16 15 15 16 16 16 17 17 16 16 17 17 17 17 16 16 15 15 15 15 16 18 19 18 17 16 19 19 18 19 19 17 18
23 22 22 21 20 18 17 17 17 17 16 15 16 17 18 18 18 17 16 17 18 17 17 16 16 15 16 16 15 15 16 18 18 16 15 16 17 18 21 20 17 18
22 21 21 22 21 19 18 17 17 17 17 16 16 17 18 19 20 19 17 18 18 18 17 16 15 16 17 18 17 16 16 18 20 18 14 12 13 17 21 19 16 15
22 20 22 23 22 20 19 17 16 16 16 17 16 16 18 19 21 21 19 17 17 18 18 17 18 20 22 22 21 19 19 18 19 18 16 13 13 16 18 16 14 14
22 22 22 22 21 20 19 17 17 16 17 18 18 18 19 20 22 23 22 20 19 19 21 23 24 25 24 23 21 20 18 17 16 17 18 17 16 17 15 14 15 14
22 23 22 22 22 21 19 17 17 17 17 19 19 19 21 23 24 25 25 25 24 23 25 28 28 26 24 22 21 19 16 15 15 16 17 17 17 17 16 15 15 14
22 23 22 21 22 21 19 17 16 15 15 15 15 16 19 22 25 26 25 26 27 27 27 28 28 26 23 21 20 19 16 16 16 18 18 18 19 19 18 15 15 14
22 22 21 20 21 20 19 18 17 16 14 13 10 8 10 13 16 19 20 21 23 24 25 27 27 25 22 21 21 20 18 18 18 19 19 20 20 19 17 15 15 14
22 21 20 19 18 18 18 18 17 16 14 12 10 6 2 2 5 7 11 14 15 17 18 21 23 23 23 22 21 20 19 18 18 18 19 19 19 18 17 17 16 13
22 21 19 17 17 17 17 17 17 16 15 13 11 10 8 6 6 6 6 8 10 12 12 12 15 19 22 22 20 19 19 18 18 19 20 20 20 19 18 17 15 13
20 21 20 18 17 17 17 17 17 16 16 16 15 15 15 15 14 14 13 13 12 11 10 9 10 13 18 20 19 18 18 19 20 21 21 22 22 21 19 17 15 14
18 19 19 19 17 17 17 17 17 17 17 19 20 19 18 18 20 22 21 20 20 17 14 13 12 13 16 18 18 16 17 19 22 23 23 23 23 21 19 18 16 15
16 17 18 18 18 16 16 16 17 17 18 21 24 23 21 21 25 27 26 25 25 21 17 16 16 15 15 16 17 17 18 20 22 23 23 23 22 20 19 18 17 17
17 17 17 18 18 16 15 17 20 21 22 24 25 26 25 26 29 30 29 28 27 23 20 19 17 15 14 14 14 17 19 20 21 23 23 22 21 20 19 18 18 18

ECMWFNIL_925_spd_078.txt.gz
Wind_Speed
10 11 11 12 11 9 10 11 11 12 12 11 12 11 11 11 11 12 14 16 16 17 17 16 15 15 17 20 20 22 23 21 19 18 18 20 21 18 16 16 16 16
10 11 11 12 12 10 11 12 12 12 12 12 13 13 12 12 12 12 13 14 16 17 17 16 16 16 17 20 22 22 22 21 19 19 20 21 20 18 17 17 17 18
10 12 11 11 12 12 12 13 13 13 14 14 13 14 14 13 13 14 13 13 14 16 17 16 17 18 17 19 22 23 23 23 21 19 19 20 19 18 18 18 17 18
11 12 11 10 11 12 13 14 13 13 15 15 14 15 16 14 14 14 13 12 13 14 16 17 17 18 17 18 21 23 23 22 21 21 20 19 20 19 18 18 18 18
12 11 11 10 9 10 12 14 14 14 15 15 15 15 16 15 14 14 13 13 13 14 15 17 18 18 17 17 19 22 22 20 20 22 21 20 20 19 17 17 18 18
13 12 11 10 9 9 11 13 14 14 14 16 16 16 16 15 15 15 15 14 14 14 15 17 19 20 20 18 17 18 20 20 21 22 22 20 19 17 16 17 17 17
14 13 12 11 11 9 10 12 13 13 14 16 17 17 16 15 14 14 15 15 15 14 15 17 18 21 23 20 17 18 20 20 19 22 22 21 19 17 17 18 17 17
15 14 13 13 13 11 10 12 12 13 14 14 16 16 15 14 14 13 14 16 16 15 16 16 16 20 22 20 18 19 21 21 20 21 22 20 19 19 18 18 18 17
16 16 15 14 14 13 12 11 12 13 13 14 15 14 14 14 14 14 15 17 16 16 18 18 17 18 19 19 20 20 21 22 21 22 22 21 20 21 20 19 18 18
18 18 17 16 15 14 13 13 13 13 13 14 14 13 14 15 14 13 15 17 18 18 19 19 19 20 20 20 21 21 21 21 21 22 23 23 21 21 21 20 18 18
20 19 18 17 16 15 15 15 15 14 13 13 13 14 15 16 16 14 14 16 18 18 19 19 20 21 21 21 21 20 21 22 21 22 24 24 22 21 21 20 19 19
21 20 18 18 17 16 16 15 14 14 14 13 13 14 16 17 17 16 16 16 17 18 19 19 20 21 21 22 22 21 21 21 21 23 23 22 20 19 20 20 19 19
21 20 19 19 18 17 16 15 14 13 14 13 13 14 15 16 17 17 17 16 17 18 19 19 19 20 20 21 21 21 21 20 20 22 22 20 19 18 19 19 18 20
20 20 19 19 19 18 17 16 15 15 14 13 13 13 14 15 16 17 18 16 16 18 19 19 20 21 21 21 21 21 20 20 20 20 19 19 19 18 18 18 18 20
20 20 20 20 20 19 18 18 18 17 15 13 12 12 13 14 16 17 18 18 17 17 18 19 21 22 23 23 22 21 20 20 21 20 18 18 19 19 17 16 17 19
20 20 21 21 20 20 19 19 19 18 18 17 16 15 15 15 16 17 18 18 19 19 19 20 22 22 24 25 24 23 22 20 21 20 19 19 19 19 16 15 17 18
21 21 22 21 21 21 20 19 19 18 18 18 17 17 18 17 16 17 17 18 20 21 20 21 23 24 24 25 25 25 23 21 21 21 20 21 20 18 16 15 17 17
22 22 22 22 22 22 21 20 19 18 18 18 17 16 17 16 15 16 16 16 19 22 22 23 25 26 25 26 27 28 24 20 19 19 20 21 19 16 15 15 16 18
22 22 22 21 22 22 22 21 20 19 19 18 17 16 15 13 13 14 15 15 16 19 21 22 23 23 23 26 28 30 27 20 17 18 19 19 17 16 15 14 14 17
22 22 22 21 21 21 22 22 21 20 19 18 17 16 15 14 12 12 12 12 13 14 14 15 17 18 18 21 27 31 29 22 16 16 18 18 17 17 16 15 15 16
22 22 22 21 21 20 21 21 21 20 19 18 16 15 15 14 12 11 10 10 10 10 11 11 15 18 19 22 27 29 27 22 18 17 18 19 18 17 16 15 16 16
22 22 22 21 20 20 20 21 20 20 19 17 16 15 14 14 13 13 11 9 7 5 5 7 10 14 19 23 25 25 22 21 20 19 19 21 21 19 17 15 14 15
21 21 20 20 20 20 20 20 20 19 18 17 16 15 14 14 14 15 14 13 10 8 5 2 2 5 11 17 20 19 17 17 18 19 20 20 20 20 20 18 16 16
20 20 19 20 20 19 19 19 19 18 17 16 16 15 14 14 14 15 18 17 15 14 14 12 9 6 4 8 13 14 13 11 14 17 20 19 18 18 19 19 18 17
19 19 19 19 19 19 18 18 18 17 16 16 16 15 14 13 14 17 20 21 20 20 21 19 17 14 10 9 10 12 12 10 11 15 20 21 20 18 16 16 17 17
19 19 19 19 19 19 18 18 17 16 16 17 17 17 16 14 14 16 18 21 22 23 25 25 23 19 15 11 11 9 9 9 10 14 20 21 20 19 16 14 15 15

ECMWFNIL_925_spd_081.txt.gz
Wind_Speed
12 13 13 14 14 14 14 14 15 17 18 17 16 15 12 10 11 12 13 16 17 15 14 14 15 16 18 19 19 18 18 20 21 20 21 22 23 24 24 24 23 23
12 13 13 14 15 15 16 15 15 15 16 14 14 16 16 13 12 12 13 16 16 15 15 14 15 15 16 18 18 17 17 19 21 20 20 22 22 23 25 25 26 25
13 14 14 14 15 17 18 17 16 14 13 13 14 16 18 17 15 13 15 17 17 16 16 15 15 15 15 17 19 19 18 19 20 21 21 20 20 22 25 27 27 25
15 15 15 15 15 17 18 19 18 16 13 13 14 17 18 18 17 16 16 18 18 18 18 17 16 16 17 18 20 21 20 20 20 21 21 20 19 21 23 26 27 26
16 16 16 16 16 17 17 18 19 18 16 15 15 16 17 16 16 17 17 17 18 19 19 18 17 17 17 17 20 20 20 22 23 21 20 19 20 20 21 22 23 24
16 16 16 16 16 17 17 18 19 19 18 16 15 14 15 16 16 17 17 17 18 19 20 20 18 17 17 17 18 19 20 23 24 22 20 20 19 18 19 21 22 22
16 16 16 16 17 18 18 18 19 19 18 16 15 13 13 13 14 14 15 16 18 19 21 22 19 17 18 19 19 20 20 21 22 22 22 21 20 19 21 24 24 23
17 17 16 17 17 17 18 18 18 19 19 17 16 14 12 12 12 12 13 16 20 20 20 22 22 20 18 19 21 21 21 21 21 23 24 23 21 22 24 26 24 25
17 18 17 18 18 17 17 18 19 19 20 20 18 16 14 13 13 13 14 17 20 20 19 20 24 24 20 19 21 21 22 22 22 24 24 24 23 23 24 24 22 25
18 18 18 18 18 18 18 19 19 19 19 20 20 18 15 15 15 15 16 18 20 21 20 22 26 26 21 19 20 20 22 22 22 24 24 24 23 22 24 23 23 25
19 18 18 18 18 18 19 19 19 19 18 19 20 20 17 16 16 16 18 20 21 22 24 27 29 26 20 18 19 20 21 22 22 23 23 23 22 23 25 24 23 22
20 19 18 19 18 18 19 19 19 19 19 19 20 20 19 18 17 17 18 19 20 22 27 29 28 24 20 19 19 21 22 22 22 23 21 22 23 23 24 24 24 23
20 19 19 19 19 18 19 19 19 19 19 20 21 21 20 20 19 18 18 19 20 22 25 27 25 21 19 20 21 22 21 20 22 25 23 22 23 22 24 26 26 26
19 19 19 19 19 19 19 19 19 20 20 20 21 22 21 20 20 20 20 20 21 22 23 25 24 18 17 21 22 22 22 20 22 24 22 22 23 24 27 30 28 27
19 19 19 19 19 20 20 19 19 20 21 20 20 21 21 21 21 21 21 21 21 23 22 23 24 19 17 21 22 21 20 19 22 24 22 23 24 23 25 28 27 26
19 19 19 19 19 20 20 20 21 21 21 21 21 21 21 22 22 21 21 21 22 22 21 22 23 22 21 22 23 23 21 18 19 21 22 26 27 24 23 25 26 24
19 20 20 19 20 20 20 21 21 22 22 21 21 21 22 22 22 22 21 21 21 22 22 22 21 18 19 22 25 26 23 20 18 18 20 25 27 26 26 26 25 23
20 20 20 20 20 20 20 20 21 22 22 21 21 21 21 21 21 21 21 21 21 21 22 22 20 17 17 20 23 25 24 22 23 21 20 23 26 28 27 26 24 20
20 20 20 20 20 20 20 20 20 21 22 21 21 22 21 20 20 21 21 21 21 22 21 20 20 21 21 19 20 22 23 23 25 25 22 24 27 28 27 26 23 19
21 20 20 20 20 20 20 20 20 21 21 21 21 22 22 21 21 21 21 21 21 22 21 20 19 22 23 22 22 22 22 22 25 27 25 25 26 26 26 26 24 22
21 20 20 20 20 20 20 20 20 20 20 20 20 20 21 21 21 21 21 22 22 22 22 20 20 23 25 24 24 23 21 21 24 27 26 25 25 24 23 23 23 23
20 20 20 20 20 20 20 20 20 20 20 20 19 19 20 20 21 21 21 22 23 22 23 22 21 23 25 24 24 24 22 20 21 25 24 22 23 23 20 18 19 20
20 20 20 20 20 21 21 21 21 20 20 20 19 19 20 21 21 21 20 21 22 22 24 24 23 23 23 21 22 22 20 20 21 22 20 18 20 21 18 16 17 19
19 19 20 20 21 21 22 22 21 21 20 20 19 19 19 20 20 20 19 20 21 22 25 26 25 25 23 17 16 15 13 14 16 15 9 8 11 12 12 13 15 17
19 20 20 20 20 21 21 21 21 21 21 20 19 19 19 18 19 20 20 20 20 21 26 29 28 27 26 19 11 7 3 3 8 9 9 12 14 12 10 10 11 13
19 19 19 19 20 20 20 19 19 20 21 20 19 19 19 19 19 19 19 20 20 21 24 28 30 29 28 23 15 9 7 8 12 16 16 16 16 14 11 10 10 12

ECMWFNIL_925_spd_084.txt.gz
Wind_Speed
16 17 18 18 18 18 18 19 17 14 14 15 14 15 17 15 15 14 14 15 16 17 19 19 19 19 19 20 19 20 24 25 25 26 28 28 28 29 29 29 28 26
17 17 16 16 16 17 18 19 18 16 17 17 16 16 16 16 15 15 16 17 17 17 19 20 21 20 20 20 20 20 22 25 25 25 26 26 26 28 29 29 28 26
18 17 17 16 16 17 17 18 19 18 17 17 17 17 16 16 16 14 15 17 16 17 18 19 20 20 20 19 20 21 21 22 25 26 26 25 24 26 28 28 28 27
18 17 17 18 17 18 18 18 19 19 18 17 17 17 17 17 17 15 15 15 16 16 17 19 19 19 20 19 20 22 22 22 23 24 26 26 25 24 25 26 27 26
18 18 17 18 18 19 20 19 19 20 20 18 17 18 17 17 17 16 15 15 16 17 18 19 19 19 20 20 20 21 22 22 22 23 24 25 26 25 24 24 25 24
19 19 18 18 19 20 19 18 19 21 21 20 19 19 18 17 17 17 16 15 15 16 16 17 18 19 20 20 21 22 22 21 22 22 23 24 25 25 23 22 24 24
20 20 19 20 20 20 18 18 20 21 22 22 21 20 19 19 19 20 19 17 15 14 14 14 17 19 20 20 20 21 21 21 21 22 24 24 23 24 23 22 24 24
21 21 21 21 21 20 19 19 20 20 22 23 22 21 21 21 20 21 21 18 16 15 14 14 16 19 21 21 21 21 22 21 20 22 26 27 24 25 26 24 23 25
22 22 22 22 22 21 21 21 21 21 21 22 23 22 22 22 22 21 21 20 18 17 16 15 16 18 20 22 23 23 24 24 22 23 27 30 28 26 25 23 23 25
21 22 22 22 22 21 21 22 22 21 21 21 22 22 23 24 24 22 22 21 20 18 18 17 17 17 19 22 25 25 26 27 25 22 24 28 29 25 22 22 23 24
21 21 22 22 22 21 21 21 22 22 21 21 21 22 23 23 23 23 23 24 23 20 19 20 20 19 20 22 24 25 26 27 26 22 22 26 27 24 22 22 23 24
21 21 21 22 22 22 22 22 22 22 22 22 22 22 23 23 23 23 24 24 23 23 21 20 20 21 23 25 24 24 25 26 26 24 24 27 26 23 24 25 24 23
21 21 21 22 22 23 22 22 23 23 22 22 22 23 23 23 24 24 24 23 22 22 23 22 22 23 23 22 20 21 23 24 27 26 26 27 26 24 26 27 24 24
21 21 21 22 22 22 22 22 23 23 23 23 23 23 23 24 24 24 23 23 22 21 21 23 24 23 21 20 20 20 20 21 23 25 25 27 28 28 28 26 26 28
20 20 21 21 21 21 21 22 22 22 22 22 22 23 23 23 24 24 24 24 23 22 22 22 21 20 22 24 25 23 22 21 19 20 23 25 25 26 27 27 27 28
20 20 20 21 21 21 21 22 22 22 22 22 22 23 23 23 24 24 24 24 24 24 24 22 20 22 26 28 26 25 24 22 21 19 21 24 24 23 25 27 27 26
20 20 20 20 21 21 21 22 22 23 22 22 22 22 23 23 24 24 24 24 24 24 24 22 21 25 30 31 28 25 24 23 23 21 20 22 25 25 25 27 28 26
20 20 20 20 21 21 21 22 23 23 23 23 22 23 23 23 23 24 24 24 24 24 24 23 22 26 32 34 31 26 23 23 23 23 21 21 24 24 24 26 27 25
21 21 20 21 22 22 22 23 23 23 24 24 23 23 23 23 24 24 24 24 25 25 25 24 23 27 34 36 33 29 24 23 22 23 23 21 22 24 24 24 25 25
20 21 21 21 22 23 23 23 24 24 24 24 24 23 24 24 24 25 24 25 26 25 27 26 24 31 38 37 33 31 28 24 21 21 23 23 22 24 25 25 25 24
20 21 21 21 22 23 23 23 24 24 24 25 24 23 24 24 24 24 24 25 26 26 29 28 27 34 41 37 33 32 30 28 21 17 20 22 21 22 24 25 25 24
21 21 22 22 22 23 23 23 24 23 24 25 23 23 24 24 23 24 23 25 26 26 29 29 28 37 43 38 33 32 30 29 22 16 16 18 19 22 24 25 24 23
21 22 22 23 23 23 23 23 23 23 23 24 23 22 24 24 24 23 23 25 26 27 29 28 28 37 44 40 34 31 28 27 23 15 12 10 11 14 16 19 21 22
21 21 22 23 23 23 24 25 24 23 23 24 22 21 23 24 24 23 23 26 27 27 29 29 29 36 43 41 36 31 27 25 23 18 14 11 7 2 3 7 13 19
20 21 21 22 23 23 24 25 25 24 24 24 23 22 22 22 23 23 24 27 28 27 29 31 32 36 43 43 38 33 28 25 24 23 21 20 17 12 9 6 8 14
21 21 20 21 22 23 23 24 24 23 24 24 23 22 22 22 22 22 23 26 29 29 30 32 33 37 42 43 40 36 31 26 24 23 21 20 21 20 17 14 14 16

ECMWFNIL_925_spd_087.txt.gz
Wind_Speed
17 17 17 17 17 18 18 18 19 19 19 19 18 17 18 19 18 16 17 16 15 16 16 18 20 20 19 18 19 21 20 21 24 26 26 26 27 29 30 31 30 29
18 18 17 17 18 18 18 18 19 20 20 20 19 18 18 20 20 19 18 18 18 17 17 18 20 21 20 19 20 21 20 20 23 24 24 24 25 27 28 29 30 29
17 18 18 18 18 17 18 19 20 21 21 20 20 20 20 21 21 21 20 19 18 18 18 19 19 20 19 18 19 21 21 21 22 23 24 23 22 24 26 28 28 28
18 18 18 17 17 16 17 19 20 22 22 21 22 22 22 22 22 22 22 20 18 19 19 19 19 19 18 16 17 19 20 21 22 22 22 23 23 23 24 24 25 28
19 19 18 18 18 17 18 18 20 21 22 23 24 23 23 23 24 24 24 22 20 20 19 18 18 17 17 16 15 16 18 21 23 22 22 24 25 25 24 23 24 27
21 20 18 19 20 19 20 20 20 21 21 22 23 24 24 24 24 25 25 23 22 21 19 17 17 16 16 18 18 17 17 19 22 22 21 23 24 24 25 24 24 26
23 22 20 20 22 21 21 22 22 21 21 21 21 22 23 24 24 24 24 24 23 23 21 19 18 17 16 18 20 20 19 19 21 21 21 22 22 23 25 25 23 23
24 24 23 23 25 24 24 24 24 23 23 22 22 22 21 22 24 23 24 24 24 24 23 22 21 20 19 19 20 22 21 21 21 21 22 22 22 23 24 24 22 22
25 26 26 26 27 27 27 26 25 26 25 24 24 23 22 22 23 23 24 23 23 23 23 24 26 24 22 21 20 21 22 23 23 23 22 22 22 23 24 23 23 24
27 27 27 27 28 28 28 28 27 27 27 26 25 25 23 23 23 23 23 22 22 23 23 25 26 23 21 20 20 20 21 21 22 22 22 21 21 22 23 24 25 25
27 27 28 29 29 28 28 28 27 28 27 27 27 26 24 25 25 24 23 23 23 23 23 24 22 20 21 21 21 23 23 21 20 20 21 22 23 24 24 24 25 26
28 27 28 29 28 28 28 27 27 27 27 27 27 27 26 25 25 24 23 23 24 23 23 22 20 22 25 26 26 27 27 25 22 21 21 21 24 26 26 25 26 26
28 27 27 27 27 27 26 27 27 26 26 26 26 26 26 27 26 25 23 23 24 24 24 23 21 25 29 30 30 30 29 28 26 24 23 21 22 24 26 26 26 25
26 25 25 25 26 26 26 27 27 26 25 25 25 25 26 27 28 26 24 23 23 24 25 23 22 26 32 34 34 33 31 30 28 26 25 24 22 23 24 25 25 25
25 24 25 25 25 24 26 27 27 27 26 25 26 25 25 26 27 28 27 25 24 24 25 24 21 26 36 39 37 35 33 31 29 27 27 27 26 24 23 23 23 24
24 25 24 25 25 25 25 26 27 27 27 26 26 26 26 25 27 30 29 27 26 25 25 24 20 27 40 41 35 34 33 31 31 29 27 28 28 25 23 23 23 23
24 25 25 25 25 25 25 25 26 27 27 26 26 27 27 25 26 30 30 29 28 25 26 24 21 29 42 43 36 33 32 31 31 30 27 28 28 25 23 23 22 22
24 25 25 25 25 26 25 25 25 27 28 26 26 28 28 26 26 28 29 30 29 27 27 25 25 34 44 44 38 34 31 30 30 29 27 27 27 25 24 24 23 22
25 25 25 25 25 26 26 25 25 27 27 25 26 28 29 27 27 27 28 29 29 28 28 26 28 38 46 44 40 36 30 27 27 28 27 25 25 24 23 23 23 23
25 26 26 26 26 26 27 26 26 27 27 24 25 28 29 27 27 27 28 29 28 28 29 28 31 40 46 45 43 38 30 26 28 28 26 24 24 23 21 22 24 24
24 25 26 26 26 26 27 27 26 27 27 25 24 26 27 25 26 28 28 29 30 30 29 29 33 41 45 45 45 40 31 27 27 28 25 22 21 20 18 19 21 23
24 25 25 25 26 27 27 27 27 27 27 26 24 25 24 23 25 28 29 29 31 32 31 31 34 40 44 45 45 43 36 30 28 27 27 25 23 21 19 17 18 19
23 25 25 25 27 29 28 27 27 27 26 25 24 25 24 23 23 26 28 29 30 32 32 31 34 39 42 43 44 43 40 36 30 27 28 29 27 24 22 20 18 18
22 25 25 25 27 29 28 27 26 26 25 24 23 23 23 22 21 23 26 28 28 30 31 31 33 37 40 40 41 41 40 39 34 29 29 31 30 28 26 23 20 18
22 24 25 25 26 28 28 26 26 25 25 24 23 22 22 22 20 21 24 27 28 29 31 32 34 36 39 38 38 38 38 37 36 33 31 32 32 31 31 31 27 22
23 23 24 24 25 27 27 25 25 25 25 25 25 24 23 23 21 21 22 25 27 29 31 32 34 36 38 37 36 36 35 35 35 35 32 31 31 31 33 35 35 33

ECMWFNIL_925_spd_090.txt.gz
Wind_Speed
12 11 11 11 11 13 14 15 15 14 14 15 15 15 15 15 16 15 15 16 16 15 16 17 17 19 21 20 19 20 21 22 24 23 21 20 21 21 23 26 28 27
11 11 11 11 12 13 14 14 15 15 15 15 16 15 15 16 17 16 16 16 16 15 15 17 18 18 19 20 20 20 21 21 22 22 21 22 23 22 22 23 26 27
13 14 14 15 15 15 16 15 15 16 16 16 16 16 16 16 17 16 16 17 17 16 15 16 18 18 18 18 19 19 20 20 20 20 20 21 23 23 23 22 22 24
15 14 15 15 15 16 17 17 17 17 17 17 16 16 16 16 16 15 16 17 18 18 17 16 17 18 17 18 19 20 19 18 18 19 19 21 22 22 21 20 20 21
16 16 17 16 15 16 18 19 19 19 18 17 16 16 16 16 15 15 16 17 18 18 19 18 19 18 17 17 18 19 20 19 18 18 18 19 20 22 22 20 19 20
19 20 21 21 20 19 20 21 20 19 19 18 16 15 16 16 15 16 17 17 18 18 19 19 18 18 18 17 17 17 18 18 19 19 19 19 19 21 22 21 20 20
22 22 22 22 22 21 21 21 21 20 20 19 18 17 17 17 16 17 17 17 17 17 18 17 17 18 19 19 18 18 17 17 18 18 18 19 19 20 20 20 21 21
23 22 22 22 22 22 22 21 21 20 21 21 21 20 20 19 18 18 18 18 17 17 17 16 17 20 21 21 21 21 20 19 19 19 19 19 18 20 21 21 22 23
24 23 23 23 22 21 20 20 20 19 20 21 22 22 22 21 20 19 19 19 18 18 18 17 20 23 23 24 24 24 24 23 22 21 21 20 19 19 21 22 23 23
24 23 23 23 22 21 20 19 19 19 19 20 21 23 23 23 22 19 19 20 20 20 19 18 22 26 25 25 25 26 26 25 24 23 22 21 20 20 20 21 23 24
22 22 22 23 22 22 22 20 20 20 20 20 21 22 23 24 24 21 19 20 20 20 20 18 21 27 28 29 29 28 27 26 25 24 23 22 22 21 20 20 21 23
21 21 21 22 23 24 24 22 21 21 21 21 20 21 23 25 25 22 20 19 19 20 19 18 20 25 30 33 34 32 30 29 27 26 25 23 23 22 22 21 20 21
21 21 20 21 22 25 25 24 23 22 21 21 21 20 22 25 26 23 21 19 19 19 19 18 19 23 30 36 37 35 33 31 29 28 27 26 25 24 24 24 22 21
21 21 21 21 21 23 25 24 24 24 23 23 23 21 21 23 24 23 21 19 18 18 18 18 19 24 31 37 38 37 34 32 30 29 28 27 27 26 26 26 25 23
21 20 21 21 20 22 24 24 23 25 25 25 25 23 21 21 22 23 23 20 18 19 19 18 20 27 33 36 36 36 35 31 29 28 27 27 27 27 26 26 26 25
22 21 21 21 21 21 22 22 22 23 26 26 26 25 23 22 23 25 25 23 21 20 19 20 24 31 36 36 36 36 34 29 26 26 27 28 28 28 28 27 26 25
23 22 22 22 22 21 21 21 20 21 23 25 26 26 26 25 26 27 27 26 24 22 21 22 27 34 38 38 39 38 34 29 25 25 27 28 28 29 29 28 28 27
23 22 23 23 23 23 23 23 22 20 21 23 24 25 26 27 27 28 27 27 26 25 24 24 27 34 38 38 38 38 36 33 28 24 25 26 26 26 27 27 27 27
23 23 24 24 24 24 24 24 24 23 22 22 21 22 24 26 27 27 27 28 28 28 27 26 29 35 38 37 37 37 36 35 31 26 24 25 27 25 25 25 25 25
25 25 25 25 25 25 24 24 24 24 23 21 20 20 22 25 27 27 27 28 29 29 29 29 31 36 38 37 37 37 35 33 32 30 27 27 28 26 25 25 26 25
26 26 27 26 26 26 26 25 24 23 22 21 20 20 21 22 25 26 27 29 30 30 31 31 33 36 38 37 37 37 36 33 32 33 31 30 30 29 27 28 28 27
27 27 27 27 27 27 27 26 25 24 23 21 21 21 20 21 23 25 26 28 30 31 32 33 34 36 37 37 37 37 37 35 33 32 33 33 33 31 30 30 30 29
27 27 27 27 27 27 27 26 26 25 24 23 22 22 22 22 23 24 25 27 29 31 32 32 34 36 36 36 37 37 37 36 34 32 33 34 34 33 31 31 31 30
26 27 26 26 26 26 26 25 25 24 24 24 24 23 24 24 24 25 25 27 28 29 30 32 33 36 37 36 36 37 37 36 34 33 33 33 34 34 32 32 34 35
24 25 24 24 24 24 24 23 24 23 23 24 24 24 25 26 26 27 27 27 28 28 30 32 33 35 37 37 36 36 36 36 34 33 33 32 32 34 35 35 37 38
21 23 23 24 23 23 23 22 23 23 24 25 25 25 26 27 28 29 28 28 29 30 31 32 33 36 39 39 37 35 35 35 34 33 32 31 30 32 35 37 38 40

ECMWFNIL_925_spd_096.txt.gz
Wind_Speed
15 15 15 16 16 17 16 16 15 15 15 14 14 14 13 13 12 11 11 11 11 11 11 12 12 12 13 13 13 12 12 11 11 12 13 13 13 14 15 15 17 18
16 16 16 17 17 17 17 16 15 15 15 15 14 13 13 13 13 12 11 11 11 11 12 12 14 15 15 15 15 16 16 15 14 14 14 13 13 13 13 14 15 17
17 17 17 17 17 17 16 15 15 16 16 15 14 14 14 13 13 12 12 12 11 12 13 14 16 17 18 19 20 21 20 19 18 18 17 16 16 15 14 14 14 15
17 17 17 17 17 17 16 16 17 19 19 18 17 15 14 14 14 13 13 14 13 13 15 17 18 20 20 21 21 22 22 22 21 21 21 20 19 18 17 16 15 15
16 16 16 16 16 16 17 18 19 20 21 21 18 17 16 15 16 15 14 15 15 15 18 19 19 19 19 20 20 20 21 21 21 21 22 22 21 20 20 19 19 17
15 15 15 15 16 16 17 19 18 18 20 20 18 17 17 17 17 16 16 16 16 17 18 20 20 20 21 22 22 23 23 23 23 23 23 23 22 21 21 21 21 21
16 16 16 15 16 16 17 17 17 17 18 20 19 17 17 17 17 17 17 17 18 18 19 22 24 24 26 27 26 26 26 25 25 25 24 24 24 24 23 23 23 22
18 17 16 15 15 16 16 16 16 16 17 20 20 19 17 17 17 17 17 17 18 18 19 23 25 26 28 28 27 28 28 26 26 25 25 24 24 25 24 24 24 23
19 18 17 16 16 16 16 16 15 16 17 20 21 21 20 18 17 17 17 17 18 18 19 21 23 26 30 30 27 27 28 27 26 24 24 24 24 24 24 24 24 23
19 18 19 19 19 18 17 17 16 16 19 22 23 24 23 20 17 17 17 18 18 19 20 21 23 26 30 31 29 28 27 27 26 24 23 22 23 24 24 24 24 23
18 18 20 21 21 21 21 20 20 20 22 24 25 26 26 24 20 18 18 18 19 19 19 21 25 28 31 32 32 30 29 27 26 25 23 22 22 23 23 23 24 24
16 17 19 20 21 22 23 23 24 24 24 25 25 26 26 26 25 22 20 20 20 20 20 23 27 30 32 33 33 32 31 29 27 26 24 22 22 23 23 23 23 23
14 15 16 18 19 19 20 22 24 25 25 25 25 26 26 26 26 25 24 24 24 24 24 26 29 31 33 34 34 33 32 30 28 26 24 23 22 22 22 22 23 22
13 13 14 15 16 16 17 19 21 23 24 25 25 26 27 27 26 26 26 26 26 26 26 28 30 32 34 34 34 33 32 31 29 25 23 23 22 21 21 21 22 22
12 13 13 13 14 15 16 17 19 20 22 23 25 26 26 26 26 26 26 27 27 27 27 29 31 33 34 34 34 33 31 30 28 25 22 22 21 21 23 23 23 22
13 14 14 14 14 15 16 18 18 20 21 23 24 25 25 26 26 27 27 27 28 28 28 29 31 33 33 33 33 32 30 29 27 24 22 21 21 22 25 25 24 24
14 14 14 14 15 16 17 18 19 21 22 23 24 25 25 26 26 27 28 28 28 28 28 28 31 33 34 34 33 32 31 29 27 25 22 20 20 22 23 24 25 26
15 15 15 16 17 18 18 19 20 22 23 24 25 25 25 26 27 28 28 28 28 29 28 28 31 33 34 34 34 33 32 30 28 26 23 22 22 22 21 22 24 26
17 17 18 18 19 19 19 21 22 23 24 25 26 26 27 27 28 28 28 28 29 30 29 29 30 33 34 34 35 34 33 32 30 28 26 25 25 23 21 21 24 26
19 20 20 20 20 21 22 23 24 24 25 25 26 27 27 28 28 28 28 28 28 29 30 29 31 33 34 34 35 35 34 34 32 30 29 28 27 25 21 20 23 25
20 21 21 21 21 22 23 24 24 24 24 24 25 26 26 26 27 27 28 28 28 29 30 31 31 33 34 34 35 36 35 35 34 33 32 32 30 28 23 21 23 24
20 21 21 21 21 22 23 23 23 23 22 22 24 25 25 26 26 27 27 27 28 29 30 31 31 32 33 34 34 35 36 36 35 33 32 31 31 29 24 22 24 25
19 20 21 21 21 22 22 21 21 21 21 21 23 25 26 26 26 26 27 27 28 29 29 30 31 32 33 34 35 36 36 35 33 31 30 28 28 27 24 25 26 26
18 19 19 19 19 19 19 19 20 20 20 20 22 24 25 25 25 25 26 27 28 28 28 29 31 32 33 34 35 36 36 34 30 28 28 27 26 25 25 27 31 31
17 17 17 17 17 17 17 18 19 19 20 20 21 22 24 25 25 26 26 26 27 28 30 30 31 33 33 34 35 35 36 35 30 27 28 27 25 25 27 30 34 36
15 15 15 15 14 14 15 16 17 18 19 20 20 21 22 24 26 26 26 26 26 28 30 31 31 32 33 33 34 34 35 35 31 27 26 26 25 25 27 31 36 38

ECMWFNIL_925_spd_099.txt.gz
Wind_Speed
19 18 17 17 16 15 13 11 10 10 9 9 8 8 8 9 9 9 8 8 9 11 14 14 13 14 14 15 16 16 16 17 16 15 15 15 15 15 15 15 15 15
16 15 15 15 14 14 13 13 13 12 11 10 9 8 8 9 10 9 9 9 9 11 14 14 14 14 13 13 14 14 15 16 16 16 16 16 16 16 16 16 15 15
13 13 13 13 13 13 13 14 15 14 12 11 10 10 9 10 10 10 10 10 10 13 14 13 13 13 12 13 12 11 12 12 14 14 13 13 13 14 14 14 14 15
13 12 12 13 13 13 13 14 15 15 13 12 12 12 11 11 11 12 12 12 12 14 14 14 14 13 13 13 12 12 12 12 13 13 12 11 12 12 12 12 13 14
13 13 13 13 13 13 14 14 15 15 14 13 12 12 13 13 13 13 14 14 14 14 15 17 17 15 15 15 13 12 13 12 13 14 13 12 12 12 12 12 14 14
15 15 15 14 14 14 15 15 15 15 14 13 13 13 13 13 14 14 14 14 14 15 16 17 18 18 18 16 14 13 13 13 14 14 14 13 13 13 13 14 15 15
17 16 16 15 14 14 16 16 15 15 13 12 13 13 13 13 13 13 14 14 14 16 17 18 19 20 20 18 15 15 14 13 14 14 14 14 14 15 15 15 16 16
19 18 17 16 16 16 17 16 16 17 17 15 14 13 13 14 14 14 14 15 15 15 17 18 19 20 21 19 17 17 16 15 14 14 14 14 15 15 16 16 16 17
20 21 21 21 20 20 19 18 18 20 22 22 19 16 14 14 15 15 15 15 15 16 17 18 19 20 21 20 18 18 18 16 16 15 14 15 15 15 16 16 17 17
20 20 21 22 22 22 22 21 21 21 23 23 22 20 18 16 16 17 17 17 16 17 17 18 19 19 20 20 19 18 18 17 17 15 14 14 15 15 15 16 17 18
18 18 19 18 19 20 21 23 23 22 22 22 22 22 21 19 19 20 20 18 17 17 18 18 19 20 20 20 20 19 17 17 17 15 14 14 14 14 16 16 17 17
17 17 17 17 16 16 18 21 23 22 22 22 22 22 22 21 21 21 20 19 18 18 18 18 20 21 21 21 21 20 18 17 17 16 15 14 14 14 16 16 17 17
16 17 16 16 16 17 17 19 21 21 21 20 21 22 22 21 21 21 21 20 18 18 18 19 20 22 22 22 22 20 18 17 17 16 16 15 15 15 16 16 17 17
16 17 17 17 18 19 19 19 20 21 21 20 21 22 21 21 20 20 19 19 18 17 17 18 20 22 24 25 23 20 17 16 16 16 16 16 16 17 16 16 17 17
17 18 18 19 19 20 21 21 22 22 22 22 22 22 22 21 20 18 18 18 17 17 17 18 19 23 27 29 27 23 18 15 16 16 16 17 17 18 17 16 17 18
18 18 19 20 21 22 22 23 23 24 23 23 23 22 22 21 19 18 17 17 17 17 17 18 19 24 29 29 29 27 20 15 16 17 16 17 18 19 19 18 18 19
19 20 21 22 22 23 23 23 23 24 23 23 23 23 23 22 20 18 17 17 17 17 17 17 20 26 30 29 30 30 23 16 16 18 18 18 19 19 19 19 20 21
21 22 22 22 22 23 23 23 23 24 24 23 23 23 22 23 22 19 17 17 16 17 17 16 20 27 31 30 31 31 25 17 16 19 20 20 20 19 18 19 20 21
23 23 23 22 23 23 23 23 24 24 24 23 22 22 22 23 22 19 17 17 16 16 17 16 21 28 31 31 32 32 28 20 17 20 21 20 20 19 18 19 20 21
23 23 22 22 22 22 23 23 24 23 22 21 21 21 21 22 21 19 18 17 16 16 15 17 24 30 30 30 32 32 29 22 18 20 20 20 19 18 18 19 19 21
23 23 23 22 21 21 21 22 22 22 22 20 20 20 20 19 19 19 19 18 17 17 16 17 24 30 31 30 31 32 28 21 17 19 20 19 18 18 19 18 18 20
23 23 22 21 20 20 20 20 21 22 23 22 20 20 20 18 18 19 19 19 17 17 16 16 22 29 31 30 32 32 26 20 18 19 20 19 18 19 19 18 19 21
22 22 22 20 19 19 18 19 20 21 23 23 21 20 20 19 18 17 18 19 18 18 17 16 20 28 32 31 32 31 24 19 19 19 20 19 19 19 20 19 20 22
21 21 20 19 18 18 18 18 19 20 22 24 22 20 20 19 17 16 17 18 19 19 18 16 18 25 31 31 31 32 25 19 20 20 19 19 20 20 21 20 21 22
19 19 18 17 17 17 17 18 19 19 21 23 23 20 19 18 17 17 16 17 19 19 19 18 18 23 30 31 30 32 27 20 20 20 19 19 21 22 22 22 23 23
17 17 16 15 15 16 17 17 18 19 20 22 23 20 19 19 19 17 16 16 18 19 20 21 19 22 28 30 29 31 28 22 20 20 19 19 21 22 22 23 25 25

ECMWFNIL_925_spd_102.txt.gz
Wind_Speed
10 9 8 7 7 6 6 5 5 5 6 6 6 6 6 7 7 8 8 9 10 10 11 11 11 11 12 12 12 10 10 11 11 11 11 12 12 12 12 13 13 14
10 9 8 8 7 7 7 7 7 7 7 7 7 6 7 8 8 9 9 10 11 12 12 13 13 14 14 14 13 11 10 11 12 12 13 13 12 12 13 13 13 13
10 10 9 9 8 8 8 8 8 8 8 8 8 8 8 9 10 10 11 11 11 12 13 14 15 14 14 14 13 11 11 11 12 14 14 13 13 13 14 13 13 14
10 10 10 10 9 9 8 8 9 9 9 10 10 10 10 10 11 11 11 11 12 13 13 14 15 15 14 14 13 12 11 11 12 13 13 13 13 13 14 14 14 15
11 11 10 10 10 9 9 10 10 10 10 10 10 11 11 11 11 11 11 11 12 13 13 14 15 15 14 14 13 13 12 11 12 13 13 13 13 14 14 14 15 16
12 11 11 11 11 10 11 11 11 10 10 10 11 11 11 11 11 11 11 12 12 13 13 14 15 15 15 14 13 13 13 12 12 13 13 13 14 14 14 15 15 16
12 12 12 12 12 12 12 12 12 11 11 11 11 11 11 11 11 11 11 12 13 13 14 15 15 15 15 14 14 14 13 12 13 14 14 14 14 15 15 15 16 17
13 13 13 12 13 13 14 13 13 12 11 11 12 12 12 12 12 12 12 12 13 13 14 15 15 15 15 15 15 15 14 13 14 14 15 15 15 16 17 17 17 18
14 14 14 13 14 14 13 13 12 12 11 11 12 12 12 12 12 12 12 12 13 14 14 15 15 15 15 15 15 15 14 14 14 14 15 15 16 17 18 18 18 18
13 13 13 14 14 13 13 12 12 12 12 12 12 12 12 12 12 12 12 12 13 14 15 15 16 16 16 16 15 15 14 14 14 14 14 15 16 17 18 18 18 18
13 13 13 14 13 13 12 12 12 12 12 12 12 12 12 11 11 12 12 13 13 14 15 16 17 17 18 17 17 15 14 13 14 14 15 15 16 17 17 18 18 18
13 13 13 13 12 12 12 12 12 11 11 11 11 11 11 11 12 12 13 13 13 14 15 16 17 18 19 18 17 15 14 13 13 14 15 15 16 17 17 17 18 18
12 12 12 12 12 11 11 11 11 11 11 11 11 11 11 12 12 13 13 13 13 14 15 16 17 19 21 21 19 16 14 13 13 14 14 15 16 17 17 17 18 17
12 11 11 11 12 11 11 11 11 11 11 11 11 11 12 12 12 12 12 13 13 14 15 17 18 21 23 23 21 17 14 12 12 13 14 15 16 18 17 18 18 17
12 11 12 12 12 12 11 11 11 11 11 12 12 12 12 12 12 12 12 13 13 13 15 17 19 23 25 25 22 17 13 12 13 14 15 15 17 18 18 17 18 18
12 12 12 12 12 12 11 11 11 11 11 12 12 12 12 12 12 12 12 12 13 13 14 16 20 25 26 24 22 17 12 12 13 13 15 15 17 18 18 18 19 19
13 13 13 13 12 12 11 11 11 11 12 12 13 13 12 12 12 12 12 12 12 13 14 15 20 25 26 25 22 17 12 11 12 13 14 15 18 19 19 20 21 21
13 13 13 13 13 12 12 11 12 12 13 12 13 13 12 13 12 12 12 11 11 12 14 16 21 25 26 26 23 18 16 12 12 14 14 16 18 19 19 21 21 22
13 13 13 13 13 12 12 12 13 13 12 12 12 12 12 13 13 12 12 11 10 11 13 16 23 25 26 27 24 19 18 15 13 14 15 16 19 19 19 21 21 23
14 14 13 13 13 13 13 13 13 13 12 11 12 12 12 12 12 12 12 11 10 11 11 15 23 26 26 28 25 20 17 16 14 14 15 16 18 19 19 20 21 23
14 14 14 14 14 14 14 14 13 12 12 12 12 12 12 12 11 11 11 11 11 11 11 14 22 26 26 28 27 20 16 15 13 14 16 17 18 19 19 19 21 22
14 14 14 14 14 14 14 14 13 12 12 12 12 12 11 11 11 11 11 12 11 11 11 12 19 26 26 27 28 22 17 15 13 13 16 17 18 20 19 19 21 22
14 14 14 14 14 14 13 13 13 12 12 12 12 12 11 11 11 10 11 12 12 13 12 12 17 24 26 26 28 25 18 16 15 14 15 17 19 20 20 20 21 20
14 14 14 14 14 13 13 12 12 12 12 12 12 12 11 11 11 11 11 11 12 14 14 13 15 21 25 26 28 27 21 16 16 15 16 18 20 20 20 21 21 20
14 14 14 13 13 12 12 12 12 12 12 12 12 12 12 11 11 11 11 11 11 12 14 15 15 18 24 26 27 28 24 18 16 16 16 19 20 20 20 21 22 21
13 13 13 13 12 11 11 11 12 12 11 12 12 12 12 11 11 11 11 11 10 10 11 14 15 16 21 25 27 28 26 21 17 16 17 19 20 20 20 21 22 22

ECMWFNIL_925_spd_105.txt.gz
Wind_Speed
11 10 9 9 9 9 9 8 8 8 8 8 7 7 7 8 8 9 9 9 9 10 10 10 10 10 10 10 10 10 9 10 11 11 11 11 11 11 12 13 13 13
11 10 10 10 10 10 10 10 10 9 9 9 8 8 8 8 9 9 9 8 9 9 10 10 11 11 11 11 11 10 10 11 11 11 11 12 11 12 13 13 13 14
12 12 11 11 11 11 11 11 10 10 10 9 9 8 8 8 8 8 8 8 9 9 10 11 11 11 11 11 11 10 10 10 12 13 12 11 12 12 13 13 13 14
13 12 12 12 12 11 11 11 10 10 10 9 9 8 8 8 8 8 8 9 9 10 11 12 12 12 12 11 11 10 10 10 12 13 12 11 12 12 12 13 13 14
12 12 12 12 12 11 11 11 11 10 10 9 9 9 8 8 8 8 8 9 10 10 11 12 12 12 12 12 11 11 11 11 12 13 12 11 12 12 13 13 14 14
12 12 12 12 12 12 12 11 10 10 10 9 9 8 8 8 8 9 9 10 10 11 11 12 13 12 12 12 12 12 12 11 13 13 12 12 12 13 13 13 14 15
13 13 13 13 13 12 12 11 11 10 10 9 9 9 9 9 9 9 10 10 11 12 12 12 13 13 13 12 12 13 12 12 13 13 13 13 13 13 14 14 14 15
13 13 13 13 13 13 12 11 11 10 9 9 9 9 9 9 9 9 10 11 11 12 13 13 13 13 13 13 13 13 12 12 13 13 13 13 13 14 15 15 15 15
13 13 13 13 13 13 12 11 11 10 9 9 9 9 9 10 10 10 10 11 12 13 13 14 14 14 14 13 13 13 12 12 13 13 13 13 14 15 15 15 15 16
13 13 13 13 12 12 12 11 11 10 10 9 9 9 9 9 10 10 10 11 12 13 13 14 15 15 15 14 14 13 12 12 12 13 13 13 14 14 15 15 16 16
13 13 13 13 12 12 11 11 10 10 10 9 9 9 9 9 9 9 10 12 12 13 14 15 16 16 16 15 15 13 12 11 12 13 13 13 14 14 15 16 16 17
14 13 12 12 12 11 11 10 10 10 9 9 9 9 10 10 9 10 10 12 13 13 14 15 16 17 18 17 15 13 12 11 12 12 12 12 13 14 15 16 16 16
13 12 12 11 11 10 10 10 10 10 10 10 9 9 9 9 9 10 10 11 13 14 15 16 17 20 20 19 15 13 12 12 12 12 12 12 13 14 15 15 16 16
12 12 12 11 11 11 11 10 10 10 10 10 9 9 9 9 9 9 10 11 12 13 15 16 18 22 22 20 17 13 12 11 12 12 12 13 13 14 14 15 16 16
12 12 12 11 11 11 11 11 10 10 10 10 9 9 9 8 9 9 10 11 12 13 14 16 20 23 22 18 17 14 11 10 11 12 12 13 13 14 14 15 17 17
13 12 12 12 11 11 11 10 10 10 10 10 10 9 9 9 8 9 10 11 13 14 14 16 21 25 20 15 14 13 11 10 10 12 12 13 14 14 15 16 17 17
13 13 12 12 12 11 11 10 10 10 10 10 10 9 8 8 9 9 10 11 12 14 14 16 21 24 20 15 13 12 11 10 10 11 12 12 14 15 15 17 18 18
13 13 13 12 12 12 11 11 10 9 9 9 9 9 8 8 9 9 9 9 10 13 15 17 21 23 20 16 13 13 13 12 11 11 11 12 14 15 16 17 18 20
13 14 13 13 12 12 11 11 9 8 8 8 9 9 9 9 9 9 8 8 9 11 14 18 22 23 21 16 12 12 13 12 11 10 10 12 14 15 16 17 18 20
15 14 13 13 12 11 11 10 9 7 7 7 7 8 8 9 9 9 8 8 8 9 12 17 22 23 22 18 13 11 12 12 10 10 10 12 14 14 16 17 17 20
15 14 13 13 12 11 11 10 8 8 7 7 7 7 8 8 9 9 9 8 8 9 10 15 21 22 22 21 15 11 13 12 10 10 11 11 13 14 15 16 17 19
15 14 14 13 12 12 11 9 8 8 7 7 7 8 8 8 8 9 9 9 8 9 9 13 19 22 23 23 19 14 14 14 11 10 11 11 12 14 14 15 16 16
15 14 14 13 12 12 11 9 8 8 8 7 8 8 8 8 8 9 9 10 10 9 9 11 17 22 24 24 22 17 15 15 13 10 11 11 12 13 15 15 14 14
15 14 14 13 12 11 10 9 8 8 8 8 8 8 8 8 8 8 9 9 10 11 10 9 12 20 24 25 25 22 18 15 14 12 11 12 12 13 14 15 14 16
15 14 14 13 12 10 9 9 8 8 7 8 8 8 8 9 9 9 8 8 8 9 10 9 8 14 22 24 24 25 22 16 15 14 12 13 14 13 13 14 15 17
14 14 13 12 11 10 9 8 8 8 8 8 8 8 8 8 8 9 9 8 7 6 7 9 9 11 18 22 22 24 24 19 15 14 15 16 14 14 14 14 16 17

ECMWFNIL_925_spd_108.txt.gz
Wind_Speed
10 10 10 9 9 10 10 9 11 12 11 10 10 10 11 11 11 11 12 12 13 14 14 13 14 14 14 14 14 13 13 14 14 14 15 15 14 14 15 15 16 17
11 10 10 10 10 11 10 10 11 11 11 10 10 11 11 11 11 11 12 12 13 14 14 14 14 14 15 14 14 13 13 14 15 15 14 15 15 15 15 15 15 16
12 11 11 11 12 12 11 10 11 11 11 11 11 11 11 11 11 12 13 13 14 14 15 15 15 15 15 15 14 14 14 15 16 15 14 14 15 15 15 15 15 16
12 12 11 11 11 11 11 11 11 11 11 12 11 11 11 12 12 13 13 14 14 15 15 16 16 16 16 15 15 15 14 15 16 15 14 14 15 15 15 15 16 17
13 12 12 11 11 11 12 12 12 12 12 12 12 12 12 13 13 13 14 14 15 15 16 16 16 16 16 16 16 15 15 15 16 15 15 15 15 16 16 16 17 17
13 13 12 12 12 12 12 12 12 13 13 13 13 13 13 13 14 14 14 15 15 16 16 16 17 17 16 16 15 15 15 15 16 15 15 16 16 16 16 17 17 17
14 14 13 13 13 13 13 13 13 13 13 13 13 14 14 14 14 15 15 15 16 16 17 17 17 17 16 16 15 15 15 15 16 16 16 16 16 16 17 17 17 18
15 14 14 14 14 14 14 14 13 13 13 14 14 14 14 14 14 15 15 16 16 17 17 17 17 16 16 15 15 15 15 15 16 16 16 16 16 17 17 17 18 19
15 15 15 15 15 14 14 14 13 14 13 14 14 14 14 15 15 15 15 16 17 17 17 18 17 16 15 15 14 14 14 14 15 15 15 16 16 17 17 17 18 18
15 15 15 15 15 14 14 14 14 14 14 14 14 14 14 15 15 15 16 16 17 18 18 18 18 16 14 14 13 13 13 14 14 14 14 15 16 16 16 16 17 17
16 16 15 15 15 14 14 14 14 14 14 14 14 14 14 14 15 15 16 17 17 17 17 18 19 17 14 12 11 11 12 13 14 14 14 14 15 15 15 16 16 16
16 15 15 15 14 14 14 14 14 14 14 14 14 15 15 15 15 15 16 16 16 17 18 19 19 18 15 12 10 10 12 12 13 13 14 14 14 14 15 16 16 16
15 14 15 14 14 14 14 14 14 14 14 14 14 14 14 14 15 15 15 15 16 16 19 20 19 18 17 14 11 11 12 12 12 13 13 13 13 14 14 16 16 16
15 14 14 14 14 14 14 14 14 14 14 14 14 14 14 14 14 14 14 15 15 16 19 21 20 18 17 16 14 12 12 12 12 12 13 13 13 13 14 16 16 16
15 15 15 14 14 14 14 14 14 14 14 14 14 14 14 14 14 14 14 14 14 14 17 21 21 18 16 15 14 13 12 12 12 11 12 12 12 12 13 15 15 15
14 15 14 14 14 14 14 14 14 14 15 14 15 14 13 13 14 14 15 15 15 14 16 21 22 18 14 12 11 12 12 12 12 11 10 11 12 12 12 13 15 15
15 15 14 14 14 14 14 14 14 15 15 15 15 14 13 13 13 13 14 14 15 15 17 21 22 18 13 11 10 11 11 11 11 9 9 10 11 11 12 13 13 14
15 15 15 14 14 14 14 15 15 15 15 15 14 14 13 13 12 11 12 12 13 17 20 21 21 18 13 11 11 11 11 11 10 9 8 10 10 10 11 12 13 15
15 15 15 14 15 15 15 15 15 15 15 14 14 13 13 12 11 11 10 10 11 16 20 20 20 18 13 10 9 9 9 9 9 9 8 9 11 11 10 11 13 15
15 16 15 15 15 14 14 14 14 14 14 13 13 13 13 12 11 10 9 9 9 13 19 21 20 19 14 10 9 9 9 9 8 8 7 9 11 12 10 12 14 15
16 16 15 14 14 14 14 14 13 13 13 12 12 12 12 11 11 9 9 9 8 9 17 22 22 20 15 12 10 10 11 11 9 8 8 8 11 11 10 13 14 13
16 16 16 15 14 14 14 14 14 13 13 13 12 12 11 11 10 9 9 9 8 7 12 18 22 22 17 14 12 11 13 14 11 10 10 10 11 10 8 11 13 12
16 16 16 15 15 15 14 14 13 13 12 12 12 11 11 10 10 10 9 9 8 5 7 11 17 21 19 17 15 13 14 16 14 12 12 13 13 11 7 9 11 10
16 16 16 16 15 15 14 14 13 13 12 11 11 11 10 10 10 9 9 10 9 8 6 5 10 17 19 19 19 17 15 16 15 15 14 14 15 14 10 9 9 11
17 17 16 16 15 14 14 13 13 12 12 11 11 10 10 9 8 7 7 6 6 8 9 6 5 12 17 18 21 21 19 16 16 17 17 15 16 17 14 11 12 15
17 17 16 16 15 14 13 12 11 11 10 10 10 10 10 9 8 7 6 4 4 4 6 7 5 9 15 17 18 21 21 18 16 18 18 17 17 17 16 15 15 17

ECMWFNIL_925_spd_111.txt.gz
Wind_Speed
18 18 19 19 18 17 16 16 16 14 13 13 14 14 13 13 13 13 13 14 14 14 15 16 15 15 15 15 16 16 17 18 18 17 18 20 19 19 20 20 20 20
17 16 17 17 16 15 14 14 13 13 14 14 14 13 11 11 12 13 14 14 14 15 16 16 16 15 15 15 16 17 18 19 18 18 18 19 19 19 20 22 22 23
16 15 14 14 14 14 13 12 11 13 14 14 13 13 12 12 13 13 14 14 15 15 16 17 16 16 16 16 16 17 18 19 18 17 19 20 20 20 20 22 24 24
16 15 14 13 12 12 12 12 13 13 13 13 13 14 13 13 13 14 15 15 15 14 15 16 17 17 17 17 17 18 18 19 18 18 20 21 20 21 22 23 25 25
17 16 15 15 13 14 15 15 15 13 13 14 15 14 14 14 14 14 14 15 15 14 14 15 16 17 18 18 18 18 18 19 19 19 21 21 21 22 23 24 25 26
16 15 15 15 16 17 18 17 16 15 16 16 15 14 14 14 14 14 14 13 14 14 14 15 16 17 18 19 19 19 19 20 19 19 21 22 21 22 22 23 25 26
17 17 16 17 17 17 18 18 17 17 16 16 16 16 15 14 14 14 13 12 12 12 13 14 15 17 18 19 19 19 18 19 19 19 21 21 21 21 22 22 24 25
19 19 19 18 18 18 19 19 18 17 17 17 17 16 16 16 15 14 13 12 13 13 12 13 14 16 17 18 19 18 18 18 18 19 20 20 20 21 21 21 23 24
20 20 20 20 19 19 19 18 18 18 17 18 17 16 15 16 15 13 13 14 15 15 14 13 14 15 16 17 18 18 17 18 18 18 19 19 20 21 21 21 23 24
20 21 21 21 19 19 19 19 19 18 17 17 17 16 15 14 13 13 14 16 17 18 17 15 14 15 15 16 17 17 18 18 17 17 17 18 20 21 21 21 23 24
21 21 21 21 20 19 19 19 19 18 18 17 18 18 17 15 14 14 16 18 18 18 18 16 14 14 14 15 15 16 18 18 17 16 16 17 19 20 20 20 22 23
22 21 21 21 21 20 20 19 18 17 17 17 18 18 17 15 15 16 17 18 18 18 18 17 14 13 13 14 15 16 17 18 17 15 15 16 17 18 18 19 20 20
22 21 21 21 21 21 20 20 19 18 18 17 16 16 15 15 15 16 17 18 18 18 17 17 15 14 13 14 15 15 15 16 16 15 14 16 17 17 18 19 19 18
23 22 21 21 21 21 21 21 21 20 20 19 18 18 18 16 15 15 16 18 18 17 17 16 16 15 14 14 14 14 14 14 15 14 13 14 15 15 17 20 19 17
24 23 22 21 21 21 21 21 21 21 21 20 21 21 19 16 15 15 16 17 18 17 16 15 15 15 14 13 13 13 13 13 14 14 13 12 13 13 16 19 18 15
24 24 23 23 22 22 22 22 21 21 21 21 21 20 17 15 16 17 17 17 17 17 16 15 14 13 11 11 11 12 12 12 13 14 13 11 11 12 15 17 15 15
25 25 24 24 23 23 23 23 22 21 21 21 21 19 16 14 15 17 18 17 17 17 17 15 13 11 10 10 10 11 11 11 13 14 14 12 10 11 15 15 15 18
26 26 25 24 23 23 23 23 23 22 20 20 20 18 16 14 14 15 17 17 17 18 18 15 12 10 10 10 10 11 11 12 12 12 13 13 11 11 13 14 16 20
27 27 26 24 23 23 23 23 23 22 20 19 19 18 17 15 14 13 15 16 17 18 18 17 14 10 9 9 10 10 11 10 11 10 11 13 10 8 11 14 16 21
28 27 26 25 24 24 24 24 23 21 20 19 18 18 17 16 13 11 12 15 18 20 19 18 16 12 9 9 10 10 9 9 11 11 11 13 9 6 9 13 15 21
26 27 27 26 25 24 24 24 22 21 20 18 17 17 17 16 13 11 10 11 14 18 20 20 18 14 11 10 9 9 8 8 10 10 11 15 12 6 8 13 14 19
27 28 27 26 25 24 23 22 21 21 20 18 17 17 16 15 14 12 10 9 10 14 18 20 19 15 13 12 11 10 8 8 8 8 10 15 15 8 6 10 14 18
28 28 27 26 25 24 23 22 21 20 19 18 17 17 16 15 14 12 9 8 9 12 15 18 18 16 15 15 14 14 13 12 10 9 9 12 16 13 7 6 12 18
28 27 27 26 25 24 23 22 21 20 18 17 17 17 17 16 15 14 12 11 12 12 13 16 17 16 15 16 17 18 18 18 14 11 10 10 13 16 13 9 12 17
27 27 27 26 25 24 23 21 20 19 18 16 16 16 16 14 12 12 12 13 13 12 12 14 16 16 14 15 18 19 19 19 17 14 13 12 12 15 16 14 13 13
27 27 26 25 25 24 22 21 21 20 19 18 17 16 14 12 10 9 9 9 9 9 11 12 13 15 15 14 16 17 17 18 17 16 16 14 12 14 15 14 12 14

ECMWFNIL_925_spd_114.txt.gz
Wind_Speed
24 24 24 23 23 22 21 19 18 18 18 17 17 16 15 14 13 13 14 15 15 16 16 16 16 16 17 17 17 18 19 20 20 19 20 22 23 22 23 23 22 21
24 24 24 24 23 22 19 18 18 18 18 17 16 16 15 14 14 13 14 15 16 16 16 16 16 16 17 18 18 19 20 20 21 20 21 23 22 23 23 23 22 22
24 23 23 23 23 21 19 18 18 17 17 17 16 15 15 15 14 14 15 15 16 18 17 17 18 17 18 18 19 20 21 21 21 20 22 23 22 23 23 22 23 24
23 22 22 22 21 20 20 20 19 18 18 17 16 16 16 15 15 15 15 16 17 19 19 19 19 19 19 19 19 21 21 21 20 19 21 23 22 23 23 23 25 25
21 21 20 20 19 20 20 20 20 20 20 19 18 17 16 15 14 14 15 16 17 19 20 20 20 20 20 20 20 21 21 21 20 19 21 23 22 22 22 23 25 25
19 18 17 17 19 20 20 21 22 22 21 20 19 17 16 15 14 14 14 16 17 19 20 21 21 21 21 21 21 21 20 21 19 19 21 22 22 21 21 23 25 25
17 15 17 20 21 22 23 24 23 22 22 21 20 18 16 14 13 12 13 15 17 18 19 20 21 21 21 20 21 21 20 20 19 20 21 21 21 21 21 23 25 25
18 19 22 24 24 24 25 25 24 23 23 22 20 18 15 13 12 12 12 14 17 18 19 20 20 20 20 20 22 22 20 19 18 19 20 20 20 20 20 21 24 24
21 22 23 23 24 25 25 25 25 24 22 21 20 17 14 13 13 14 14 16 18 19 19 19 19 19 20 21 21 21 20 19 17 18 18 18 19 19 18 19 22 23
22 22 23 24 25 25 25 25 25 24 22 21 19 17 15 15 15 15 16 17 19 20 19 19 19 19 19 20 20 20 19 18 17 17 17 17 17 17 17 17 19 21
24 25 25 25 25 25 25 25 24 23 23 20 18 17 17 17 17 16 17 18 19 20 19 18 18 18 18 19 19 19 18 17 17 16 15 16 16 16 15 15 17 18
26 25 24 24 25 25 25 24 24 24 22 19 18 18 18 18 17 17 17 18 19 19 19 18 18 17 18 18 18 18 17 16 15 14 14 14 15 15 13 13 15 16
25 24 24 25 25 25 24 24 24 23 21 19 17 17 18 18 18 18 18 18 19 19 18 18 17 17 17 17 16 16 15 14 13 12 11 13 14 13 11 12 15 16
25 25 25 25 26 25 25 25 24 22 21 19 17 17 17 17 17 18 18 18 18 18 18 17 17 16 16 16 15 14 13 12 11 9 9 11 13 12 10 12 15 16
25 25 25 25 26 25 25 25 24 23 21 18 17 17 17 17 17 17 17 18 18 18 17 17 16 16 15 15 14 13 12 11 10 8 8 10 11 10 10 13 15 15
25 25 26 26 26 25 25 26 25 24 21 19 18 18 18 17 17 16 16 17 17 17 17 16 16 15 14 13 12 11 10 11 9 8 8 9 10 10 11 14 15 14
25 26 26 26 26 26 26 27 26 24 22 21 20 19 18 17 17 17 17 16 16 16 16 16 15 13 12 11 11 10 10 9 8 8 9 8 8 10 13 15 14 13
26 27 27 27 27 26 26 27 27 25 24 22 21 19 18 18 17 17 17 15 15 15 15 15 13 11 10 10 10 9 8 6 5 8 10 8 7 10 13 15 15 13
27 27 27 27 27 26 27 27 27 25 24 22 20 19 18 18 18 18 17 16 15 15 14 13 12 10 9 9 9 8 6 4 5 8 9 8 7 9 13 15 16 15
27 27 28 28 28 27 27 26 26 25 23 22 20 19 19 19 19 19 18 17 15 15 14 12 11 9 8 8 8 6 5 6 7 9 9 8 7 8 10 14 16 16
29 29 29 29 28 27 27 26 26 24 23 22 20 19 18 18 18 19 19 18 16 14 14 12 10 8 7 7 7 6 5 7 8 9 8 8 6 5 6 10 14 15
30 30 29 29 28 27 27 26 26 25 24 22 20 19 18 17 16 16 18 18 16 14 13 13 10 8 7 6 6 6 6 6 9 10 10 8 5 3 2 7 12 14
31 30 29 29 29 28 28 27 26 25 24 22 21 21 19 16 15 15 16 16 16 14 13 13 12 10 9 8 7 7 7 8 9 11 12 10 8 5 4 5 9 12
31 30 30 30 30 29 28 27 26 25 24 22 22 21 18 16 16 16 15 15 15 14 13 13 12 12 11 10 10 9 9 9 9 9 10 9 8 8 7 7 8 11
31 30 31 31 31 30 29 28 26 25 24 23 22 20 18 18 18 18 16 14 13 13 12 12 11 11 10 11 11 11 10 10 9 8 8 9 9 8 7 8 9 11
32 32 32 32 31 31 30 28 25 23 24 24 23 21 20 20 19 18 16 14 12 11 11 11 11 10 9 9 10 11 11 11 11 10 10 10 9 8 8 10 12 14

ECMWFNIL_925_spd_117.txt.gz
Wind_Speed
24 24 24 23 22 20 19 18 17 16 15 15 16 17 17 17 17 17 19 19 19 20 20 20 20 19 19 19 20 22 22 23 23 21 21 22 22 22 22 23 23 23
24 24 24 23 22 20 18 17 16 16 17 17 17 17 17 17 17 18 19 19 20 21 21 20 20 19 20 20 20 21 22 22 23 22 22 24 24 25 25 24 24 23
23 23 23 23 22 21 19 18 18 18 18 18 17 17 17 18 18 18 19 20 21 22 21 21 21 20 20 19 19 21 21 22 23 23 24 26 25 26 26 25 24 23
22 22 22 22 21 21 20 20 20 19 18 18 17 17 17 18 18 19 19 20 21 22 21 21 21 20 19 19 19 21 22 22 23 23 26 27 25 25 25 25 25 24
22 22 22 22 22 22 21 21 20 19 19 19 18 18 18 18 18 19 20 20 21 22 21 21 21 20 19 19 20 21 22 23 22 23 26 27 26 25 25 25 25 25
22 22 22 22 22 22 21 21 20 20 19 20 19 18 17 17 17 18 19 20 20 21 21 21 21 21 19 19 20 21 22 22 22 23 26 27 26 25 24 25 26 26
21 21 21 22 22 21 21 21 21 20 20 20 19 17 15 15 16 17 18 19 20 21 21 21 21 21 19 19 20 22 21 21 21 22 24 25 25 24 24 25 26 27
20 20 21 22 22 21 21 22 21 20 20 18 17 15 13 13 15 17 17 19 20 20 20 21 21 20 19 19 20 22 21 20 20 21 23 24 24 23 23 23 25 25
18 19 21 21 21 22 22 22 21 20 19 16 15 14 12 12 14 17 18 19 20 20 20 21 21 20 19 19 20 21 21 20 20 20 22 23 24 22 20 20 21 22
18 20 21 22 22 23 23 23 22 20 17 15 14 12 12 13 16 18 19 19 20 21 21 21 21 20 19 19 20 19 19 19 19 21 22 23 23 21 19 17 18 19
20 22 23 23 24 24 24 23 22 19 17 14 13 13 13 15 17 19 20 20 20 21 21 21 20 19 19 20 19 18 18 18 18 19 21 21 20 19 17 15 15 17
22 22 24 24 24 24 24 23 21 18 16 14 13 13 15 16 18 20 20 21 21 20 20 20 19 18 18 19 18 17 17 17 17 18 18 18 17 17 17 15 14 15
22 23 24 24 24 24 24 22 20 17 16 15 14 15 16 17 19 21 21 21 21 20 20 20 19 18 17 17 17 15 15 15 15 15 15 15 15 15 16 15 13 13
24 24 24 24 24 24 23 21 19 17 16 16 16 16 17 18 20 22 22 21 21 20 20 20 19 18 16 16 15 14 13 13 12 13 13 13 13 13 14 14 13 13
25 25 24 24 25 24 24 22 20 18 18 18 17 17 18 19 20 22 22 22 21 20 20 19 18 17 16 14 13 12 12 11 10 10 11 11 12 12 13 13 12 12
26 25 25 25 26 25 24 23 21 19 19 18 18 18 18 18 20 21 22 21 21 20 19 18 17 16 15 14 12 11 10 10 9 9 9 10 11 12 12 12 11 10
26 26 26 26 26 26 25 23 21 20 20 19 18 18 18 19 19 20 21 21 20 20 18 18 17 16 15 13 12 11 9 9 9 8 8 10 11 13 13 11 10 10
27 28 27 27 27 26 25 23 22 21 20 19 19 19 18 19 19 20 20 20 19 19 18 17 16 15 13 12 11 11 9 8 8 9 9 9 10 12 12 10 9 10
28 28 28 28 27 27 26 24 23 21 21 20 20 19 18 19 19 19 20 19 18 18 17 16 15 13 12 11 11 10 7 6 7 9 10 8 8 9 10 9 8 10
28 28 28 28 28 28 27 25 23 22 21 20 19 19 19 19 19 18 18 18 17 17 16 15 14 12 11 10 9 8 6 6 7 9 10 7 5 5 7 8 8 11
28 27 27 27 28 29 28 26 24 23 21 20 19 18 18 18 18 18 18 17 16 16 16 15 13 11 10 8 7 6 5 6 8 9 9 7 4 1 4 6 8 11
28 28 27 28 29 29 28 27 25 24 22 20 19 18 18 18 17 17 17 16 16 15 15 14 12 9 9 8 6 6 6 7 8 8 8 6 4 1 2 4 7 10
30 30 29 29 30 29 29 28 26 24 23 21 19 18 18 18 17 17 16 15 14 14 13 13 11 8 7 7 7 7 7 8 8 8 7 5 3 1 1 3 6 9
31 31 31 31 30 30 30 29 27 25 23 21 19 18 17 17 17 17 16 14 13 13 12 12 11 8 6 6 8 9 9 9 9 8 7 5 4 3 0 3 5 7
31 31 31 31 30 29 29 28 27 25 23 20 19 17 17 17 18 18 16 14 13 12 11 10 10 9 7 7 8 10 11 10 10 8 7 6 5 4 1 3 4 5
31 31 31 31 30 29 27 27 26 25 23 21 20 18 17 18 18 17 16 15 13 12 10 9 9 8 8 8 9 10 11 10 9 8 8 8 6 3 2 3 4 5

ECMWFNIL_925_spd_120.txt.gz
Wind_Speed
26 27 27 26 24 23 21 20 19 18 17 15 14 15 15 16 16 16 17 18 18 18 19 19 19 20 21 21 20 21 21 22 23 22 23 24 24 23 23 21 21 20
25 25 25 25 23 22 20 19 19 18 17 16 15 16 16 17 17 17 18 19 19 19 19 19 20 20 21 21 20 21 23 24 25 24 24 25 24 23 23 22 21 21
24 24 24 24 23 22 21 20 19 18 18 17 16 16 16 17 18 18 18 18 19 20 20 20 20 20 21 21 21 22 23 24 25 24 25 25 24 24 23 23 23 23
23 24 24 23 23 23 22 22 21 20 19 17 15 15 17 18 18 18 19 19 20 21 21 20 21 21 21 21 21 23 24 25 25 25 26 26 24 24 24 23 24 25
24 24 24 24 23 24 23 23 22 20 19 17 16 16 18 18 18 19 19 20 21 22 22 22 22 21 21 21 22 24 26 26 26 25 26 26 24 24 24 24 25 25
25 25 25 24 24 24 23 22 21 20 18 17 17 18 18 18 19 19 20 21 22 22 22 22 22 21 21 22 24 25 26 26 26 25 26 26 25 24 24 24 25 25
25 25 25 25 24 23 23 22 21 19 18 18 18 18 18 18 19 20 21 22 23 22 22 22 22 21 22 23 25 25 25 25 25 25 26 25 25 25 24 24 25 24
26 25 25 24 24 23 22 22 21 20 20 19 18 18 18 18 20 21 22 23 23 22 21 21 21 22 21 22 24 25 25 25 24 24 24 24 23 24 23 23 23 23
25 25 24 24 24 23 23 22 21 21 20 19 19 19 19 19 20 21 22 22 21 21 21 21 21 21 21 22 24 25 25 25 24 23 22 21 22 22 21 21 22 22
24 24 24 23 24 24 23 22 22 22 20 18 18 19 19 20 21 21 22 21 21 21 21 21 22 21 21 22 23 24 25 25 23 22 21 20 20 20 20 20 20 20
24 24 24 24 24 24 23 23 23 22 20 17 17 19 20 21 21 21 21 20 20 21 21 22 21 21 21 22 23 23 24 24 23 22 20 19 18 18 18 18 19 19
23 24 24 24 24 25 24 24 23 21 18 16 16 18 20 21 21 21 20 20 21 21 21 22 21 20 20 21 22 22 22 22 21 21 20 19 18 16 16 16 17 17
23 23 24 24 25 25 25 23 21 18 16 15 15 18 20 21 21 21 21 21 21 21 20 21 20 19 19 20 20 20 20 20 20 20 19 19 17 16 15 15 15 16
23 23 24 25 25 25 24 22 19 16 14 14 15 17 20 21 21 22 22 22 21 21 20 20 19 18 18 19 18 17 17 17 18 18 18 18 17 15 14 14 14 14
24 25 26 26 26 25 22 20 18 15 14 14 15 17 20 21 22 22 23 23 22 21 20 19 18 17 17 16 16 15 15 15 15 16 16 16 16 15 14 13 12 13
26 26 27 26 25 23 21 19 17 15 14 14 15 18 20 22 22 22 22 22 22 21 20 19 17 16 15 14 13 13 12 13 14 14 14 15 15 14 13 12 12 12
27 27 27 26 24 23 21 19 17 16 15 16 16 18 21 22 22 22 22 21 21 21 20 18 17 16 15 13 12 11 10 10 12 12 13 13 13 13 11 10 11 11
27 27 27 26 25 23 21 19 18 17 16 16 17 19 21 22 22 21 22 21 21 20 19 17 16 15 14 13 11 10 9 9 10 10 10 10 11 11 10 9 9 10
28 28 27 27 25 23 22 20 18 16 16 16 17 19 20 21 21 21 21 20 20 20 19 17 16 14 13 12 11 9 8 8 8 8 7 7 8 10 9 9 9 10
30 29 28 28 27 24 22 19 15 14 16 17 18 19 20 21 21 21 20 19 19 19 18 17 16 14 12 11 10 8 7 7 8 7 6 4 5 7 8 7 8 10
32 30 29 29 27 24 22 20 17 17 18 17 17 19 20 21 21 20 19 19 18 18 17 16 14 13 12 11 10 8 6 7 7 7 5 3 3 5 6 6 7 9
32 32 31 30 27 25 25 24 21 19 18 17 18 19 20 20 20 19 19 19 18 17 16 16 14 12 11 10 9 8 7 7 7 7 5 3 1 4 4 4 7 8
34 33 31 29 28 27 26 24 22 21 19 19 19 20 20 20 19 19 18 18 17 16 16 15 14 12 10 9 9 8 7 7 7 7 6 3 2 2 3 3 6 7
36 33 30 30 31 29 26 25 24 23 20 19 19 19 19 19 18 19 18 16 15 15 14 14 13 11 10 9 9 8 7 7 7 7 6 4 2 3 1 3 5 5
34 32 31 32 32 30 28 27 26 23 21 20 19 18 19 19 18 18 17 15 14 13 12 12 11 10 9 9 9 9 8 7 7 7 6 4 3 3 0 2 2 3
33 31 31 31 32 32 30 28 26 24 22 21 19 18 19 19 18 17 17 16 14 13 11 10 9 9 8 8 9 9 9 8 8 7 5 4 5 3 1 2 1 2

ECMWFNIL_925_spd_123.txt.gz
Wind_Speed
26 27 28 27 27 25 23 20 19 17 15 13 13 13 12 12 13 13 14 15 15 15 16 16 17 16 16 15 16 17 19 20 21 21 21 22 23 23 23 23 23 21
25 27 27 27 27 25 22 21 19 17 15 14 13 13 13 14 15 15 16 16 16 16 17 17 16 16 16 16 17 19 20 21 21 21 22 23 23 24 25 26 26 24
27 28 27 27 26 24 22 21 19 17 17 16 14 13 14 16 16 16 16 17 17 18 18 17 17 16 16 17 18 20 21 21 22 22 24 24 24 25 26 26 26 25
29 29 28 27 26 25 24 22 20 19 18 17 15 14 15 17 18 18 18 18 18 19 19 17 17 17 17 17 19 21 22 22 23 23 24 24 24 25 26 25 26 25
29 29 28 28 27 25 24 23 21 20 19 18 16 15 17 18 18 18 19 19 20 20 19 18 17 17 18 19 21 22 22 23 23 23 23 23 23 25 24 24 23 22
29 28 29 28 27 26 24 23 22 21 20 18 17 16 17 18 18 19 20 21 22 21 19 18 18 18 19 21 22 22 22 23 22 22 22 22 23 24 22 21 20 19
29 29 30 29 28 27 25 24 23 22 20 18 16 16 18 18 19 20 21 22 22 21 19 18 19 20 21 21 22 23 23 22 21 20 21 21 21 21 20 18 17 17
31 31 31 30 29 27 25 24 23 22 20 18 16 17 18 19 20 22 22 23 22 20 20 19 20 21 21 22 22 23 23 22 20 20 20 20 19 19 18 17 16 15
31 31 30 30 29 28 26 25 23 22 20 17 16 19 20 20 20 22 23 23 22 21 21 21 21 21 21 22 21 21 21 21 20 19 19 18 17 16 16 15 15 15
31 31 30 30 29 27 26 25 24 22 19 17 18 21 21 21 21 23 23 22 22 22 22 21 21 21 21 21 20 18 18 19 19 18 17 16 16 15 14 13 14 14
29 29 29 28 28 26 26 25 24 22 19 18 20 22 22 22 23 23 23 23 23 22 22 21 21 21 21 21 19 19 18 18 17 16 16 15 15 14 13 13 13 13
29 28 28 28 27 26 26 25 24 21 20 20 20 21 22 23 24 24 24 23 23 22 21 21 21 21 21 20 20 20 19 18 17 15 14 14 13 13 13 12 12 12
29 28 28 27 27 27 26 25 23 22 21 20 20 21 23 24 24 24 24 23 23 23 21 21 22 21 21 20 19 19 19 18 17 15 14 13 12 12 12 11 12 12
28 27 27 27 27 27 26 25 24 22 21 20 20 22 23 24 25 25 25 24 24 23 22 21 22 21 20 19 18 18 18 17 15 14 13 13 12 11 10 11 11 12
28 27 26 26 26 27 27 25 24 22 20 19 20 22 23 24 25 25 25 25 24 23 21 21 21 21 20 19 19 18 17 15 14 13 12 12 11 10 10 10 10 12
27 26 26 26 27 28 27 25 23 21 19 20 21 23 24 24 25 25 25 25 24 24 22 20 20 20 19 18 18 17 16 15 13 12 11 10 9 9 9 9 10 10
26 26 26 28 28 27 26 23 21 20 20 21 22 24 24 25 25 25 26 25 24 24 22 20 19 18 17 16 16 16 15 14 12 11 10 9 8 8 8 8 8 9
27 27 28 29 28 26 24 22 20 20 20 22 23 24 25 25 25 25 25 25 24 24 22 20 18 17 16 15 14 13 13 12 11 10 10 8 7 7 7 7 7 8
29 29 30 30 28 26 24 22 21 20 21 22 24 25 25 25 25 25 25 24 24 24 22 19 18 17 16 15 13 13 12 11 10 9 8 7 7 7 7 7 7 7
31 32 32 31 29 27 25 23 22 21 21 21 23 24 24 23 23 24 24 24 25 24 21 19 18 17 16 14 13 12 12 11 9 8 7 6 7 7 7 7 8 8
33 33 33 32 30 28 25 23 21 19 20 20 21 22 22 22 23 24 24 25 25 23 21 20 19 18 16 14 13 12 12 11 9 8 6 5 5 6 6 7 7 8
35 35 34 33 31 29 27 24 20 19 20 20 20 21 23 23 24 24 24 25 24 23 22 21 20 18 16 15 13 11 12 12 10 8 6 4 4 5 5 6 7 7
37 36 36 34 33 31 30 25 20 20 22 22 22 23 25 25 25 25 24 24 23 23 22 21 20 18 16 15 13 11 12 13 12 9 7 5 4 5 4 5 6 6
38 38 37 36 36 34 29 24 21 23 24 23 23 24 25 26 25 25 23 22 22 22 22 21 20 18 16 15 14 12 12 12 12 9 7 6 5 5 4 3 4 4
39 38 37 39 37 32 27 25 24 25 24 24 24 24 25 25 25 24 23 22 21 21 20 20 19 18 17 15 14 13 12 12 11 9 8 7 6 5 4 3 2 3
39 38 38 39 35 30 28 27 26 25 26 26 25 25 25 25 24 24 23 22 21 20 19 19 19 18 17 16 14 14 13 12 11 9 9 8 7 5 4 3 1 1

ECMWFNIL_925_spd_126.txt.gz
Wind_Speed
15 15 17 17 20 26 27 24 23 21 19 17 15 13 12 11 11 11 11 11 12 12 12 13 13 13 13 13 15 15 14 13 13 13 13 13 13 13 13 12 11 11
16 15 18 20 24 28 26 24 23 20 18 16 14 14 14 13 12 12 12 12 13 13 13 13 13 12 13 13 14 13 13 13 13 13 13 13 12 12 12 12 11 11
16 17 20 25 29 29 26 24 21 19 18 16 14 14 15 15 14 14 13 13 14 13 13 13 12 12 13 13 13 12 13 12 12 11 12 11 11 11 11 11 11 10
18 17 20 26 30 28 26 23 21 19 18 15 15 15 15 15 15 14 14 14 14 13 13 12 12 12 12 12 12 12 12 12 11 11 11 11 11 11 11 10 10 10
19 17 18 25 29 27 25 24 22 20 18 16 15 15 15 16 15 14 14 14 13 13 13 12 12 12 12 12 12 12 12 11 11 10 11 11 10 10 10 10 10 9
18 17 20 27 29 27 26 24 22 20 18 17 16 14 15 16 15 14 14 14 14 13 12 12 12 12 12 12 12 11 11 11 11 10 11 11 10 10 9 10 10 10
17 19 25 29 28 26 25 24 22 20 18 17 15 14 15 15 15 15 14 14 14 13 12 12 12 12 12 11 11 11 11 11 10 10 10 10 10 10 9 9 10 10
19 23 28 28 28 27 26 25 23 21 19 17 14 14 15 15 15 15 15 14 14 13 12 12 12 12 12 11 12 12 11 10 10 10 11 11 10 10 10 9 9 9
22 26 28 28 28 27 26 25 23 21 20 17 14 14 15 15 15 16 15 14 14 13 13 13 13 12 12 12 12 12 11 10 10 10 10 10 10 10 9 9 8 8
24 28 29 28 29 27 26 26 24 22 20 16 14 15 15 15 15 15 15 14 14 14 14 13 13 13 12 12 12 12 11 11 11 10 10 10 10 9 9 8 8 8
26 29 29 29 29 28 27 27 24 22 20 15 14 15 15 16 16 15 15 14 14 14 14 14 14 13 13 13 12 11 11 11 11 10 10 9 9 9 8 8 8 8
28 29 30 30 29 29 28 27 24 22 19 14 14 16 16 16 16 15 15 14 14 14 14 14 14 14 13 13 12 12 11 11 11 10 10 9 8 8 8 8 8 8
30 31 32 31 29 29 28 26 25 22 17 13 14 16 16 16 16 15 14 14 14 14 14 15 14 14 13 13 12 12 11 11 11 10 9 8 8 8 8 7 8 8
31 32 33 31 30 29 28 27 25 20 15 13 15 16 16 16 16 16 15 14 14 14 15 15 15 14 14 13 12 12 12 11 11 10 9 8 7 7 7 7 8 8
32 32 32 31 31 30 28 26 23 17 14 14 15 15 16 16 16 16 16 15 15 15 14 14 14 14 13 13 13 12 12 11 11 10 9 8 7 7 7 7 8 7
33 32 32 32 31 30 29 26 21 16 15 15 15 15 16 17 17 17 16 16 16 15 15 14 13 13 14 15 14 13 12 11 11 10 9 8 7 7 7 7 7 6
33 32 31 32 31 30 29 24 19 16 16 15 15 16 17 17 18 18 17 16 16 15 15 14 12 14 18 19 16 14 12 11 11 10 8 7 7 7 7 6 6 5
33 32 31 30 30 29 26 21 18 17 16 16 17 17 17 18 18 18 17 17 16 15 15 13 12 16 20 19 18 16 13 11 10 9 8 7 6 6 6 6 5 5
31 30 28 27 27 25 22 19 18 18 17 17 18 18 18 19 18 18 18 17 16 15 14 13 14 18 19 17 17 17 15 11 9 8 7 6 6 6 5 5 4 4
28 26 24 23 23 22 21 20 19 18 18 18 19 19 20 19 19 18 17 16 16 16 14 13 16 20 18 16 15 15 14 11 8 7 6 6 5 5 5 4 4 3
24 24 23 23 22 22 22 21 19 19 18 18 18 20 21 21 22 21 20 19 18 17 14 13 16 20 19 17 16 14 12 10 7 7 6 5 5 5 4 4 3 3
23 23 23 23 23 23 21 20 19 19 19 20 22 24 25 26 26 26 26 24 20 18 15 13 15 20 20 18 17 15 12 9 7 7 6 5 5 4 4 3 3 3
24 24 24 24 24 23 21 20 20 21 23 24 25 25 26 26 26 25 25 23 19 18 16 14 16 20 20 18 18 16 14 10 7 7 7 5 5 5 4 3 3 3
26 27 26 25 24 22 20 21 22 23 24 24 23 22 22 21 21 20 19 20 19 18 17 14 16 20 21 19 18 17 15 11 8 8 7 6 6 6 5 4 4 4
30 31 29 25 22 20 22 23 23 23 23 22 20 20 19 17 18 18 17 18 19 18 17 15 15 20 22 20 18 17 16 12 9 8 8 7 7 7 6 6 5 3
31 33 32 26 22 22 24 24 21 21 21 19 17 17 18 17 17 17 17 18 18 17 17 16 14 19 23 22 18 18 17 13 10 9 9 9 8 8 7 7 6 4